GFSSGP_prec_cloud_003.txt.gz
Cloud_Cover
99 70 100 100 100 100 100 100 100 100 100 39 97 92 30 54 26 100 100 100 100 100 100 85 69 100 87 86 98 100 100 100 42 32 100 97 98 79 95 44 63 93 20 64 100 100 100 72 100
100 100 100 100 100 100 100 100 100 100 100 100 99 99 85 97 85 100 100 100 100 100 100 81 64 100 66 99 94 100 100 99 89 99 100 83 24 4 2 41 9 15 22 65 100 100 100 99 100
100 100 100 100 100 100 100 100 100 100 100 100 100 67 99 100 100 100 100 51 68 66 85 46 100 100 100 100 89 90 94 100 100 100 39 2 5 5 1 0 0 4 13 0 5 100 100 100 100
100 100 100 100 100 100 62 100 100 99 100 100 100 100 100 100 100 99 32 100 2 5 3 3 34 13 6 23 100 100 100 11 6 7 19 7 5 0 0 0 0 0 0 0 0 56 100 100 100
100 100 100 100 100 100 100 100 100 97 98 87 100 100 100 100 100 100 100 53 26 8 2 4 5 60 99 100 96 87 5 33 30 4 0 0 0 0 0 0 0 0 0 0 0 0 60 100 100
100 100 100 100 61 100 100 68 100 100 100 100 100 100 100 100 100 100 82 10 0 6 5 8 34 60 16 5 0 0 0 0 0 0 0 0 0 0 0 0 0 0 0 0 0 0 0 39 100
100 100 94 88 100 100 100 100 100 100 100 100 100 100 96 96 25 15 0 0 0 2 5 10 0 0 0 0 0 0 0 0 0 0 0 0 0 0 0 0 0 0 0 0 0 0 1 68 99
100 18 68 100 100 100 100 100 100 100 100 87 95 98 33 3 2 0 0 0 0 0 0 0 0 0 0 0 0 0 0 0 0 0 0 0 0 0 0 0 0 0 0 0 0 0 4 39 100
100 99 100 98 100 100 100 98 63 93 100 32 6 0 3 0 0 0 0 0 0 0 0 0 0 0 0 0 0 0 0 0 0 1 0 0 0 0 0 4 4 0 3 4 0 0 0 5 68
100 100 22 65 100 99 100 100 100 82 81 4 0 0 0 0 0 0 0 0 0 0 1 0 0 0 0 0 0 0 0 0 2 44 14 0 0 0 0 0 0 3 5 5 4 0 0 0 2
100 100 100 100 100 100 97 100 95 5 1 0 0 0 0 0 0 0 0 0 0 0 0 0 0 1 2 3 5 5 5 86 86 70 79 37 14 5 2 4 5 1 0 1 5 5 5 0 0
100 100 100 100 56 51 96 0 0 0 0 0 0 0 0 0 0 0 0 0 0 4 5 5 6 49 100 100 100 100 100 100 98 95 82 52 22 24 66 94 100 100 15 2 2 20 0 5 11
65 100 95 90 3 0 0 0 0 0 0 0 0 0 0 0 0 0 0 0 1 3 5 47 54 52 73 99 100 100 100 100 100 100 100 58 55 69 30 28 83 98 96 99 100 78 18 0 3
18 37 0 0 0 0 0 0 0 0 0 0 0 0 2 12 44 68 92 95 91 78 66 76 100 100 100 100 95 96 91 100 57 99 99 78 66 42 14 56 79 45 99 90 64 88 100 100 76
0 0 0 0 0 0 0 0 0 0 0 0 0 1 5 10 100 100 78 100 100 100 100 85 22 12 20 5 5 5 5 5 5 5 5 5 5 5 5 5 5 3 5 5 23 20 5 14 13
0 0 0 0 0 0 0 0 0 0 0 0 0 0 5 5 5 73 75 30 76 76 5 5 5 5 3 5 5 5 5 5 5 5 5 5 5 5 10 5 5 5 5 5 5 5 5 5 5
0 0 0 0 0 0 0 0 0 0 0 0 0 5 5 8 2 0 2 40 37 5 3 5 5 5 13 5 5 5 5 5 5 5 5 5 5 5 5 5 5 5 17 5 9 8 6 0 0
0 0 0 0 0 0 0 0 0 0 0 0 5 72 100 29 10 47 7 26 13 20 25 10 5 5 3 2 0 1 3 5 7 59 24 5 5 5 5 5 5 5 6 24 55 41 19 5 1
0 0 0 0 0 0 0 0 0 0 0 4 24 100 97 29 48 13 2 4 6 4 5 5 5 5 5 5 5 5 5 5 5 5 29 51 28 5 5 5 5 5 5 5 8 7 5 2 0
0 0 0 0 0 0 0 0 0 0 1 3 1 0 7 36 10 7 7 0 5 5 8 5 5 10 24 9 5 5 5 1 1 2 4 4 5 5 5 4 5 5 5 5 5 6 42 12 5
0 0 0 0 0 0 0 0 0 0 0 0 5 4 0 1 5 19 9 5 3 3 1 2 5 5 5 2 5 5 1 0 3 34 52 62 52 5 5 5 5 26 35 4 5 5 48 97 50
0 0 0 0 0 5 0 0 3 0 0 4 0 0 5 5 3 3 5 5 3 5 5 7 72 85 94 100 94 99 100 100 100 100 100 100 100 100 90 60 25 76 92 98 80 83 24 5 13
0 0 0 0 0 1 0 0 5 5 2 5 5 5 16 76 90 70 5 5 31 5 6 59 46 38 60 25 100 100 100 100 100 100 100 100 100 91 26 36 61 100 100 98 100 99 100 100 100
0 0 0 0 0 0 0 0 0 2 10 28 7 64 100 100 81 8 43 82 29 32 5 5 64 72 52 44 52 40 55 32 4 4 2 0 0 0 0 13 76 98 42 45 100 100 78 61 98
0 0 3 0 3 0 0 0 0 2 5 5 100 100 100 81 5 26 90 8 28 10 5 5 6 5 5 5 5 5 5 5 0 0 0 0 0 0 0 4 5 100 98 100 100 100 100 97 98
0 0 4 0 5 11 5 0 0 0 5 96 97 16 12 46 50 77 22 5 6 3 2 0 5 5 4 0 0 0 5 1 5 0 0 0 0 0 0 4 12 100 99 100 100 100 100 100 100
0 0 0 0 33 67 65 8 0 3 5 5 5 5 5 44 72 5 5 5 5 5 0 0 0 0 0 0 0 0 0 5 0 0 0 0 0 0 5 16 35 96 100 100 100 100 100 100 100
0 0 2 5 26 93 86 38 0 2 2 1 2 5 5 5 5 5 5 18 5 5 5 3 0 5 3 3 1 0 0 0 0 0 0 1 4 5 76 100 100 100 100 100 100 100 100 100 100
5 5 5 13 5 5 38 83 0 2 1 14 5 5 5 5 6 5 42 72 52 68 16 5 5 5 5 5 5 1 0 0 0 4 5 5 56 87 100 100 100 100 100 100 100 100 100 100 100
11 5 5 66 6 2 18 36 29 4 5 5 5 5 5 5 17 25 99 89 16 80 51 53 45 99 13 5 5 5 4 3 2 4 37 89 100 100 100 94 73 100 100 100 100 100 100 100 100

GFSSGP_prec_cloud_006.txt.gz
Cloud_Cover
7 34 96 100 86 100 90 98 100 100 100 100 100 100 98 62 71 98 97 91 68 100 100 100 100 100 100 100 100 100 74 18 100 100 100 100 58 100 100 92 32 31 31 7 1 44 95 100 100
5 66 77 97 100 92 60 95 100 94 100 100 84 52 84 31 67 89 69 100 100 100 100 100 100 100 100 100 63 86 68 100 100 100 100 90 31 97 100 72 92 84 26 2 5 4 98 100 100
58 89 89 100 100 85 99 46 99 100 100 100 52 84 77 91 59 100 100 100 100 100 100 100 100 81 34 5 3 8 75 86 100 100 88 91 50 86 83 22 9 14 10 4 1 0 1 48 100
100 100 100 100 100 98 12 47 30 77 27 99 45 100 100 100 100 100 100 100 100 100 55 30 4 0 0 0 0 5 5 68 35 99 5 5 1 5 3 0 0 0 0 0 3 4 0 0 0
99 96 20 6 29 14 97 88 100 100 100 100 100 100 100 100 100 100 100 70 52 26 91 0 0 1 4 74 5 1 0 0 0 0 0 0 0 0 0 0 0 0 10 0 0 0 4 16 22
100 100 100 100 95 53 100 100 100 94 91 100 100 100 100 100 100 100 100 100 48 8 23 0 0 0 0 0 0 0 0 0 0 0 0 0 0 0 0 0 0 0 2 0 15 0 0 0 0
95 98 96 95 100 96 97 96 100 100 100 100 100 100 100 100 100 99 96 80 0 0 0 0 0 0 0 0 0 0 0 0 0 0 0 0 0 0 0 0 0 0 0 0 0 0 0 0 1
100 100 100 100 100 99 88 100 100 100 100 100 100 100 100 100 23 14 0 0 0 0 0 0 0 0 0 0 0 0 0 0 0 0 0 0 0 0 0 0 0 4 1 0 0 0 0 0 0
99 100 100 100 100 100 99 100 100 100 100 100 100 100 100 10 2 0 0 0 0 0 0 0 0 0 0 0 0 0 1 2 0 0 1 1 0 0 0 0 0 0 0 1 0 4 0 0 0
100 100 35 98 100 100 100 100 100 100 100 100 100 100 41 2 0 0 0 0 0 0 0 0 0 0 0 1 8 5 5 5 14 24 6 5 5 4 3 4 2 1 2 0 0 2 5 3 3
100 52 100 90 100 100 100 100 100 100 100 83 31 1 0 0 0 0 0 0 0 0 0 2 0 0 0 0 4 5 5 5 7 26 24 5 5 5 5 5 5 27 71 15 4 4 4 2 5
100 100 100 100 100 96 98 100 18 12 4 0 0 0 0 0 0 0 0 0 0 0 5 5 5 5 5 5 5 5 6 6 11 5 5 40 86 24 7 19 4 24 11 31 90 97 78 34 5
99 100 100 18 19 72 7 32 5 7 0 0 0 0 0 0 0 0 5 5 5 5 5 5 5 9 5 5 5 5 4 6 3 5 5 13 8 5 5 16 13 28 8 18 25 9 46 82 77
78 100 100 62 2 0 0 0 0 0 0 0 0 0 0 0 0 0 5 5 5 4 3 1 2 2 1 0 0 0 0 2 0 2 5 5 5 5 5 6 16 7 15 21 5 5 18 9 65
68 10 15 0 5 0 0 0 0 0 0 0 0 0 0 0 4 6 87 34 5 91 17 1 4 3 0 0 0 0 0 0 0 2 5 6 5 5 5 3 21 13 5 5 5 5 6 5 20
0 0 0 0 0 0 0 0 0 0 0 0 0 5 18 72 35 18 5 11 96 53 82 58 20 5 5 5 5 5 5 5 4 0 3 2 0 5 5 5 5 5 5 5 5 1 0 3 5
0 0 0 0 0 0 0 0 0 0 0 0 0 0 5 2 32 9 0 0 0 0 0 0 0 5 5 5 5 3 1 0 0 0 0 0 0 0 0 2 4 5 5 5 3 5 4 5 4
0 0 0 0 0 0 0 0 0 0 0 0 0 0 0 0 0 0 0 0 0 0 0 3 5 5 5 8 5 5 5 2 5 4 5 5 5 5 5 4 4 4 0 0 0 0 0 0 0
0 0 0 0 0 0 0 0 0 0 0 0 0 0 0 1 0 0 0 0 0 0 0 0 5 5 5 5 5 5 5 5 5 5 0 1 1 0 0 0 0 0 1 3 1 0 0 0 0
0 0 0 0 0 0 0 0 0 0 0 0 0 0 0 0 1 8 5 5 0 0 2 5 5 5 5 1 0 0 1 1 3 9 88 26 39 32 23 12 77 73 31 8 5 5 4 0 0
0 0 0 0 0 0 0 0 0 0 0 2 0 4 3 0 3 3 5 5 0 5 5 5 5 5 5 8 31 77 90 68 25 96 100 95 81 60 8 18 3 1 5 5 5 5 5 5 5
0 0 0 0 0 0 0 0 0 5 5 5 5 5 5 5 1 1 0 0 0 1 5 5 36 51 80 41 36 16 6 5 5 6 4 2 0 0 0 0 0 4 5 5 41 60 90 13 5
0 0 0 0 0 0 0 0 0 5 5 5 7 34 5 5 5 0 1 2 0 5 5 45 19 5 5 5 5 5 5 5 5 0 0 0 0 0 0 0 0 0 0 3 46 100 100 100 97
0 0 0 0 0 0 0 0 0 0 0 5 20 5 4 0 2 5 5 5 5 5 5 4 5 5 5 5 6 19 5 2 0 0 0 0 0 0 0 0 0 0 0 0 1 50 88 98 80
0 0 0 0 4 2 0 0 0 3 5 5 1 2 5 5 5 11 40 16 9 5 5 5 5 5 7 5 5 5 5 5 4 0 0 0 0 0 0 0 0 0 0 0 0 14 99 53 97
0 0 3 0 5 4 0 0 0 0 5 1 5 5 4 5 44 80 43 42 5 5 5 32 30 73 97 100 10 5 5 20 69 26 4 5 0 0 75 18 0 4 5 5 51 95 100 100 100
0 0 0 0 41 5 0 0 4 0 0 0 5 5 5 1 6 36 88 98 100 100 98 100 100 100 98 97 79 96 92 65 76 85 6 5 5 5 22 5 5 6 67 87 97 100 100 100 100
0 0 0 3 15 5 3 4 0 0 1 2 4 4 5 20 54 77 100 100 56 24 87 63 55 5 25 5 8 27 59 60 5 3 3 5 5 5 78 80 66 100 100 97 57 100 100 100 100
3 4 4 5 5 7 40 19 0 4 4 10 5 5 5 31 27 82 36 91 71 5 40 55 5 66 32 66 89 92 73 20 5 5 1 4 5 78 95 96 71 100 100 100 100 100 100 100 100
0 4 5 3 2 6 31 77 6 5 15 11 66 38 6 5 7 5 7 5 84 30 37 56 74 72 77 53 39 95 100 95 25 6 96 100 100 100 38 97 100 100 100 100 100 100 100 100 100

GFSSGP_prec_cloud_009.txt.gz
Cloud_Cover
42 92 92 99 68 30 37 8 5 5 5 5 11 7 8 8 13 100 100 100 92 100 100 100 100 100 100 100 100 100 100 56 98 11 4 6 99 75 7 99 96 99 98 100 28 4 5 12 96
100 100 99 100 100 74 81 19 5 27 5 17 26 60 5 13 46 12 38 35 100 100 100 100 100 100 100 100 86 5 38 78 19 8 5 3 48 100 100 76 5 42 68 83 5 55 5 5 25
100 100 97 78 98 98 91 6 5 18 85 79 6 55 5 30 31 100 100 100 100 100 100 100 100 100 99 100 44 2 1 0 0 2 19 7 3 53 42 2 19 4 3 2 19 3 8 39 18
74 82 43 6 100 68 35 98 100 100 30 5 5 28 55 99 34 100 100 100 100 100 100 100 80 100 100 0 0 0 0 0 0 0 0 3 0 0 0 0 0 0 0 2 0 0 0 0 0
74 8 53 23 28 8 55 99 5 5 35 91 74 100 100 100 98 100 100 100 100 100 100 100 100 100 1 0 0 0 0 0 0 0 0 0 0 0 0 0 0 0 6 8 7 0 0 0 0
100 80 93 78 96 88 53 24 5 5 60 100 100 100 100 100 100 100 100 100 100 100 100 100 77 0 0 0 0 0 0 0 0 0 0 0 0 0 0 0 0 0 0 0 0 0 6 15 32
99 78 48 26 100 96 64 42 100 99 56 100 100 100 100 100 100 100 100 100 100 62 59 53 0 0 0 0 0 0 0 0 0 0 0 0 0 0 0 0 0 0 0 0 0 0 0 0 0
100 97 63 67 6 27 98 60 100 100 100 78 100 100 100 100 100 100 100 100 46 2 0 0 0 0 0 0 0 0 0 0 0 0 0 0 0 0 0 0 0 0 0 0 0 0 0 0 0
100 97 78 73 66 100 100 100 100 100 100 100 100 100 100 100 100 89 85 12 10 0 0 0 0 0 0 0 0 0 0 0 0 0 0 0 0 0 0 0 0 0 3 0 0 0 0 0 0
95 70 84 100 72 90 100 100 100 100 100 100 100 100 100 100 84 5 4 3 0 0 0 0 0 0 0 0 0 0 2 4 4 5 5 3 1 0 0 0 0 0 0 0 0 0 0 0 0
96 100 100 100 100 100 100 100 97 99 100 100 100 100 100 91 2 0 0 0 0 0 0 0 0 0 0 0 0 0 0 0 0 1 17 0 0 1 4 4 3 3 0 0 3 3 0 5 5
100 100 100 100 100 100 100 100 100 100 100 100 100 100 91 0 0 0 0 0 0 0 0 0 0 0 0 0 0 0 0 0 0 0 0 4 2 0 5 5 5 0 0 0 0 1 5 2 2
100 100 100 100 100 98 92 100 100 69 74 12 89 78 0 0 0 0 0 0 0 0 0 0 0 0 0 0 0 0 0 0 0 0 0 0 0 3 0 0 0 0 0 0 0 0 0 4 3
100 100 100 100 100 96 84 99 100 16 5 0 8 0 0 0 0 0 0 0 0 1 0 4 5 5 5 5 5 2 0 0 0 0 0 2 1 0 0 0 0 0 0 0 0 0 0 0 0
100 99 91 4 81 89 87 15 2 0 0 0 0 0 0 0 0 0 0 0 0 2 5 6 56 5 36 26 62 20 5 5 5 2 0 0 0 0 0 0 0 0 0 0 0 0 0 0 0
1 0 0 17 2 0 0 0 0 0 0 0 0 0 0 0 0 0 0 0 0 0 0 5 1 5 4 5 5 4 5 2 1 0 0 0 0 0 0 0 0 0 0 2 3 2 4 4 0
0 0 0 0 0 0 0 0 0 0 0 0 0 0 0 0 1 0 0 0 0 0 0 1 0 0 4 5 5 5 3 0 0 0 0 4 12 26 7 2 1 0 1 0 2 0 0 0 0
0 0 0 0 0 0 0 0 0 0 0 0 0 0 0 0 0 0 0 0 0 0 0 0 0 5 5 5 5 5 0 0 4 5 4 0 0 2 0 0 0 0 0 0 0 1 2 4 0
0 0 0 0 0 0 0 0 0 0 0 0 0 0 0 0 0 0 0 0 0 0 0 5 5 5 5 5 0 0 0 0 0 0 0 0 0 0 0 0 10 14 8 4 0 2 4 2 0
0 0 0 0 0 0 0 0 0 0 0 0 0 0 0 0 0 0 0 0 0 5 4 5 5 5 5 5 4 0 2 2 3 5 27 5 5 5 53 60 15 0 0 0 0 0 3 5 5
0 0 0 0 0 0 0 0 0 0 0 0 1 0 0 0 0 0 0 0 5 5 4 5 1 0 0 0 1 2 5 12 15 5 5 7 15 19 5 0 0 0 0 0 0 0 0 5 5
0 0 0 0 0 0 0 0 0 0 0 0 0 0 0 0 0 0 0 0 1 5 5 5 5 4 4 5 5 5 5 5 5 5 5 5 5 5 5 2 0 0 0 0 0 0 0 5 31
0 0 0 0 0 0 0 0 0 0 0 2 5 4 2 5 1 5 5 5 5 5 5 8 31 5 6 69 40 7 17 44 5 5 5 5 5 5 0 0 0 2 0 1 2 4 6 4 17
0 0 0 0 0 0 0 0 0 0 4 16 5 5 5 5 5 5 5 5 10 60 25 54 42 86 96 90 49 67 35 18 5 5 5 7 5 5 5 5 3 5 5 5 30 92 66 86 10
0 0 0 0 0 0 0 0 0 0 2 4 1 2 2 5 5 5 6 6 5 10 54 90 100 51 28 82 97 80 16 5 7 42 55 7 5 5 5 5 5 5 9 38 88 66 98 100 100
0 0 0 0 4 1 4 0 0 0 0 0 0 0 1 5 28 74 6 80 95 88 96 73 7 8 35 51 15 19 87 90 73 85 10 34 13 10 5 13 5 6 90 91 87 19 100 100 100
0 0 0 2 5 5 0 0 0 0 0 1 3 5 5 97 80 44 5 66 100 100 100 100 100 99 62 11 66 80 67 64 69 95 100 99 100 98 99 79 54 10 41 28 96 100 100 100 100
0 0 0 0 2 0 0 0 0 1 3 5 5 5 36 6 21 32 66 82 93 96 60 46 56 39 11 48 85 100 97 74 97 73 42 85 97 66 33 39 96 58 92 98 100 100 100 100 100
2 2 1 1 4 5 54 32 0 5 5 29 22 6 6 16 79 89 18 16 50 37 30 7 40 96 100 100 100 100 100 57 70 36 70 99 76 88 81 65 76 95 100 100 100 100 100 100 100
0 2 2 5 5 0 17 44 71 5 7 70 64 52 100 100 91 29 5 6 5 5 5 83 100 100 100 100 100 90 86 79 100 88 22 31 97 88 98 100 100 100 100 100 100 100 100 100 100

GFSSGP_prec_cloud_015.txt.gz
Cloud_Cover
100 100 100 100 100 100 68 84 95 100 100 100 100 96 13 34 15 34 32 26 30 51 5 6 11 5 75 100 100 100 100 100 100 74 16 60 38 0 0 0 0 0 0 0 0 4 8 4 0
100 100 100 100 100 100 58 93 60 94 77 86 79 26 24 6 9 14 6 6 8 15 21 4 46 97 100 100 100 100 100 100 100 99 10 0 0 0 0 0 0 0 0 0 3 13 14 0 0
100 100 100 100 100 98 64 91 82 90 97 77 96 55 20 5 5 5 5 5 10 5 69 94 100 100 100 100 100 100 100 100 56 13 3 0 0 0 0 0 0 0 0 0 14 22 10 0 0
100 100 100 100 100 100 99 100 100 100 99 100 91 73 6 26 27 17 89 6 37 100 100 100 100 100 100 100 100 96 88 96 0 0 0 0 0 0 0 0 0 0 0 0 1 0 0 0 0
100 100 100 100 92 94 100 100 99 92 100 98 84 8 29 8 15 6 38 100 100 100 100 100 100 100 100 100 100 24 3 0 0 0 1 0 0 0 0 0 0 0 0 0 0 4 8 18 0
100 100 99 98 98 100 100 100 100 100 99 33 5 5 20 19 24 90 100 100 100 100 100 100 100 100 79 94 5 3 0 0 0 0 2 0 0 0 0 0 0 0 0 0 0 0 0 0 0
100 100 100 100 100 100 99 100 100 27 5 5 5 5 56 100 100 100 100 100 100 100 100 100 100 100 100 18 14 3 0 0 0 0 0 0 0 0 0 0 0 0 0 0 0 0 0 0 0
100 100 100 100 100 100 100 100 99 9 5 5 82 100 100 100 100 100 100 100 100 100 100 100 100 99 31 3 0 0 0 0 0 0 0 0 0 0 0 0 0 0 0 0 0 0 0 0 0
100 100 100 100 100 100 100 100 55 10 46 99 100 100 100 100 100 100 100 100 100 100 100 100 100 6 15 0 3 0 0 0 1 0 0 0 0 0 0 0 0 0 0 0 0 0 0 0 0
100 100 100 100 100 100 100 100 22 74 100 100 100 100 100 100 100 100 100 100 100 100 100 100 3 3 2 0 0 0 0 0 0 0 0 0 0 0 0 0 0 0 0 0 0 0 0 0 0
100 100 100 100 100 100 100 98 100 100 100 100 100 100 100 100 100 100 100 100 100 100 100 68 0 0 0 0 0 0 0 0 0 0 0 0 0 12 2 8 0 6 0 0 0 0 0 0 0
100 100 100 100 100 100 98 100 45 100 100 100 100 100 100 100 100 100 100 100 100 34 8 30 0 0 0 0 0 0 0 0 0 0 0 0 0 0 0 0 0 0 0 0 0 0 0 0 0
100 100 100 100 100 100 100 100 100 100 100 100 100 100 100 100 100 100 100 63 11 42 44 35 0 0 0 0 0 0 0 0 0 0 0 0 0 0 0 0 0 0 0 0 0 0 0 0 0
100 100 100 100 100 100 100 100 100 100 100 100 100 100 100 100 100 85 16 7 40 88 57 4 50 2 0 0 0 0 0 0 0 0 0 0 0 0 0 0 0 0 0 0 0 0 0 0 0
100 100 100 100 100 100 100 100 100 100 100 100 100 100 100 36 49 91 19 2 2 18 58 100 20 3 0 0 0 5 0 1 0 0 0 0 0 0 5 5 5 5 5 9 26 12 5 4 0
0 0 42 96 100 100 87 55 97 48 2 3 18 4 0 3 2 4 2 0 0 4 5 17 0 0 0 1 5 5 5 5 5 2 0 0 0 5 5 40 40 61 64 65 15 4 0 2 1
0 31 1 0 0 12 15 53 0 0 0 0 0 1 0 0 5 1 0 0 0 0 0 0 0 1 4 5 9 12 32 5 5 5 5 4 5 5 5 25 15 5 5 3 3 1 11 5 5
14 0 0 0 0 0 0 0 0 0 0 0 0 0 0 0 4 0 0 0 0 0 0 0 2 8 5 58 66 23 5 5 48 81 5 5 5 5 4 3 2 5 5 4 5 15 4 5 74
0 0 0 0 0 0 0 0 0 0 0 0 0 0 0 0 0 0 0 0 0 0 0 0 5 5 80 64 78 98 85 96 87 25 5 5 5 5 5 4 5 5 5 5 5 5 6 92 100
0 0 0 0 0 0 0 0 0 0 0 0 0 0 0 0 0 0 0 0 0 0 0 4 5 87 100 99 100 100 96 80 64 69 13 63 14 87 74 83 62 5 5 18 71 6 29 97 100
0 0 0 0 0 0 0 0 0 0 0 0 0 0 0 0 0 0 0 0 0 5 5 5 66 100 100 100 71 26 88 94 88 40 32 71 16 5 5 5 5 9 10 17 9 83 99 86 50
0 0 0 0 0 3 0 44 0 0 0 0 0 0 0 0 0 0 0 0 5 5 5 5 18 3 5 16 89 100 98 42 100 72 69 32 5 14 5 5 5 22 82 98 84 100 100 100 13
0 0 0 0 0 0 0 0 80 0 0 0 0 0 0 0 0 0 0 4 4 4 5 5 5 5 26 98 100 100 100 100 92 53 5 18 93 72 7 5 6 48 88 100 100 99 99 59 5
0 0 0 0 0 1 3 0 98 98 19 0 0 2 4 0 0 0 4 5 0 5 5 5 9 61 83 65 47 23 69 59 37 33 16 18 32 13 47 98 100 100 100 100 100 100 74 89 86
0 0 5 55 30 66 1 0 40 0 0 1 0 0 0 0 3 5 5 5 5 5 5 18 51 89 79 64 98 68 70 81 88 71 99 96 71 100 100 100 96 48 94 100 100 100 100 100 82
0 0 3 2 5 13 0 1 63 0 0 0 0 0 0 0 2 3 5 5 7 52 95 100 79 51 15 32 50 99 53 93 95 82 100 100 100 100 100 28 97 99 100 100 100 100 100 100 85
0 0 0 0 0 0 1 15 3 0 0 2 1 0 4 5 5 7 15 80 100 100 90 5 29 76 65 68 43 47 59 96 100 93 100 100 100 100 100 31 89 100 100 100 99 88 100 96 82
0 0 4 4 22 0 52 3 100 14 56 17 32 68 42 7 20 58 97 46 39 7 70 51 10 48 35 88 92 100 98 94 93 100 100 100 100 98 61 78 100 100 100 100 100 100 100 100 100
4 5 0 0 0 4 1 12 4 15 14 5 10 5 8 66 71 73 71 85 84 92 100 100 100 100 98 96 57 73 86 100 100 100 49 94 76 70 73 90 95 99 78 100 92 100 100 100 100
0 1 0 0 2 5 1 5 3 5 4 5 8 93 16 73 78 89 98 100 100 100 82 70 74 96 96 96 100 100 100 100 88 100 100 100 100 100 96 73 55 92 92 98 100 100 100 100 100

GFSSGP_prec_cloud_018.txt.gz
Cloud_Cover
100 100 100 100 100 100 100 99 93 68 66 98 99 99 36 100 64 8 18 89 4 9 5 6 5 5 5 6 5 4 2 84 81 100 100 100 100 71 0 0 0 0 0 0 0 0 0 0 0
100 100 100 100 100 100 100 100 54 30 100 99 86 32 48 98 62 73 6 40 56 85 68 18 15 70 100 95 9 43 78 100 100 100 100 100 17 0 0 0 0 0 0 0 0 5 3 0 0
100 100 100 100 100 100 100 99 100 97 76 94 100 83 83 100 67 99 99 100 93 97 39 81 100 100 100 100 54 92 100 100 100 100 100 50 1 0 0 0 0 0 2 2 0 0 0 0 0
100 100 100 100 100 100 90 89 100 100 100 90 35 100 51 93 90 84 48 89 76 69 85 100 74 100 100 100 100 100 100 100 100 56 11 5 0 0 0 0 0 0 0 0 0 0 0 0 0
100 100 100 100 100 100 100 89 100 100 100 100 68 66 66 56 85 100 100 72 82 90 99 100 100 100 100 100 100 100 100 100 100 90 2 0 0 0 0 0 0 0 0 0 0 0 0 0 0
100 100 100 100 100 100 100 100 100 100 100 64 85 81 96 100 88 72 27 29 65 100 100 100 100 100 100 100 100 100 100 100 100 6 4 0 0 0 0 0 0 0 0 0 0 0 0 0 0
100 100 100 100 100 100 100 99 100 95 59 97 85 86 92 100 98 52 24 45 90 100 100 100 100 100 100 100 100 100 100 100 30 0 0 0 0 0 0 0 0 0 0 0 0 0 0 0 0
100 100 100 100 100 100 100 100 100 21 67 88 54 99 100 100 100 59 51 68 100 100 100 100 100 100 100 100 100 100 34 6 0 0 0 0 0 0 0 0 0 0 0 0 0 0 0 0 0
100 100 100 100 96 100 100 100 73 93 100 100 100 100 100 100 100 100 96 100 100 100 100 100 100 100 100 100 100 83 15 0 0 0 0 32 50 50 95 0 0 0 0 0 0 0 0 0 0
100 100 100 100 65 94 100 97 100 100 100 100 100 100 100 100 100 100 100 100 100 100 100 100 100 100 100 100 25 5 0 0 0 0 0 80 4 30 0 20 0 0 0 0 0 0 0 0 0
100 100 100 100 100 100 100 100 100 100 100 100 100 100 100 100 100 100 100 100 100 100 100 100 100 100 95 5 36 57 0 0 0 1 0 0 0 18 0 0 0 0 0 0 0 0 0 0 0
100 100 100 100 100 100 100 100 100 100 100 100 100 100 100 100 100 100 100 100 100 100 100 100 100 59 67 4 0 0 0 0 0 0 0 0 0 0 0 0 0 0 0 0 0 0 0 0 0
100 100 100 100 100 100 100 100 100 100 100 100 100 100 100 100 100 100 100 100 100 100 100 94 81 3 0 0 0 0 0 0 0 0 0 0 0 0 0 0 0 0 0 0 0 0 0 0 0
47 100 100 100 100 100 100 100 100 100 100 100 100 100 100 100 100 100 100 100 100 80 16 40 72 100 52 0 0 0 0 0 0 0 0 0 0 0 0 0 0 0 0 0 0 0 0 0 0
0 6 76 100 100 100 100 100 100 100 100 100 100 100 100 100 100 100 100 78 27 99 31 4 59 100 10 0 0 0 0 5 0 3 5 5 0 0 0 0 0 0 0 0 0 0 0 0 0
0 0 14 1 30 92 100 100 100 88 99 100 100 100 100 100 100 90 14 22 1 5 78 74 96 29 0 0 0 0 0 4 5 5 5 2 0 5 2 4 0 0 2 5 5 4 0 0 0
0 44 49 0 0 0 0 41 7 3 3 25 52 91 100 98 84 98 71 27 23 4 2 0 1 0 7 0 1 3 3 6 16 70 5 5 5 5 5 3 2 0 1 1 0 0 0 5 4
48 42 28 0 0 0 0 3 96 0 0 0 0 0 2 3 77 92 22 1 0 0 0 0 0 3 12 1 4 5 5 5 68 46 5 5 5 5 5 4 5 5 5 4 5 5 5 5 5
0 0 0 43 0 0 0 0 0 0 0 0 0 0 2 10 0 1 3 0 0 0 0 0 3 5 5 5 74 49 49 84 80 92 82 5 43 53 5 5 5 5 4 1 5 5 1 4 2
0 0 0 0 0 0 0 0 0 0 0 0 0 0 0 0 0 0 0 0 0 0 0 5 66 98 70 59 60 68 5 94 99 97 68 12 62 60 71 5 0 0 0 1 0 1 0 0 4
0 0 0 0 0 0 0 0 0 0 0 0 0 0 0 0 0 0 0 0 0 2 32 99 43 5 74 43 4 5 5 78 96 26 90 80 23 7 3 2 3 4 5 5 5 5 5 5 87
0 0 0 0 0 1 4 24 98 0 0 0 0 0 0 0 0 0 0 1 5 8 6 5 5 3 1 5 5 36 54 22 5 6 5 5 5 78 91 96 75 74 12 5 5 36 93 87 58
0 0 0 0 0 0 0 0 95 5 5 2 0 0 0 0 0 0 0 0 0 2 5 5 5 4 5 5 5 5 5 5 11 30 76 62 60 69 100 94 38 74 28 58 97 100 100 100 92
0 0 0 0 0 2 25 17 91 99 80 100 2 0 0 0 0 0 0 1 0 4 4 5 4 5 5 47 17 89 75 100 100 100 100 100 100 100 100 100 100 90 97 100 100 100 73 100 100
0 5 12 72 63 23 50 64 2 13 88 64 12 0 0 0 0 7 5 12 18 13 5 10 13 26 15 67 82 87 87 100 100 100 100 100 100 100 99 98 100 83 60 16 40 100 100 100 100
0 0 0 2 10 25 21 1 5 33 4 62 0 0 1 3 2 2 3 5 5 9 5 38 36 50 100 100 100 100 100 93 87 56 48 72 100 100 86 15 5 28 35 74 78 100 100 99 38
4 2 0 1 0 0 0 100 100 12 82 7 2 0 21 16 20 76 96 10 14 85 36 6 68 100 100 100 100 95 100 100 100 100 100 100 100 100 94 60 90 64 85 100 100 100 100 87 91
0 0 0 32 3 4 27 82 46 64 100 74 90 93 22 25 58 31 6 62 47 6 97 100 100 100 100 100 100 100 100 96 65 100 96 88 63 8 5 5 52 78 71 43 76 51 60 60 90
2 5 0 0 0 2 19 70 5 8 71 50 14 5 25 78 5 5 5 5 73 99 100 100 92 100 79 98 100 92 39 10 9 49 6 5 2 4 5 67 5 14 37 89 98 82 94 82 61
0 0 3 2 1 5 5 68 3 2 2 12 74 9 59 76 6 4 5 5 6 34 62 11 100 37 100 88 13 5 5 5 84 47 5 1 5 5 5 36 5 39 19 38 26 8 6 6 16

GFSSGP_prec_cloud_021.txt.gz
Cloud_Cover
100 100 100 100 100 100 100 100 100 100 100 99 100 100 100 12 6 57 8 20 86 46 87 17 18 32 9 5 5 5 3 1 11 10 7 5 68 100 97 55 93 0 0 0 0 1 0 0 0
100 100 100 100 100 100 100 99 100 100 100 100 100 100 100 97 99 8 5 100 76 94 97 100 96 12 38 5 14 32 5 4 4 34 77 100 100 100 100 95 2 0 0 0 0 0 0 0 0
100 100 100 100 100 100 100 100 100 100 100 100 76 100 100 100 94 19 53 100 32 24 78 91 89 51 64 30 58 44 14 22 37 100 100 100 100 100 100 10 2 0 0 0 0 0 0 0 0
100 100 100 100 100 100 100 100 100 100 100 100 100 100 100 100 86 81 100 100 100 100 100 100 97 57 32 98 100 100 100 100 100 100 100 100 100 99 0 0 0 0 0 0 0 0 0 0 0
100 100 100 100 100 100 97 100 100 100 100 100 100 100 100 100 100 100 100 79 91 100 98 62 80 100 100 100 100 100 100 100 100 100 100 100 100 20 4 0 0 0 0 0 0 0 0 0 0
100 100 100 100 100 100 100 100 100 100 98 99 100 100 100 100 77 76 84 98 100 100 100 100 100 100 100 100 100 100 100 100 100 100 100 94 5 4 0 0 0 0 0 0 0 0 0 0 0
100 100 100 100 100 100 100 100 100 100 100 97 100 100 96 90 45 53 86 100 100 100 100 100 100 100 100 100 100 100 100 100 100 100 99 5 0 0 0 0 0 0 0 0 0 0 0 0 0
100 100 100 100 100 100 100 100 100 100 100 100 100 100 100 90 96 57 49 100 100 100 100 100 100 100 100 100 100 100 100 100 100 66 8 0 0 0 0 0 0 0 0 0 0 0 0 0 0
100 100 100 100 100 100 100 100 100 100 100 100 100 96 99 100 98 69 79 100 100 100 100 100 100 100 100 100 100 100 100 100 100 97 0 0 0 0 0 0 0 0 0 0 0 0 0 0 0
100 100 100 100 100 100 100 100 100 100 100 100 100 100 100 100 96 100 100 100 100 100 100 100 100 100 100 100 100 100 100 99 16 0 0 0 0 0 0 0 0 0 0 0 0 0 0 0 0
100 100 100 100 100 100 100 100 100 100 100 100 66 99 100 99 100 100 100 100 100 100 100 100 100 100 100 100 100 99 43 62 0 0 0 0 0 0 0 0 0 0 0 0 0 0 0 0 0
100 100 100 100 100 100 100 100 100 100 100 100 92 100 100 100 100 100 100 100 100 100 100 100 100 100 100 100 100 82 26 4 0 0 0 0 0 0 0 0 0 0 0 0 0 0 0 0 0
100 100 100 100 100 100 100 100 100 100 100 100 100 100 100 100 100 100 100 100 100 100 100 100 100 100 100 100 100 100 100 96 32 5 0 0 0 0 0 0 0 0 0 0 0 0 0 0 0
100 100 100 100 100 100 100 100 100 100 100 100 100 100 100 100 100 100 100 100 100 100 100 100 100 100 100 100 100 100 100 100 28 0 0 0 0 2 0 0 0 0 0 0 0 0 0 0 0
99 44 62 100 100 100 100 100 100 100 100 100 100 100 100 100 100 100 100 100 100 100 76 100 100 100 100 100 100 100 100 22 0 0 0 0 4 5 0 5 5 5 0 0 0 0 0 0 0
0 17 23 93 100 100 66 88 21 64 100 100 100 100 100 100 100 100 100 100 100 88 46 100 92 57 54 68 71 6 5 5 0 4 5 8 1 0 5 4 2 1 0 1 0 0 0 0 0
3 86 37 13 4 1 0 0 0 3 44 28 33 38 45 88 46 70 39 37 4 2 2 0 0 72 57 57 0 19 5 3 5 7 15 100 30 5 5 5 15 13 5 5 5 0 0 0 4
30 95 7 2 0 0 0 1 67 4 0 0 0 0 1 1 3 2 4 5 1 2 0 0 0 0 0 1 7 6 5 40 100 13 5 5 21 5 5 22 79 21 14 4 0 0 0 0 0
100 38 4 0 0 0 0 0 2 0 0 0 0 0 0 0 0 0 0 2 5 5 0 0 0 3 5 5 41 7 5 47 6 48 5 33 22 50 5 4 0 0 0 0 0 5 0 5 4
4 1 0 0 0 0 0 0 0 0 0 0 0 0 0 0 0 0 0 0 17 12 0 2 36 68 7 14 13 5 5 5 5 83 81 50 9 41 5 0 0 0 0 0 4 5 5 5 5
0 0 0 0 0 0 0 0 0 0 0 0 0 0 0 0 0 0 0 0 1 2 16 83 46 95 68 5 5 4 2 5 5 63 98 98 88 41 3 4 4 4 5 5 1 0 0 5 7
0 0 0 0 0 0 0 0 0 0 0 1 5 5 0 0 0 0 0 5 5 5 8 0 3 5 5 5 2 1 1 5 5 7 31 90 37 6 5 5 0 0 0 4 2 4 3 43 69
0 0 0 0 0 0 0 0 99 78 5 3 5 2 4 5 0 0 0 0 0 0 0 5 5 5 0 5 5 46 99 95 100 100 67 43 45 88 64 41 96 96 100 100 100 99 100 100 100
0 0 0 0 0 0 0 4 70 50 46 6 2 99 65 55 0 0 0 0 0 0 0 1 0 0 0 2 0 5 68 89 100 100 100 100 100 100 89 97 44 14 5 5 5 5 18 7 98
0 0 0 4 5 87 62 76 100 42 26 38 5 5 4 5 0 0 0 1 5 2 4 5 5 92 88 82 61 12 5 5 6 5 35 100 78 13 7 31 5 5 4 1 2 5 62 94 100
0 0 0 0 20 5 3 61 84 27 24 98 97 85 5 5 4 5 3 0 0 4 5 5 43 100 100 100 60 97 97 93 68 83 89 31 5 5 5 5 1 17 100 79 93 86 35 5 5
0 0 0 0 0 0 3 57 94 65 81 81 100 100 34 21 49 5 5 2 2 5 16 10 5 48 94 66 100 100 94 60 99 94 52 5 5 5 5 1 3 81 98 29 46 35 52 67 61
0 0 0 0 0 0 0 19 5 19 6 74 85 81 91 86 72 5 5 5 5 3 5 5 5 6 46 22 5 7 5 5 5 18 33 5 5 5 1 0 1 5 5 5 51 99 5 70 100
0 0 0 0 0 1 4 1 0 5 5 23 29 71 50 36 7 5 8 5 5 5 5 4 5 5 5 14 6 9 5 5 5 5 4 0 0 0 2 2 0 5 45 62 16 5 4 0 3
0 0 0 0 0 2 4 1 0 40 8 99 98 97 43 70 77 97 5 5 5 50 50 5 5 11 19 12 7 5 5 7 4 0 0 0 0 0 0 0 1 4 5 5 5 5 5 5 38

GFSSGP_prec_cloud_024.txt.gz
Cloud_Cover
100 100 100 100 100 100 100 100 100 100 100 100 94 45 22 16 12 46 36 8 27 42 5 33 27 5 5 5 5 5 5 10 4 3 0 2 4 17 4 5 6 92 52 2 0 0 0 0 0
100 100 100 100 100 100 100 84 93 100 100 100 100 100 100 89 99 86 91 31 10 11 6 61 11 22 5 61 22 10 5 6 5 6 5 32 6 5 73 100 61 13 1 0 0 0 0 0 0
100 100 100 100 100 100 100 100 100 100 100 100 100 100 100 100 100 63 19 20 57 42 55 91 43 8 6 50 5 5 5 15 12 96 75 5 36 92 100 12 99 100 1 0 0 0 0 0 0
100 100 100 100 100 100 100 100 100 100 100 100 100 100 100 71 44 12 6 45 86 80 100 97 46 84 8 5 5 45 45 99 100 100 100 92 100 100 100 100 22 4 2 0 0 0 0 0 0
100 100 100 100 100 100 100 100 100 100 100 100 100 100 100 100 69 100 99 100 93 99 88 100 21 40 13 67 100 100 100 100 59 100 100 100 100 100 100 92 8 4 0 0 0 0 0 0 0
100 100 100 100 100 100 100 100 100 100 100 100 100 100 100 100 100 100 100 100 100 100 97 18 66 63 90 100 100 90 100 100 100 100 100 93 100 100 100 97 3 1 0 0 0 0 0 0 0
100 100 100 100 100 100 100 100 100 100 100 100 100 100 100 100 100 100 100 100 100 100 100 67 100 100 100 100 100 100 100 100 100 100 100 100 100 100 100 5 2 0 0 0 0 0 0 0 0
100 100 100 100 100 100 100 100 100 100 100 100 100 100 100 100 100 63 99 100 100 100 100 100 100 100 100 100 100 100 100 100 100 100 100 100 100 100 79 1 0 0 0 0 0 0 0 0 0
100 100 100 100 100 100 100 100 100 100 100 100 100 100 100 100 93 100 100 100 99 100 100 100 100 100 100 100 100 100 100 100 100 100 100 100 100 62 5 2 0 0 0 0 0 0 0 0 0
100 100 100 100 100 100 100 100 100 100 100 100 100 100 100 100 100 100 100 100 100 100 100 100 100 100 100 100 100 100 100 100 100 95 82 99 25 5 0 4 0 0 0 0 0 0 0 0 0
100 100 100 100 100 100 100 100 100 100 100 100 100 100 100 100 100 100 100 100 100 100 100 100 100 100 100 100 100 100 100 100 100 100 100 95 82 5 6 5 0 0 0 0 0 0 0 0 0
100 100 100 100 100 100 100 100 100 100 100 100 100 100 100 100 100 100 100 100 100 100 100 100 100 100 100 100 100 100 100 100 100 100 100 100 100 81 63 3 0 0 0 0 0 0 0 0 0
100 100 100 100 100 100 100 100 100 100 100 100 100 100 100 100 100 100 100 100 100 100 100 100 100 100 100 100 100 100 100 100 100 100 100 100 100 60 5 0 0 0 0 0 0 0 0 0 0
100 100 100 100 100 100 100 100 100 100 100 100 100 100 100 100 100 100 100 100 100 100 100 100 100 100 100 100 100 82 100 100 100 100 100 96 91 2 0 0 0 0 0 0 0 0 0 0 0
100 100 100 100 100 100 100 100 100 100 100 100 100 100 100 100 100 100 100 100 100 100 100 100 100 100 94 71 99 100 100 100 100 100 8 25 0 0 0 0 0 5 0 0 0 0 0 0 0
69 100 100 100 100 100 100 100 100 100 100 93 100 95 99 100 100 98 100 100 98 100 99 100 95 32 2 4 0 8 58 32 98 47 2 3 5 1 0 0 0 5 5 5 5 5 0 0 0
5 6 90 100 100 99 88 100 100 100 87 5 100 100 100 89 30 4 0 2 3 24 42 17 11 10 4 0 5 3 2 9 5 5 5 15 86 70 34 5 27 35 6 5 3 0 0 0 3
5 3 5 5 5 3 0 22 73 23 0 0 7 80 22 0 0 0 0 0 0 5 5 5 5 24 7 5 2 0 5 5 5 5 5 5 51 41 63 29 89 19 5 0 0 0 0 1 5
8 5 5 0 0 0 0 0 0 0 0 0 0 0 0 0 0 0 0 0 4 52 5 5 99 68 74 90 5 5 12 8 32 9 5 5 57 93 81 79 43 5 4 0 4 1 0 0 3
19 5 0 0 0 0 0 0 0 0 0 0 0 0 0 2 0 0 1 2 1 31 11 1 2 44 70 30 100 100 100 84 12 5 5 86 99 100 67 5 20 5 1 3 2 0 0 3 4
59 4 0 0 0 0 0 0 0 0 0 0 0 0 72 96 72 16 7 18 72 93 17 2 5 5 92 71 44 70 73 22 94 71 47 79 53 10 4 2 5 2 0 1 0 0 0 11 22
0 0 0 0 0 0 0 0 0 0 0 0 0 1 2 99 80 12 5 20 61 0 0 5 67 20 5 5 5 5 14 73 85 98 11 11 5 5 3 0 2 4 4 5 2 28 12 21 12
0 0 0 0 0 0 0 0 0 1 0 5 6 99 100 100 100 100 100 100 94 0 0 0 0 0 0 0 5 75 100 100 100 98 100 100 100 100 100 96 93 52 7 5 1 2 0 19 8
0 0 0 0 0 0 0 1 21 5 2 27 34 49 73 22 72 89 100 59 5 5 5 0 0 0 0 2 36 95 88 75 91 86 61 40 13 12 5 4 0 0 2 5 5 5 33 11 5
0 0 0 2 3 8 5 5 25 35 17 33 5 5 13 82 70 10 5 76 38 4 5 5 3 4 28 15 7 5 5 18 30 41 5 5 5 5 5 5 5 1 1 6 78 6 5 5 5
0 0 0 1 4 5 5 3 1 4 99 98 95 5 20 100 100 92 5 5 5 5 4 4 24 97 84 37 66 14 5 5 6 10 22 5 5 1 0 3 0 0 0 0 0 0 3 5 5
0 0 0 0 0 1 0 4 5 62 58 100 100 95 72 5 5 5 5 5 5 19 99 48 31 62 38 5 5 5 5 5 5 5 4 0 0 0 0 0 0 0 0 0 0 0 1 5 5
0 0 0 0 0 1 0 2 5 5 89 23 5 6 5 5 23 11 13 10 21 84 82 5 5 5 3 5 5 11 7 5 5 3 3 5 4 1 0 2 0 0 0 0 4 3 2 2 5
0 0 0 0 0 2 4 0 0 0 3 3 5 9 86 100 100 100 100 100 100 33 5 5 5 1 4 8 13 5 3 1 0 5 5 5 10 5 10 68 100 78 11 24 0 0 0 3 5
0 0 0 0 0 0 4 1 0 0 4 5 5 55 78 88 64 30 95 100 6 4 5 5 5 5 14 5 4 0 4 4 5 80 6 2 5 5 48 100 100 100 100 100 6 3 5 55 80

GFSSGP_prec_cloud_027.txt.gz
Cloud_Cover
90 100 100 100 100 100 100 100 100 100 100 100 100 100 100 100 100 100 100 59 59 51 8 12 8 5 6 5 5 5 7 11 16 0 0 0 0 1 0 0 0 4 5 1 3 5 5 0 0
95 94 100 100 100 100 100 100 100 100 100 100 100 100 100 100 100 100 100 100 95 63 53 50 9 5 5 8 6 5 30 21 7 2 0 1 5 0 0 1 5 5 4 5 5 6 4 0 0
69 100 96 100 100 100 100 100 100 100 100 100 100 100 100 100 100 99 88 78 77 76 85 29 5 23 24 53 46 5 5 5 6 3 5 5 5 5 5 5 5 4 5 5 5 5 3 0 0
77 46 80 100 100 100 100 100 100 100 100 100 100 100 100 97 100 100 81 82 100 100 76 19 100 100 95 100 37 17 31 6 5 51 17 5 5 5 5 32 10 51 56 10 100 3 0 0 0
61 51 100 100 100 100 100 100 100 100 100 100 100 100 99 93 71 94 100 100 100 100 76 100 99 62 63 98 98 90 37 5 56 100 99 11 5 5 11 6 5 12 9 69 8 4 0 0 0
71 64 77 100 100 100 100 100 100 100 100 100 100 100 100 100 100 100 100 100 100 100 100 100 99 87 100 100 100 69 100 84 99 95 46 5 15 30 27 5 5 65 71 40 5 0 0 0 0
100 100 100 100 100 100 100 100 100 100 100 100 100 100 100 100 100 100 100 86 83 97 100 100 91 100 85 100 100 96 99 98 23 98 72 96 100 96 91 6 13 95 69 48 0 0 0 0 0
100 100 100 100 100 100 100 100 100 100 100 100 100 100 100 100 100 100 100 84 99 100 100 100 100 100 100 95 100 100 100 100 100 100 100 100 100 36 53 100 19 100 49 5 3 1 0 0 0
100 100 100 100 100 100 100 100 100 100 100 100 100 100 100 100 100 66 27 100 100 100 100 100 100 100 100 100 99 100 100 100 100 100 100 100 100 100 100 99 92 20 4 3 5 0 0 0 0
100 100 100 100 100 100 100 100 100 100 100 100 100 100 100 100 100 100 100 100 100 100 100 100 100 100 100 100 100 100 100 100 100 100 100 84 94 63 24 67 100 23 5 5 1 0 0 0 0
100 100 100 100 100 100 100 100 100 100 100 100 100 100 100 100 100 100 100 100 100 100 100 100 100 100 100 100 100 100 100 100 100 100 100 100 100 56 10 8 5 4 5 4 0 0 0 0 0
100 100 100 100 100 100 100 100 100 100 100 100 100 100 100 100 100 100 100 100 100 100 100 100 100 100 100 100 100 100 100 100 100 100 100 100 97 29 7 5 5 11 37 0 0 0 0 0 0
100 100 100 100 100 100 90 100 100 100 100 100 100 100 100 100 100 100 100 100 100 100 100 100 100 100 100 100 100 100 100 100 100 100 100 100 100 100 99 97 7 26 1 0 0 0 0 0 0
100 100 100 100 100 100 100 100 100 100 100 100 100 100 100 100 100 100 100 100 100 100 100 100 100 100 100 100 100 100 100 100 100 100 100 100 100 100 100 93 8 0 0 0 0 2 0 0 0
99 100 100 100 100 100 100 100 100 100 99 100 100 100 100 100 100 100 100 100 100 100 100 100 100 100 100 100 81 5 13 11 10 11 1 5 28 23 87 24 5 3 2 0 5 5 0 0 0
100 100 100 100 100 100 100 100 100 100 100 100 86 98 99 100 100 99 84 100 100 96 100 100 86 64 95 98 7 5 4 1 1 4 5 5 4 5 31 5 1 0 5 0 3 5 0 0 0
45 59 100 100 100 100 100 100 100 100 100 89 100 100 100 100 98 100 56 78 44 59 100 100 100 100 100 100 100 21 5 5 5 5 5 5 5 5 5 5 5 8 17 6 5 4 0 0 0
5 17 5 5 8 50 34 100 100 100 100 100 100 100 84 61 100 100 86 15 8 46 49 78 100 100 100 100 100 87 35 6 5 5 5 5 5 5 60 96 100 80 38 15 0 0 0 0 3
5 5 5 7 26 5 5 8 5 14 40 28 93 11 3 0 0 4 0 0 1 5 9 61 98 27 52 92 98 69 5 5 5 5 60 72 98 98 98 79 57 56 27 4 0 0 0 0 0
0 0 3 5 5 5 5 5 0 4 4 2 2 0 0 2 9 82 6 30 56 67 100 9 98 100 98 74 6 5 5 11 58 22 13 76 49 9 4 4 5 5 2 0 0 0 0 0 5
5 0 0 0 0 0 0 0 0 0 0 0 0 0 5 5 5 10 41 100 100 92 9 17 14 4 1 2 5 49 34 40 12 5 5 5 5 5 0 0 0 0 0 0 0 1 0 11 0
4 4 0 0 0 0 0 0 0 0 0 0 1 4 41 20 5 59 98 68 89 48 5 5 5 5 4 5 85 99 18 9 5 5 5 5 5 5 3 0 0 0 0 0 0 0 0 4 6
5 0 0 0 0 0 0 0 0 0 0 5 5 16 33 23 100 55 71 67 53 66 12 8 5 3 5 12 89 100 100 100 100 88 91 100 100 98 32 14 9 5 0 0 0 0 5 5 4
0 0 0 0 0 0 0 0 0 0 0 0 5 52 89 100 100 99 100 97 100 100 93 27 21 8 20 91 100 100 100 100 100 100 100 100 100 97 47 4 0 0 0 0 0 0 0 0 0
0 0 0 0 0 0 0 0 0 0 0 2 10 94 97 8 60 100 92 100 100 100 77 100 46 30 100 100 94 72 35 33 98 100 100 42 2 2 0 1 0 0 0 0 0 0 0 0 0
0 0 2 0 0 0 0 0 0 0 0 5 5 5 5 48 97 100 100 92 59 27 21 5 8 92 71 11 69 94 88 83 57 9 5 5 5 0 0 1 5 5 5 5 36 4 0 0 0
0 0 0 0 0 0 0 0 0 0 3 5 5 8 66 96 4 0 0 0 2 5 6 24 7 5 5 12 5 4 3 4 5 5 5 5 2 0 1 5 44 59 100 100 99 67 6 4 0
0 0 0 0 0 0 0 0 0 0 3 5 13 99 21 0 2 4 5 5 5 15 75 34 5 5 5 5 5 5 5 5 5 5 2 2 4 5 24 100 92 95 62 100 87 91 97 82 7
0 0 0 0 2 2 3 0 0 0 2 3 1 0 1 5 5 27 26 86 53 94 71 35 5 16 7 5 5 5 5 5 3 5 5 5 5 46 71 48 99 100 98 100 97 100 100 100 100
0 0 0 0 0 1 4 1 0 0 0 0 5 5 5 5 69 85 95 91 87 88 91 75 99 37 5 5 4 3 5 5 5 5 5 87 68 88 100 100 85 100 100 100 100 100 100 100 92

GFSSGP_prec_cloud_030.txt.gz
Cloud_Cover
5 5 5 29 100 100 100 100 100 100 100 100 100 100 100 100 100 100 100 100 100 99 97 100 87 11 9 12 4 1 15 2 0 0 0 0 1 0 0 0 0 0 0 0 0 0 0 0 0
76 17 8 14 93 100 100 100 100 100 100 100 100 100 100 100 100 97 100 100 100 99 100 100 100 36 5 64 3 0 2 4 0 2 3 5 4 4 5 4 0 0 2 0 0 0 0 0 0
35 5 4 5 5 100 100 100 100 100 100 100 100 100 100 100 100 100 97 100 100 100 96 66 48 5 5 5 5 5 22 5 3 5 4 5 5 8 5 3 2 4 2 4 3 5 0 1 0
5 5 4 3 26 97 100 100 100 100 100 100 100 100 100 100 100 100 100 100 100 100 100 100 69 25 5 5 6 96 15 5 5 3 1 5 95 16 5 5 5 5 4 5 5 7 2 0 0
5 21 3 4 23 13 100 100 100 100 100 100 100 100 100 100 100 100 100 100 100 100 95 91 86 77 74 80 96 77 65 19 5 10 15 32 37 5 20 35 5 21 5 43 5 5 4 0 0
45 91 5 4 21 40 82 100 100 100 100 100 100 100 100 100 100 100 100 100 100 100 93 41 67 100 50 100 100 98 82 53 27 62 34 30 30 97 33 38 12 56 69 51 19 5 5 0 0
74 99 21 85 5 79 86 100 100 100 100 100 100 100 100 100 100 100 100 100 100 100 87 99 100 100 99 100 100 99 100 100 99 72 100 100 98 94 99 99 7 94 27 92 80 2 3 0 0
69 93 44 61 100 82 100 100 100 100 100 100 100 100 100 100 100 100 100 100 100 100 100 100 99 83 100 100 100 100 100 100 100 100 100 100 100 100 100 88 92 98 94 96 9 5 5 0 0
48 100 96 68 100 100 100 100 100 100 100 100 100 100 100 100 100 100 100 100 100 100 100 100 100 100 98 100 81 100 100 100 94 100 100 100 100 100 100 83 35 72 18 86 8 4 0 0 0
48 88 99 100 100 100 100 100 100 100 100 100 100 100 100 100 100 93 95 99 100 100 100 100 100 99 100 100 100 100 100 100 100 100 100 100 89 100 73 78 34 6 5 5 8 2 4 2 0
97 100 100 100 100 100 100 100 100 100 100 100 100 100 100 100 100 100 100 100 100 99 100 100 51 100 100 100 100 100 100 100 100 100 100 100 100 98 99 100 100 8 0 5 2 5 5 0 0
100 100 100 100 100 100 100 100 100 100 100 100 100 100 100 100 100 100 100 100 100 100 100 97 100 100 100 100 100 100 100 100 100 100 100 100 100 99 94 30 5 5 11 23 5 4 0 0 0
100 100 100 100 100 100 100 100 100 100 100 100 100 100 100 100 100 100 100 100 100 91 100 100 100 100 100 100 100 100 100 100 100 100 100 100 100 68 6 3 2 0 1 11 46 5 2 0 3
100 100 100 100 100 100 100 100 100 100 100 100 100 100 100 100 100 100 100 100 100 100 100 100 100 100 100 100 100 100 100 100 100 99 84 36 1 5 5 1 0 1 5 4 2 0 3 0 0
100 100 100 100 100 100 100 100 100 100 100 100 100 100 100 100 100 100 100 100 100 100 100 100 100 100 100 100 100 100 100 29 10 5 27 6 5 4 0 5 3 5 5 0 2 5 5 0 2
89 100 100 100 100 100 100 100 100 100 100 100 100 55 100 100 99 5 38 91 96 57 26 100 100 100 100 100 100 100 100 100 78 100 99 95 21 0 0 3 5 5 5 5 5 5 5 5 4
60 79 95 100 100 100 100 100 100 100 100 100 93 86 84 59 91 100 88 26 51 49 100 100 100 100 100 100 100 100 100 100 100 96 100 100 14 8 32 76 35 5 5 5 5 5 5 2 0
95 75 75 83 100 100 100 100 100 100 100 100 100 100 100 100 100 100 100 88 100 100 81 78 88 100 100 100 100 100 100 100 100 58 71 56 40 100 100 29 6 5 5 5 5 4 5 1 0
5 5 5 5 30 86 68 55 100 98 100 100 100 7 23 97 78 76 86 90 6 49 86 99 100 100 100 100 100 100 93 86 5 5 5 7 75 30 5 4 0 0 0 0 0 0 0 0 0
5 3 5 65 68 68 45 69 57 99 100 75 88 48 5 12 7 5 17 9 8 65 91 100 75 59 95 87 18 4 5 5 5 4 2 1 0 0 0 0 0 0 0 0 0 0 0 0 6
5 5 6 12 12 5 7 5 22 71 57 17 3 1 0 0 5 25 43 93 100 76 48 69 97 100 35 5 5 5 0 0 1 2 2 0 0 0 1 0 0 0 0 0 0 0 0 0 0
1 0 0 0 2 3 2 4 5 0 0 0 0 0 1 0 5 5 5 78 26 33 100 100 71 5 28 4 1 4 5 5 5 5 5 2 3 5 3 4 4 0 0 0 0 0 0 0 0
0 0 0 0 0 5 2 0 0 0 0 0 0 2 0 5 87 5 56 6 33 100 90 56 57 65 55 98 18 7 5 5 5 0 5 5 6 5 10 7 5 2 5 5 0 1 0 0 0
0 0 0 0 0 0 0 0 0 0 0 0 0 0 5 5 5 20 29 58 95 100 100 100 100 96 69 88 68 95 83 5 5 38 78 76 83 97 25 5 5 5 3 1 4 2 4 2 0
0 0 1 0 0 0 0 0 0 0 0 0 0 0 5 5 4 10 64 86 100 100 67 96 100 100 97 39 5 5 5 15 65 74 66 42 35 37 5 5 5 5 5 5 5 14 5 5 5
0 0 0 0 4 0 0 0 0 0 0 0 0 0 0 5 7 80 78 93 5 5 69 32 56 38 5 5 5 46 63 5 5 5 5 5 5 5 5 5 4 5 5 10 15 8 70 86 5
0 0 0 0 0 0 0 0 0 0 0 0 0 2 5 5 12 27 2 0 5 5 5 6 61 88 95 5 5 5 5 5 5 5 5 23 43 5 5 5 6 84 100 98 89 100 99 93 97
0 0 0 0 0 0 0 0 0 0 0 0 0 4 13 46 4 0 4 5 5 5 9 95 87 20 5 5 5 5 5 5 6 30 44 13 5 5 5 58 38 5 34 24 98 89 100 100 100
0 0 0 0 1 1 3 0 0 0 0 0 1 3 0 0 0 4 5 7 10 7 51 23 5 5 93 99 5 5 5 5 5 5 4 5 5 2 0 0 1 5 2 100 98 74 94 97 93
0 0 0 0 0 5 4 1 0 0 0 0 0 0 0 0 5 8 76 98 97 96 19 22 84 100 74 5 5 5 5 5 5 5 2 0 0 0 0 1 40 88 16 82 100 100 100 100 100

GFSSGP_prec_cloud_033.txt.gz
Cloud_Cover
5 0 0 0 0 2 15 82 100 100 100 100 100 25 73 100 100 100 100 100 100 100 100 100 100 100 100 97 100 28 7 4 2 0 5 0 0 0 0 0 0 0 0 0 0 5 0 5 0
5 3 0 0 0 1 47 30 100 100 100 100 100 99 99 100 100 100 100 100 100 100 100 100 100 100 75 15 54 86 14 4 20 70 2 4 2 5 5 0 0 0 0 7 17 1 15 3 1
1 5 4 0 0 17 8 16 100 100 100 100 100 100 100 100 100 100 100 100 100 100 100 100 100 78 39 19 24 50 5 5 11 5 3 2 50 93 5 5 17 4 4 5 4 5 25 4 5
5 4 3 0 0 0 4 15 78 100 100 100 100 100 100 100 100 100 100 100 100 100 99 100 99 82 5 51 38 79 10 5 4 5 26 71 62 100 45 76 70 7 5 7 5 5 3 5 5
5 1 4 2 0 0 5 5 88 100 100 100 100 100 100 100 100 100 100 100 100 100 100 100 99 100 93 100 87 5 12 76 5 77 96 52 96 73 94 88 39 5 5 5 5 5 5 5 8
35 5 5 5 1 62 6 5 37 100 100 100 100 100 100 100 100 100 100 100 100 100 100 100 100 100 97 100 93 52 41 7 100 68 62 57 99 100 91 53 100 94 9 5 5 8 15 5 1
5 7 26 5 5 14 17 5 95 100 100 100 100 100 100 100 100 100 100 100 100 100 100 89 100 100 100 99 83 95 93 98 98 99 85 100 97 41 13 99 12 16 6 5 8 5 8 5 4
10 59 88 32 14 61 9 40 100 100 100 100 100 100 100 100 100 100 100 100 100 100 100 100 98 100 100 98 99 100 100 100 100 100 100 100 85 96 84 100 30 16 9 5 5 5 5 5 0
66 89 99 92 100 100 100 100 100 100 100 100 100 100 100 100 100 100 100 100 100 100 100 100 99 100 100 100 100 100 100 100 100 100 100 99 100 100 100 88 83 13 86 6 33 5 5 4 0
100 100 100 96 100 77 100 100 100 100 100 100 100 100 100 100 100 100 100 100 100 100 100 100 100 100 100 100 100 100 100 100 100 100 100 100 100 100 100 100 100 83 41 5 5 3 0 0 0
99 52 88 100 100 100 100 100 100 74 100 64 100 100 100 100 100 100 100 100 100 100 100 100 100 100 100 100 98 100 100 100 100 100 100 100 100 100 100 100 100 100 16 5 4 0 0 0 0
98 85 100 100 100 100 100 98 100 100 100 100 100 100 100 100 100 100 100 100 100 100 100 100 100 100 100 100 100 100 100 100 100 100 100 99 100 96 100 100 100 64 6 0 0 0 0 0 0
100 100 100 100 100 100 100 100 100 100 100 100 100 100 100 100 100 100 100 100 100 100 100 99 94 100 100 100 100 100 100 100 100 100 100 100 100 100 100 97 67 49 5 4 5 0 0 0 0
100 100 100 100 100 100 100 100 100 100 100 100 100 100 100 100 100 100 100 98 100 100 100 100 100 100 100 100 100 100 100 100 100 100 100 100 97 93 10 9 5 9 5 0 3 2 0 0 1
100 100 100 100 100 100 100 100 100 100 100 100 62 100 100 100 97 100 95 100 100 82 83 91 100 100 100 100 100 100 100 100 99 100 100 100 67 72 97 89 55 6 5 5 5 2 5 5 5
100 100 100 100 100 100 100 100 100 100 100 100 100 100 100 100 32 36 100 100 14 47 100 98 100 100 100 100 100 100 100 100 100 100 100 74 100 97 88 70 5 5 5 5 3 5 4 3 6
100 100 100 100 100 100 100 100 100 100 100 100 100 100 92 63 100 100 96 13 43 19 49 87 100 100 100 100 100 100 100 100 100 100 100 100 100 100 52 5 5 5 5 5 4 5 5 26 76
100 100 91 34 74 100 90 100 100 100 100 100 100 100 100 66 40 78 83 99 100 81 100 100 90 100 100 100 100 100 100 100 100 100 100 100 80 37 16 3 5 5 2 0 0 0 0 0 0
100 100 94 10 9 5 5 68 100 100 91 93 100 100 100 67 69 73 49 77 100 96 27 59 100 94 100 100 100 100 100 100 100 100 80 36 9 0 0 0 0 0 0 0 0 0 1 2 0
100 100 49 66 49 22 7 8 14 11 5 26 38 46 64 93 74 69 23 59 43 49 41 100 99 80 100 97 44 61 62 36 5 0 0 0 0 0 0 0 0 0 0 0 0 0 0 0 0
7 5 6 5 8 37 85 87 71 46 50 19 5 5 5 5 5 30 36 4 50 46 28 13 9 6 5 5 5 5 5 5 66 56 6 5 0 0 1 0 3 11 37 33 5 5 2 0 0
5 0 5 5 55 68 11 5 5 5 3 2 5 5 5 5 0 4 5 5 13 55 5 5 9 5 31 69 67 5 42 56 8 11 4 2 5 5 23 79 96 66 7 5 0 0 0 0 0
3 5 4 5 5 5 1 0 0 0 0 0 0 0 0 2 0 3 6 9 66 14 12 34 74 38 23 92 63 91 96 5 2 0 3 5 8 87 84 5 2 0 0 0 0 2 5 5 13
0 0 1 1 2 2 2 1 0 0 0 0 0 0 4 1 0 3 5 52 38 50 54 80 70 97 82 11 34 15 5 4 5 4 3 5 9 1 1 0 0 0 2 4 12 73 86 89 25
0 0 1 4 5 0 0 0 0 0 0 0 0 0 0 0 0 5 92 60 70 91 77 5 25 32 58 64 7 7 5 5 5 3 0 2 1 0 3 5 12 5 5 6 47 5 98 98 5
0 0 0 0 0 0 0 0 0 0 0 0 0 0 0 0 4 22 77 100 100 10 5 5 5 6 10 97 78 5 48 67 5 0 0 2 5 5 5 5 5 5 6 6 87 28 10 72 22
0 0 0 0 0 0 0 0 0 0 0 0 0 0 0 4 5 12 61 5 0 0 4 5 5 19 99 100 69 65 91 63 5 5 5 5 9 51 6 5 5 1 0 0 5 5 7 57 98
0 0 0 0 0 0 0 0 0 0 0 0 0 0 0 5 5 5 3 0 2 5 5 5 61 100 100 80 92 100 76 6 12 10 50 26 17 15 5 4 3 4 1 9 87 85 72 94 26
0 0 0 0 0 0 0 0 0 0 0 0 0 0 0 5 0 0 0 0 5 5 8 41 100 95 63 85 89 17 73 63 7 5 5 5 5 5 4 5 5 2 5 47 98 6 5 55 95
0 0 0 0 0 0 0 0 0 0 0 0 5 5 5 5 4 0 2 5 7 13 74 100 63 99 97 85 7 15 5 5 5 5 5 5 5 5 5 5 5 5 32 90 97 82 100 94 82

GFSSGP_prec_cloud_036.txt.gz
Cloud_Cover
0 0 0 0 0 0 3 5 0 10 91 78 100 100 100 100 100 88 100 75 70 100 100 100 100 100 100 100 100 100 100 100 100 100 96 5 5 5 5 2 0 0 4 2 1 0 5 0 5
1 2 2 1 0 4 52 6 5 10 74 34 100 100 100 100 100 100 78 89 100 100 100 100 100 100 100 100 100 100 100 100 81 10 5 5 5 3 0 1 2 4 1 5 5 1 0 5 24
63 6 5 5 0 12 72 76 8 44 5 62 100 99 100 100 100 100 100 97 98 100 100 100 100 100 100 100 100 100 100 80 16 5 5 5 5 5 1 2 5 4 48 96 6 15 26 6 5
32 72 4 0 0 0 3 4 16 6 98 99 71 100 100 98 100 100 100 100 100 100 100 100 100 99 100 64 31 78 5 5 5 5 2 3 5 1 88 5 5 47 21 5 5 5 32 5 4
5 5 1 5 5 0 2 0 27 5 44 100 100 97 100 100 100 100 100 100 100 100 98 100 40 91 91 100 96 6 5 5 5 5 5 68 26 5 12 8 6 5 5 50 43 100 10 5 5
86 24 12 29 37 5 2 6 72 7 73 100 100 100 100 100 100 100 100 100 100 100 100 100 100 100 94 65 23 68 57 96 97 32 63 36 56 91 69 12 76 100 100 96 91 94 7 33 40
22 11 17 10 29 5 4 5 49 45 81 100 100 100 100 100 99 100 100 100 100 100 100 100 100 100 100 100 100 100 100 100 100 100 95 100 100 100 100 100 100 92 49 100 98 68 86 28 9
13 20 5 100 87 94 78 81 10 100 100 50 100 100 100 100 100 100 100 100 100 100 100 100 100 100 98 100 100 100 100 100 100 100 100 100 100 100 100 100 100 100 100 100 100 100 100 42 52
94 26 56 100 69 100 89 97 98 93 100 100 87 100 100 100 100 100 100 100 100 100 100 100 100 100 99 97 100 100 100 100 100 100 100 100 100 100 100 100 100 34 100 90 100 100 27 18 5
100 100 77 81 98 100 100 100 100 100 100 100 100 100 100 100 100 100 100 100 100 100 100 100 100 100 100 100 100 100 100 100 100 100 100 100 100 100 98 100 98 96 100 100 100 100 90 3 1
100 72 60 98 99 100 100 100 98 49 98 100 100 91 100 100 100 100 100 100 100 100 100 100 100 100 100 100 100 100 100 100 100 100 100 100 100 100 100 97 97 89 100 100 100 100 53 5 0
47 91 100 100 100 100 100 100 100 99 100 100 100 77 86 100 100 100 100 100 100 100 100 100 100 100 100 100 100 100 100 100 100 100 100 100 100 100 100 56 19 5 21 23 5 7 5 3 0
100 100 100 100 100 100 100 98 100 100 100 100 100 100 100 100 82 98 100 100 100 100 100 100 100 100 100 100 100 100 100 100 100 100 100 100 100 91 94 99 99 13 32 5 4 4 4 0 0
100 100 100 100 100 100 100 100 100 100 100 100 100 100 100 100 100 100 100 100 100 100 100 100 100 100 100 100 100 70 89 100 100 100 100 100 100 37 95 97 95 73 86 82 5 5 5 3 0
100 100 100 100 100 100 100 100 100 100 100 100 100 100 100 100 100 100 100 100 100 100 100 100 100 100 100 100 98 100 100 100 100 100 100 100 100 100 100 100 100 100 100 100 100 25 5 5 0
100 100 100 100 100 94 100 100 100 100 100 100 100 100 99 62 86 91 98 100 100 96 97 100 100 100 100 100 100 100 100 100 100 100 100 100 100 100 100 100 100 100 100 91 5 5 5 0 0
100 100 100 100 100 100 100 100 100 100 100 100 100 100 100 100 100 100 100 100 100 100 99 100 100 100 100 100 100 100 100 100 100 100 100 100 100 100 100 100 100 100 100 100 3 0 0 0 3
100 100 100 100 100 100 100 100 100 100 100 100 100 100 82 64 86 53 50 40 46 91 92 87 81 100 100 100 100 100 100 100 100 100 100 100 100 100 100 100 100 72 7 0 0 0 0 0 0
100 100 100 100 100 100 100 100 100 100 100 100 100 100 100 92 37 100 99 77 53 47 99 68 94 100 100 100 100 100 100 100 100 100 100 100 100 100 100 100 5 0 0 0 0 0 1 4 1
100 100 100 100 95 100 100 100 99 77 46 41 42 62 69 93 82 79 77 49 40 80 82 59 50 100 100 100 100 82 100 90 100 100 100 91 56 75 42 2 0 0 0 3 5 5 5 4 3
100 100 100 100 97 48 46 60 59 57 50 29 53 79 74 97 98 80 56 45 93 94 51 29 93 29 58 48 97 100 26 84 92 94 93 76 14 1 3 0 0 5 6 36 5 5 1 3 0
100 98 78 40 15 45 5 51 5 5 5 10 47 62 32 10 2 0 2 7 9 71 61 42 5 37 99 68 12 5 5 5 5 5 5 4 5 1 0 0 5 5 5 5 2 3 5 5 5
74 17 47 5 5 5 5 3 5 5 1 0 1 5 4 0 0 3 5 5 70 5 28 5 63 26 6 72 42 38 5 5 5 5 6 19 10 4 0 0 0 2 5 5 0 3 16 42 58
20 5 5 5 2 0 3 0 1 4 0 0 0 0 0 0 1 5 5 5 5 5 5 10 8 5 14 5 5 5 11 6 5 11 98 85 32 5 5 5 3 2 5 5 12 47 24 58 82
5 2 2 0 0 0 1 5 0 0 0 0 0 0 0 0 0 4 5 4 5 5 5 5 5 5 5 5 5 10 31 9 73 99 93 21 5 5 5 5 5 5 5 40 6 86 60 48 61
0 0 3 4 5 5 1 0 0 0 0 0 0 0 0 0 0 4 0 5 5 5 5 5 0 5 5 7 37 98 97 77 79 25 5 5 5 5 5 5 5 5 5 5 5 34 44 86 32
5 5 4 3 0 0 0 0 0 0 0 0 0 0 0 0 0 0 5 5 6 5 3 2 5 5 5 12 67 98 91 59 67 6 5 13 7 5 5 5 5 5 5 5 6 40 13 86 94
0 0 0 0 0 0 0 0 0 0 0 0 0 0 0 0 5 4 5 20 16 0 2 5 5 5 29 100 91 45 34 92 70 73 88 27 5 5 5 5 44 12 5 6 71 16 27 100 83
0 0 0 0 0 0 0 0 0 0 0 0 0 4 5 5 5 5 5 5 5 5 5 48 65 81 88 100 100 86 90 76 75 32 5 5 5 5 5 8 5 5 9 79 80 35 83 100 90
0 0 0 0 0 0 0 0 0 0 0 0 5 5 5 5 5 5 5 5 5 5 20 23 86 62 100 100 100 94 20 9 5 5 5 5 5 38 87 17 5 26 100 100 84 43 98 95 99

GFSSGP_prec_cloud_039.txt.gz
Cloud_Cover
5 0 0 0 0 0 0 28 100 5 98 100 36 98 100 100 100 100 100 100 100 95 61 75 89 93 55 29 82 100 100 63 100 100 100 100 100 100 100 100 96 10 5 5 1 0 0 0 0
39 83 30 5 4 5 49 96 47 0 72 72 3 50 100 100 96 90 100 100 85 88 95 100 100 100 88 38 52 100 98 89 100 100 100 100 100 100 100 97 100 22 69 9 2 1 0 0 4
100 98 91 91 50 6 100 98 0 5 53 5 5 10 67 100 77 81 87 100 100 100 100 100 100 100 97 100 98 84 73 99 92 100 77 68 87 5 100 10 11 5 4 4 5 4 5 5 11
20 100 100 100 84 98 35 7 74 89 5 17 95 69 60 87 84 85 89 100 100 100 100 100 100 94 100 100 99 21 73 48 5 5 5 5 25 7 5 5 5 4 4 5 5 24 37 91 100
2 16 95 99 100 57 5 92 5 72 42 5 70 38 80 100 100 72 83 90 76 100 100 100 100 100 100 80 100 12 52 100 86 12 5 18 42 91 100 95 5 5 8 56 95 78 96 100 90
2 23 95 98 100 39 26 100 16 100 96 43 12 98 82 86 88 100 100 100 100 100 100 100 100 100 99 100 100 100 100 100 100 100 100 100 100 47 5 5 5 24 8 82 56 86 100 100 87
5 74 100 100 100 68 7 99 16 90 15 26 12 100 97 68 100 100 100 100 100 100 100 100 100 100 100 100 100 100 100 100 100 100 100 100 77 100 93 92 92 99 100 100 98 93 100 100 100
5 44 100 100 100 92 29 50 54 10 92 18 99 100 100 91 98 100 100 100 100 100 100 100 100 100 100 100 100 100 100 100 100 100 79 100 100 100 100 100 100 100 100 100 100 100 100 93 80
5 99 100 71 100 54 55 15 93 46 73 100 100 91 100 100 100 100 100 100 100 100 100 100 100 100 100 100 100 100 100 99 100 100 100 100 100 100 100 100 100 100 100 100 100 100 100 64 100
93 91 100 69 84 100 100 100 83 10 5 97 100 100 100 100 95 100 100 100 100 100 100 100 100 100 100 100 100 100 100 100 100 100 100 100 100 100 100 100 100 100 100 99 75 73 32 5 31
100 100 99 96 71 100 100 100 11 84 96 95 100 99 100 100 47 71 100 100 100 100 100 100 100 100 100 100 100 100 100 100 100 100 100 100 100 100 100 100 100 20 79 78 5 8 5 1 0
99 100 100 100 100 64 100 97 98 100 100 73 100 100 98 12 5 23 50 100 100 100 100 100 100 100 100 100 100 100 100 100 100 100 100 100 100 100 100 100 99 28 6 6 5 9 4 4 6
100 100 100 100 100 100 95 100 30 100 100 48 85 96 86 84 19 10 15 29 100 98 100 100 100 100 100 100 100 100 100 100 100 100 100 100 100 100 100 99 12 10 5 24 24 80 100 100 100
100 100 100 100 100 94 86 71 100 100 100 100 100 100 100 100 100 100 100 84 98 100 100 100 100 100 100 100 100 100 100 100 100 100 100 100 100 100 100 100 100 90 91 100 100 100 100 100 100
100 100 100 100 100 100 100 100 100 99 100 100 100 100 100 100 100 100 100 100 100 100 100 100 100 100 100 100 100 100 100 100 100 100 100 100 100 100 100 100 100 100 100 100 100 100 100 74 100
100 100 100 100 100 100 100 100 100 99 100 100 100 100 100 100 100 100 100 100 100 100 100 100 100 100 100 100 100 100 100 100 100 100 100 100 100 100 100 100 100 100 100 100 100 100 100 100 81
100 100 100 100 100 95 100 100 100 100 100 100 100 100 100 100 100 100 100 100 100 96 79 86 100 100 100 100 99 100 100 100 100 100 100 100 100 100 100 100 100 100 100 100 100 100 73 54 5
100 100 100 100 99 100 100 100 100 100 99 100 100 100 100 100 100 100 100 100 100 100 100 100 87 86 100 100 99 100 100 100 100 100 100 100 100 100 100 100 100 100 100 100 100 100 21 2 25
100 100 100 100 100 100 100 100 100 100 100 100 100 100 100 100 100 100 100 77 73 40 45 100 100 64 71 100 100 100 100 100 100 100 100 100 99 76 100 72 94 100 100 84 98 4 0 1 0
100 100 100 100 100 100 100 100 100 100 100 100 100 100 100 100 98 88 87 62 70 81 82 82 99 100 72 15 48 100 100 47 67 62 86 100 94 74 70 85 5 1 0 0 0 4 5 5 5
100 100 100 100 100 100 100 100 100 100 100 100 100 94 99 78 28 26 23 20 68 86 92 100 59 17 31 5 5 58 97 87 49 42 91 100 65 8 5 5 5 4 0 1 5 5 5 5 5
100 100 100 100 100 100 100 100 97 32 92 99 100 100 86 36 6 12 20 75 50 100 99 8 5 20 11 8 5 12 54 77 23 14 37 48 5 5 26 5 4 2 5 5 5 7 4 5 50
100 100 100 100 100 100 87 11 100 93 99 99 47 54 21 4 9 30 45 84 66 5 5 16 34 38 5 5 5 5 23 42 50 67 25 6 11 11 5 5 5 2 5 5 5 2 98 90 100
100 100 100 87 85 98 70 100 100 100 89 24 4 4 5 1 12 2 17 26 4 5 6 14 12 30 4 4 5 13 47 76 98 57 49 64 65 25 5 5 5 5 5 5 5 5 5 5 69
81 84 100 100 100 8 33 2 5 16 5 5 1 0 0 0 0 0 0 0 1 5 4 5 5 15 14 29 54 34 14 77 77 80 84 81 73 68 29 5 4 5 5 5 5 5 27 5 98
93 88 100 100 63 33 11 0 4 5 2 0 0 0 0 0 0 0 0 0 0 0 2 5 16 51 91 61 31 5 5 44 100 23 82 81 87 21 5 5 5 5 5 5 5 5 52 91 45
23 5 0 0 0 5 7 20 0 0 0 0 0 0 0 0 0 0 0 2 4 0 6 6 88 100 74 7 5 22 16 100 84 39 28 85 15 5 5 5 5 5 5 5 5 5 97 6 48
0 2 2 5 5 2 63 1 73 0 0 0 0 0 0 0 1 5 5 1 0 2 35 38 34 50 5 5 6 48 100 100 82 56 90 5 14 5 5 5 5 5 5 5 5 21 70 56 8
8 5 6 4 1 0 0 4 0 0 0 0 0 3 5 5 5 5 5 5 6 44 53 49 9 5 5 5 25 86 100 35 9 77 5 10 5 5 5 5 5 5 5 5 5 81 74 94 100
1 3 5 0 0 0 0 0 0 0 0 0 0 0 5 5 5 9 5 19 41 37 51 21 8 76 24 55 100 100 98 18 6 5 5 5 5 5 5 5 5 5 5 6 33 91 98 95 100

GFSSGP_prec_cloud_042.txt.gz
Cloud_Cover
0 5 5 5 0 0 0 1 96 60 16 76 0 93 22 26 100 71 76 92 78 100 100 80 86 99 57 100 85 68 97 86 32 42 100 100 98 82 71 6 21 5 5 9 5 5 5 3 5
86 5 69 6 3 0 6 45 47 4 57 4 0 0 6 86 90 95 47 100 97 63 66 100 99 100 100 100 86 98 92 100 90 96 100 98 75 49 8 4 4 3 4 2 3 5 5 5 5
100 28 25 34 48 63 86 31 14 63 56 3 0 0 4 35 100 86 20 100 100 84 82 100 100 100 100 100 100 72 97 93 86 96 84 44 64 67 52 5 5 4 3 5 17 45 7 3 5
100 100 100 100 76 71 100 72 5 96 42 5 0 0 2 8 64 53 98 100 100 96 97 100 100 100 100 100 100 88 100 100 100 100 100 100 86 42 92 99 28 89 91 94 46 5 5 36 89
100 98 100 100 100 100 100 8 20 7 17 68 66 1 1 5 34 47 70 91 94 82 100 100 100 100 100 100 99 100 100 100 98 100 100 100 100 100 100 100 100 100 100 99 66 40 61 50 100
100 64 24 77 100 100 96 17 35 73 18 70 96 22 21 0 2 94 96 99 100 100 100 100 100 100 100 100 99 100 100 100 100 99 98 100 100 100 100 100 100 100 100 100 94 100 41 100 100
19 5 7 96 100 96 34 98 3 72 90 76 100 85 22 39 5 16 100 99 84 100 100 100 100 100 100 100 100 100 100 100 100 100 100 100 100 100 100 100 100 69 55 100 86 55 100 100 100
62 14 85 100 100 99 31 56 24 100 100 100 99 38 3 5 34 73 98 99 100 100 100 100 100 100 100 100 100 100 100 100 100 100 100 100 100 100 100 100 100 100 100 77 100 100 100 100 100
77 5 86 100 100 17 82 100 100 100 95 66 98 96 12 6 100 74 99 100 100 100 100 100 100 100 100 100 100 100 100 100 100 100 100 100 100 100 100 100 100 47 80 100 100 100 98 100 92
86 48 100 64 85 72 100 100 100 100 97 5 4 35 65 90 100 80 80 100 100 100 100 100 100 100 100 100 100 100 100 100 100 100 100 100 100 100 100 100 100 100 100 100 100 96 81 12 6
99 94 100 76 34 100 100 100 100 100 93 10 100 99 100 100 49 100 42 100 100 100 100 100 100 100 100 100 100 100 100 100 100 100 100 100 100 100 100 100 100 100 100 78 96 88 48 80 5
86 78 97 100 92 100 100 100 100 99 79 99 100 100 84 41 90 34 5 98 100 100 100 100 100 100 100 100 100 100 100 100 100 100 100 100 100 100 100 100 100 100 100 100 33 17 5 5 4
74 100 88 100 98 100 100 100 100 96 52 100 100 100 99 100 30 92 100 49 100 100 100 100 100 100 100 100 100 100 100 100 100 100 100 100 100 100 100 100 100 100 72 49 63 25 61 99 82
100 85 100 100 100 74 100 100 100 100 70 98 100 100 100 100 100 100 87 40 5 69 100 100 100 100 100 100 100 100 100 100 100 100 100 100 100 100 100 100 100 97 89 100 100 97 34 93 100
100 100 100 100 100 100 100 100 59 53 95 99 100 100 100 100 100 100 67 86 100 87 69 87 100 100 100 100 100 100 100 100 100 100 100 100 100 100 100 100 100 100 100 99 100 97 100 100 100
100 100 100 100 100 100 100 99 100 52 64 100 95 100 100 100 100 100 100 100 100 100 100 100 100 100 100 100 100 100 100 100 100 100 100 100 100 99 100 100 98 80 100 100 100 100 94 100 56
100 100 100 100 100 100 100 75 77 100 99 99 100 100 100 100 100 90 100 100 99 72 100 100 100 100 100 100 100 100 100 100 100 96 100 100 100 97 100 100 100 100 100 100 100 100 100 100 27
100 100 100 100 100 87 100 88 100 100 100 100 100 100 100 98 99 100 100 81 98 100 98 63 85 97 86 95 87 79 89 99 88 81 100 100 100 100 100 100 100 100 100 100 100 100 100 54 10
100 100 100 100 87 93 100 100 100 85 100 100 100 90 100 100 69 94 100 100 100 100 100 100 100 100 100 100 30 5 5 5 5 100 82 93 100 100 100 100 100 100 80 32 0 0 0 0 0
100 100 100 100 100 100 100 100 100 100 100 100 100 100 100 100 100 100 100 99 100 100 84 91 86 82 7 5 16 5 5 3 2 5 7 89 100 100 100 49 6 5 5 3 0 0 0 0 1
100 85 100 78 98 100 100 100 100 100 100 100 100 100 100 100 100 100 100 100 100 80 98 16 27 32 14 57 5 4 1 3 2 5 5 5 27 6 5 5 5 5 5 4 0 0 3 4 3
100 62 90 100 38 100 100 100 100 100 100 100 100 100 100 100 90 9 65 49 96 44 89 10 66 5 14 6 4 3 5 5 5 5 28 5 5 5 5 5 5 5 3 0 0 0 0 0 4
100 100 32 100 100 100 100 86 100 99 99 100 60 5 5 6 50 64 26 98 100 100 5 46 4 39 5 5 0 4 42 100 100 98 60 98 98 76 6 5 5 5 5 5 5 5 5 5 5
100 100 100 100 100 100 100 100 100 97 98 98 100 30 5 5 4 94 97 100 80 100 6 20 0 100 12 2 3 0 5 68 50 15 33 100 99 27 10 5 5 3 2 0 0 0 0 1 1
100 100 100 100 100 100 100 100 95 84 34 29 16 5 3 5 16 25 95 67 55 17 8 100 64 100 7 5 2 0 2 8 7 54 64 93 32 5 26 5 3 4 5 5 0 0 0 5 5
100 100 100 100 100 85 62 48 91 5 4 3 5 8 5 0 0 10 0 40 83 62 18 2 3 38 2 5 30 33 5 5 68 100 100 100 53 5 5 5 5 5 5 5 0 0 0 1 42
100 87 92 52 54 5 5 5 0 5 24 38 45 4 0 0 0 11 9 50 0 0 0 0 0 0 5 84 98 20 5 5 49 74 83 100 95 5 5 5 5 5 5 5 5 5 5 5 33
100 100 58 20 4 3 13 41 100 80 4 0 0 0 0 0 0 0 0 0 0 0 0 0 41 39 59 14 4 5 5 68 100 100 100 92 69 22 11 5 22 48 11 5 5 5 5 7 9
100 58 3 0 41 56 3 88 10 0 0 0 0 0 0 0 0 0 0 0 0 1 37 5 56 100 59 5 5 30 64 100 100 100 100 100 45 15 5 79 100 42 9 6 57 38 5 44 14
47 34 55 7 2 4 0 0 2 0 0 0 0 0 0 0 0 0 0 0 3 89 100 99 100 100 67 5 5 66 99 100 100 100 100 48 18 62 100 100 98 48 48 99 100 78 5 23 79

GFSSGP_prec_cloud_045.txt.gz
Cloud_Cover
100 98 5 2 0 0 2 1 0 0 12 4 53 97 94 100 100 40 97 77 38 73 100 100 96 100 90 100 100 100 62 52 99 100 100 96 83 100 60 50 79 34 20 5 2 0 0 4 4
100 100 46 5 2 1 5 5 2 0 4 7 3 100 94 96 88 84 74 60 67 99 100 100 100 100 100 100 100 97 100 100 100 100 100 100 100 100 100 80 92 91 5 6 10 14 25 67 5
96 100 88 5 59 74 78 14 5 5 0 15 3 88 100 76 33 96 96 55 7 34 92 87 51 100 100 100 100 100 100 100 100 97 100 100 100 100 96 100 100 100 86 67 80 100 100 99 39
100 100 67 72 41 100 100 100 10 5 3 5 35 97 100 33 0 39 75 100 6 57 100 100 100 100 94 100 100 97 100 86 100 100 100 100 100 99 99 100 100 100 100 100 67 100 100 100 7
100 100 100 100 100 100 99 94 6 4 70 36 20 4 2 22 0 0 6 99 100 100 100 100 100 100 100 100 100 100 100 100 100 100 100 100 100 100 100 100 100 100 100 100 100 99 72 87 5
45 100 100 100 100 100 51 88 60 5 20 4 1 4 3 0 68 97 68 99 100 100 100 100 100 100 100 100 100 100 98 100 100 100 100 100 100 100 100 100 100 100 100 100 100 100 27 5 78
100 88 100 100 100 100 100 13 100 100 93 92 66 100 20 4 100 54 87 45 88 100 100 100 100 100 100 100 100 99 99 100 100 100 100 100 100 100 100 100 100 100 100 98 99 37 66 82 100
100 94 100 100 100 100 95 92 76 100 65 63 100 73 69 98 27 96 87 56 100 100 100 100 100 100 100 100 100 100 100 100 100 100 100 100 100 100 100 100 100 100 100 100 100 100 100 100 100
100 100 100 98 75 100 80 92 100 100 99 100 97 88 17 11 47 36 100 93 100 100 100 100 100 100 100 100 100 100 100 100 100 100 100 100 100 100 100 100 100 100 73 90 100 100 100 100 100
100 100 84 10 99 98 87 100 100 100 100 100 66 80 58 48 50 100 100 78 100 100 100 100 100 100 100 100 100 100 100 100 100 100 100 100 100 100 100 100 100 100 100 100 100 100 100 99 98
100 99 88 6 27 23 86 100 100 100 53 61 12 96 100 100 56 86 100 100 100 100 100 100 100 100 100 100 100 100 100 100 100 100 100 100 100 100 100 100 100 100 100 100 100 100 60 80 97
70 98 94 100 6 28 99 100 100 100 100 63 28 97 100 100 100 100 100 100 100 100 100 100 100 100 100 100 100 100 100 100 100 100 100 100 100 100 100 100 100 100 100 100 100 100 100 100 96
95 82 99 100 24 98 100 100 100 100 100 100 97 100 100 100 97 100 100 100 100 100 100 100 100 100 100 100 100 100 100 100 100 100 100 100 100 100 100 100 100 100 100 100 100 100 81 92 100
85 100 87 100 100 100 64 100 100 100 100 100 100 100 100 100 86 100 100 100 92 100 100 100 100 100 100 100 100 100 100 100 100 100 100 100 100 100 100 100 100 100 100 37 100 100 100 100 100
97 98 100 100 82 100 50 100 100 100 100 100 96 100 100 100 81 100 100 100 100 100 100 100 100 100 100 100 100 100 100 100 100 100 100 100 100 100 100 100 100 100 100 100 100 100 100 100 100
100 100 100 96 88 77 100 100 100 100 100 87 73 100 100 100 96 15 100 100 100 98 100 85 100 100 100 100 100 100 100 100 100 100 100 100 100 100 100 100 100 100 97 62 57 100 100 100 100
100 100 100 98 100 100 100 100 100 80 51 9 14 11 64 100 100 100 100 94 95 100 93 100 100 100 100 91 100 100 100 85 100 100 100 100 100 100 100 97 89 56 68 90 92 30 96 99 100
100 100 100 100 100 100 100 96 28 99 100 98 100 100 100 100 100 99 100 100 92 94 100 100 94 95 76 76 82 88 75 97 75 53 48 14 17 8 73 23 5 4 3 12 93 100 90 1 0
100 100 100 43 100 91 100 100 100 100 100 100 100 100 100 100 100 100 100 100 100 100 90 77 63 100 100 100 100 100 100 100 100 100 74 5 5 5 2 4 3 0 0 0 2 2 0 0 0
82 100 99 99 81 99 100 100 100 100 100 100 100 100 100 100 100 91 100 100 94 93 100 100 100 100 100 100 99 7 5 5 5 5 4 2 5 5 5 0 1 2 2 5 5 0 0 0 0
94 96 100 100 31 100 100 100 94 100 100 100 100 100 100 100 100 98 72 100 100 100 100 100 100 100 82 53 5 5 6 2 0 0 1 3 5 2 1 5 46 10 5 5 1 0 0 0 0
93 95 86 100 97 90 99 53 40 59 100 97 99 82 100 100 86 74 99 43 92 95 32 24 88 51 17 5 3 5 0 0 0 0 0 0 1 5 5 5 4 3 2 0 0 0 0 0 1
95 47 90 99 98 97 100 96 14 78 100 100 59 8 6 24 100 98 79 76 74 18 5 5 5 5 1 28 2 5 0 0 0 0 0 5 4 38 52 5 2 0 2 0 4 3 0 0 1
100 92 95 99 97 100 100 97 100 79 90 100 100 87 90 71 38 54 13 5 24 5 4 1 0 0 0 0 5 1 0 0 0 11 91 100 100 72 5 9 19 5 1 3 0 2 4 5 5
100 100 100 100 100 100 100 99 74 98 100 100 100 42 33 5 5 5 5 4 0 2 16 1 0 0 0 18 5 5 0 6 60 65 100 100 73 41 98 100 82 30 5 4 5 5 5 5 3
100 100 100 100 100 84 100 76 52 61 32 31 5 0 0 0 0 0 0 0 0 0 15 0 0 1 95 46 15 5 0 3 6 23 99 100 99 94 96 100 100 100 5 5 5 5 5 13 29
100 49 96 99 100 100 100 85 5 5 20 5 1 0 2 4 0 0 0 0 0 0 0 11 100 100 45 7 5 5 5 5 77 96 86 99 88 92 100 100 100 54 5 10 96 92 97 67 5
100 94 51 83 100 100 55 3 5 3 99 100 2 3 2 0 0 0 0 0 0 0 0 47 100 100 16 3 5 6 24 29 88 60 86 100 100 100 89 100 70 16 22 74 56 40 12 25 93
99 100 92 99 100 99 5 14 5 38 80 2 0 0 0 0 0 0 0 0 0 0 0 0 14 1 2 17 5 24 62 92 100 100 93 100 97 100 100 85 6 75 100 98 99 85 75 100 100
16 68 71 84 68 94 4 0 4 88 5 0 0 0 0 0 0 0 0 0 0 0 0 0 0 72 100 100 100 100 100 100 100 100 100 100 100 96 68 78 69 100 91 91 100 100 95 100 100

GFSSGP_prec_cloud_048.txt.gz
Cloud_Cover
0 54 100 93 24 4 2 1 0 0 0 2 0 5 100 63 42 22 52 28 50 97 67 96 75 100 100 99 100 100 100 100 86 100 93 100 100 98 100 85 97 67 86 94 86 61 5 5 3
0 5 51 100 92 5 27 36 5 1 0 3 5 9 69 90 99 100 47 90 66 98 89 69 22 32 92 100 98 100 100 94 100 100 82 100 100 100 97 100 100 100 100 99 88 88 81 56 4
81 59 100 100 100 94 98 100 66 5 3 0 0 0 7 74 100 93 45 47 100 100 98 58 83 86 100 100 100 100 100 100 100 100 79 100 100 98 100 100 100 100 100 36 100 75 98 38 8
91 100 100 100 100 100 100 11 5 39 5 4 5 0 7 79 100 100 86 100 100 100 100 100 100 100 96 100 100 100 100 100 100 100 100 100 100 100 100 100 100 100 100 100 65 98 98 24 29
100 89 98 100 100 97 12 87 22 91 27 3 5 3 15 99 93 93 100 100 100 100 100 100 100 100 100 100 100 100 100 100 100 100 100 100 100 100 100 100 100 100 100 100 100 100 81 22 92
94 100 100 100 100 11 41 12 88 11 94 93 4 23 72 100 96 100 100 100 100 100 100 100 100 100 100 100 100 100 100 100 100 100 100 100 100 100 100 100 100 100 100 97 64 75 100 100 100
98 100 100 100 100 54 5 21 100 97 100 100 100 92 84 100 100 100 100 100 100 100 100 100 100 100 100 100 100 100 100 100 100 100 100 100 100 100 100 99 100 100 100 98 100 79 99 86 100
75 100 100 100 100 100 100 72 85 51 100 100 100 100 100 100 100 100 92 49 100 100 100 100 100 100 100 100 100 100 100 100 100 100 100 100 100 100 100 100 100 100 100 97 100 100 100 100 100
100 100 100 100 82 94 10 16 97 100 100 100 95 67 44 100 100 100 100 99 86 100 100 100 100 100 100 100 100 100 100 100 100 100 100 100 100 100 100 100 100 100 100 100 100 100 100 100 100
100 100 100 71 45 20 8 4 18 100 100 89 100 100 100 100 100 100 92 98 90 96 100 100 100 100 100 100 100 100 100 100 100 100 100 100 100 100 100 100 100 97 100 100 100 100 100 100 100
100 100 100 100 96 55 1 1 0 100 100 97 100 100 100 100 98 100 100 100 100 100 100 100 100 100 100 100 100 100 100 100 100 100 100 100 100 100 100 100 100 100 100 100 100 100 100 100 100
100 100 100 100 23 5 2 65 87 100 100 57 79 100 100 100 100 100 100 100 100 100 100 100 100 100 100 100 100 100 100 100 100 100 100 100 100 100 100 100 100 100 100 100 100 100 100 100 100
100 100 100 100 44 3 66 66 100 100 99 15 9 87 100 100 100 100 100 100 100 100 100 100 100 100 100 100 100 100 100 100 100 100 100 100 100 100 100 100 100 100 100 100 100 100 100 100 92
100 100 99 66 89 96 100 100 100 100 92 86 52 85 100 100 100 100 100 100 100 100 100 100 100 100 100 100 100 100 100 100 100 100 100 100 100 100 100 100 100 100 100 100 100 100 100 100 94
100 100 100 100 100 100 68 100 100 100 100 100 100 100 100 100 100 100 100 100 100 100 100 100 100 100 100 100 100 100 100 100 100 100 100 100 100 100 100 100 100 100 100 99 69 63 9 56 25
91 100 100 99 100 100 100 98 100 100 100 95 100 100 100 100 100 100 100 100 100 100 100 100 100 100 100 100 100 100 100 100 100 100 100 100 100 100 100 100 97 100 96 26 5 38 7 5 5
100 100 100 100 100 97 85 96 100 100 100 100 84 85 87 100 100 100 86 100 99 100 100 100 100 100 100 100 100 100 100 100 100 100 100 100 100 100 100 100 100 59 93 100 87 25 4 0 0
100 100 100 100 100 95 100 100 100 100 100 100 100 94 100 100 100 100 99 100 100 100 100 100 100 100 100 100 100 100 100 100 100 100 96 97 96 94 98 100 100 83 94 80 15 0 0 0 0
100 100 100 86 86 100 42 100 97 100 100 100 100 100 100 100 100 100 100 100 100 91 15 94 98 69 100 100 100 53 43 22 57 96 100 100 100 89 19 18 16 5 2 2 5 0 0 0 0
100 92 95 100 100 99 79 100 100 100 100 100 100 100 100 44 100 100 100 45 90 100 100 100 70 98 100 91 94 85 100 100 100 95 86 24 69 5 17 1 0 0 4 5 0 0 0 0 0
100 65 66 100 100 100 34 87 100 99 85 68 87 100 96 100 100 100 100 100 87 77 89 62 61 100 100 100 100 100 100 100 79 47 5 4 2 5 5 1 2 5 39 4 0 5 5 3 0
100 100 100 53 96 100 96 99 100 63 100 100 100 100 100 54 50 100 100 100 100 99 98 100 100 100 100 100 100 87 63 15 7 1 0 0 2 5 1 0 0 5 24 49 24 43 58 1 2
97 99 100 100 100 100 100 94 100 100 100 84 99 100 98 100 100 95 100 100 100 96 88 84 61 87 98 5 8 7 5 6 5 0 0 5 5 2 0 1 5 5 8 5 34 100 100 75 0
20 95 89 100 100 100 99 17 78 72 93 100 82 58 93 100 100 46 18 83 93 55 40 22 26 38 31 4 0 2 18 17 4 0 3 5 4 34 18 97 87 21 37 99 97 56 5 3 2
75 12 23 59 71 62 11 90 95 31 53 100 46 86 74 100 100 76 5 5 38 58 29 7 19 1 0 0 1 4 6 5 4 1 5 15 12 93 100 100 100 100 65 44 50 5 5 5 5
42 67 8 77 16 53 5 10 32 83 62 16 33 19 22 5 38 5 5 4 1 22 18 7 5 3 0 0 2 3 1 5 5 5 62 98 100 100 100 33 98 100 94 90 61 58 5 5 5
100 99 71 75 20 6 13 10 8 80 40 5 5 5 4 5 4 5 5 5 0 1 1 9 5 1 0 0 0 5 56 76 53 74 100 100 100 100 100 100 100 100 100 92 83 55 9 100 10
82 50 59 74 67 51 67 80 82 8 5 3 49 2 0 0 0 4 0 0 0 6 23 9 2 0 1 15 100 100 100 100 100 100 100 100 100 90 100 100 99 68 92 99 84 60 17 71 55
80 62 89 99 25 80 4 30 96 6 5 13 2 4 5 5 0 0 0 0 0 0 0 0 0 0 36 100 100 100 100 99 100 100 100 100 100 100 100 97 14 76 35 99 100 45 9 79 64
100 65 7 10 79 91 60 6 12 0 5 5 5 5 4 0 0 0 0 0 0 0 0 0 0 0 5 97 94 62 100 100 100 100 100 100 100 100 100 97 41 76 64 100 100 80 90 100 100

GFSSGP_prec_cloud_051.txt.gz
Cloud_Cover
0 0 0 0 0 1 1 7 25 23 5 100 100 95 89 96 7 6 17 5 7 60 100 42 14 5 70 100 100 100 95 74 55 98 62 87 39 78 32 69 56 22 6 5 5 5 5 5 8
0 0 0 98 1 5 95 100 100 91 73 16 42 88 23 64 17 100 93 30 10 95 100 69 20 9 16 83 60 99 100 100 99 100 95 83 80 98 100 90 99 96 79 52 13 5 5 8 46
0 0 6 100 100 100 100 84 100 5 3 0 4 5 7 86 90 76 85 78 97 100 100 39 2 8 52 67 88 100 100 100 100 100 100 100 99 100 100 100 63 77 54 80 74 5 12 42 27
0 0 100 100 100 100 99 6 34 100 6 0 1 3 42 100 98 70 67 75 100 92 91 99 39 66 100 100 100 100 75 100 100 100 100 100 100 100 100 100 98 99 14 90 24 86 61 99 100
0 3 52 59 100 100 100 64 98 96 17 52 90 93 53 100 97 100 96 100 100 100 100 100 100 100 100 100 100 100 97 100 100 100 100 100 100 100 100 100 100 100 96 42 99 92 31 44 6
3 5 40 100 97 100 45 57 76 97 3 78 68 67 100 100 100 88 88 100 100 100 100 100 100 100 100 100 100 100 100 100 100 100 100 100 100 100 100 100 98 100 100 100 84 52 61 6 2
5 12 100 100 100 100 100 87 6 5 20 100 100 100 100 100 100 100 100 100 100 100 100 100 100 100 100 100 100 100 100 100 100 100 100 100 100 100 100 100 100 79 100 98 92 100 100 87 100
26 74 97 100 100 100 100 100 100 16 100 97 100 97 64 100 100 100 100 100 94 100 100 100 100 100 100 100 100 100 100 100 100 100 100 100 100 100 100 100 59 25 99 100 98 30 42 6 18
61 42 80 100 99 95 100 100 50 100 100 100 100 100 100 100 100 100 100 91 100 100 100 100 100 100 100 100 100 100 100 100 100 100 100 100 100 100 100 100 100 100 100 100 100 100 100 100 62
99 74 100 100 99 100 100 100 100 100 100 100 100 100 100 100 100 100 100 92 46 100 100 100 100 100 100 100 100 100 100 100 100 100 100 100 100 98 100 100 100 100 100 99 96 19 72 100 39
70 42 74 100 92 100 100 100 60 100 100 100 100 100 100 100 92 87 100 94 85 95 100 100 100 100 100 100 100 100 100 100 100 100 100 100 100 100 100 100 100 100 100 100 100 100 92 100 98
97 45 44 6 84 100 96 100 100 100 100 100 100 100 100 100 100 100 100 99 68 94 100 100 100 100 100 100 100 100 100 100 100 100 100 100 100 100 100 100 100 100 100 100 100 100 100 100 100
100 72 100 100 100 100 100 100 100 68 100 100 100 99 100 100 100 100 100 97 100 100 100 100 100 100 100 100 100 100 100 100 100 100 100 100 100 100 100 100 100 93 100 100 100 100 44 100 100
22 12 100 96 98 100 100 68 96 35 100 100 100 100 100 100 100 100 100 73 95 99 100 100 98 100 100 100 100 100 100 100 100 100 100 100 100 100 100 100 100 100 100 100 100 97 100 74 62
16 99 100 100 100 100 16 14 86 98 100 100 100 100 100 100 100 100 100 100 73 100 100 100 100 100 100 100 100 100 100 100 100 100 100 100 100 100 100 95 100 100 100 100 99 98 100 100 83
100 84 99 100 100 100 100 68 82 100 100 100 100 85 100 100 100 100 100 100 100 100 100 100 100 100 99 100 100 100 90 98 100 100 100 100 100 100 100 100 100 100 100 100 100 99 100 100 100
96 86 92 53 100 100 100 100 100 100 100 96 100 100 100 100 100 100 100 100 100 81 73 84 94 92 49 83 92 100 100 100 100 100 100 100 100 100 100 100 100 100 100 76 79 96 100 76 6
95 100 100 100 100 100 100 100 100 100 100 100 100 100 100 100 100 100 100 100 100 100 98 94 100 100 100 100 100 100 100 100 100 100 100 100 100 100 100 87 97 96 96 97 50 63 70 3 0
86 100 100 100 100 95 98 94 100 100 100 100 100 100 100 100 100 100 92 100 100 100 100 100 100 95 100 100 100 100 100 100 100 100 100 100 100 100 100 99 100 65 16 64 76 3 0 2 0
88 100 96 97 100 96 100 100 100 100 100 100 100 100 98 98 96 100 100 66 100 100 100 100 100 100 100 100 100 100 97 99 100 100 100 100 100 85 100 95 98 69 47 2 0 0 5 5 16
90 94 100 100 100 100 100 100 100 100 100 100 100 100 100 81 93 100 100 100 100 100 100 37 35 83 100 100 90 64 92 66 88 100 100 72 52 72 34 9 3 0 3 0 5 5 3 5 90
98 10 48 94 100 100 100 100 100 97 97 85 100 100 100 100 100 100 100 11 100 100 100 100 100 93 87 100 100 100 100 78 46 78 73 29 21 8 0 5 5 5 23 29 5 79 52 5 10
99 47 11 80 100 100 95 93 100 100 100 100 98 100 98 74 94 85 69 15 17 66 71 67 92 49 50 14 56 69 11 5 69 94 89 4 0 1 5 5 11 60 7 27 29 24 90 96 13
48 61 73 100 98 68 100 93 99 100 100 87 94 100 97 95 94 94 76 41 5 7 19 32 37 14 68 53 25 39 5 5 78 87 5 2 2 5 91 99 23 94 98 100 58 56 20 70 82
100 82 67 100 99 5 79 9 10 30 56 75 98 96 24 5 32 5 14 5 9 96 58 56 96 57 100 100 100 47 11 4 71 34 5 5 5 63 95 36 73 100 100 100 98 95 85 77 26
97 94 96 46 6 6 30 93 68 28 5 5 38 56 100 44 10 25 20 0 12 77 52 100 89 92 99 100 100 81 5 9 90 25 5 98 72 98 44 100 100 87 100 100 88 100 23 5 6
16 69 80 11 7 24 36 59 5 5 5 5 21 76 77 39 11 5 5 5 18 44 32 100 74 100 100 82 5 5 2 3 4 79 81 75 51 100 97 100 100 100 100 100 100 100 67 57 82
5 6 28 33 18 16 58 31 10 6 38 5 5 5 68 65 82 62 22 4 8 14 42 78 76 77 30 4 5 1 0 14 71 100 100 90 100 34 100 100 100 100 100 100 96 100 6 92 90
66 32 63 49 24 5 45 98 40 5 5 5 2 5 4 5 4 2 0 0 0 12 33 45 53 5 4 5 1 5 36 20 100 78 55 98 36 100 100 100 100 100 100 100 100 100 87 70 66
75 83 86 86 79 43 5 5 21 5 66 76 41 4 4 0 0 0 0 0 0 5 1 1 0 0 0 5 18 5 51 5 40 100 98 79 100 95 100 100 100 100 100 91 100 100 100 100 65

GFSSGP_prec_cloud_054.txt.gz
Cloud_Cover
0 0 0 0 0 1 64 8 5 100 100 100 59 98 75 94 37 87 77 64 50 100 56 28 4 11 9 5 5 32 99 34 100 67 90 96 75 13 5 5 5 5 5 5 5 5 0 2 4
0 0 0 0 0 34 100 84 5 0 68 100 100 100 73 87 100 99 100 86 100 99 65 30 0 8 2 5 5 5 100 44 98 88 100 100 65 24 90 44 10 82 8 6 5 4 3 2 55
0 0 0 0 30 92 100 100 2 0 0 9 40 12 33 100 100 100 100 98 99 95 100 52 5 36 6 5 5 65 100 100 94 100 100 65 87 100 77 86 88 100 64 14 52 5 5 5 10
0 0 0 0 56 100 76 100 29 6 0 23 0 0 51 100 82 100 100 96 31 79 100 83 55 87 99 98 17 100 100 100 100 71 100 100 99 99 97 100 100 100 94 97 7 62 5 30 99
0 0 2 0 42 95 49 96 100 100 9 46 0 26 52 100 100 100 95 100 81 100 100 100 100 100 100 100 100 100 100 68 92 100 100 100 100 95 99 100 98 54 70 33 100 96 100 100 100
0 0 5 3 42 90 100 100 85 100 25 18 5 1 93 100 100 100 100 98 100 100 100 100 100 100 100 100 100 100 100 100 100 100 100 100 100 100 100 100 88 90 54 56 100 90 100 100 77
0 5 6 10 100 100 100 100 100 100 80 40 4 86 100 99 100 100 100 96 83 96 67 100 100 100 100 100 100 100 100 100 100 100 100 100 100 100 100 100 94 94 100 64 33 20 100 32 5
0 28 6 100 98 83 100 100 100 100 100 100 94 100 100 100 100 100 100 95 100 99 69 100 100 100 100 100 100 100 100 100 100 100 100 100 100 100 100 100 99 88 56 31 91 52 92 24 96
0 52 100 87 99 100 100 100 100 99 100 100 100 100 100 100 100 100 100 100 100 100 100 100 100 100 100 100 100 100 100 100 100 100 100 100 100 97 100 94 42 99 91 99 99 100 86 33 58
4 84 97 41 100 100 100 99 100 100 100 100 100 100 100 100 100 98 100 100 100 100 100 100 100 100 100 100 100 100 100 100 100 100 100 99 100 100 100 100 100 100 100 100 100 100 100 100 100
7 74 96 96 100 100 100 100 100 100 100 100 100 100 100 100 98 100 100 91 91 100 100 100 100 100 100 100 100 100 100 100 100 100 100 100 100 99 100 100 100 100 100 100 100 100 89 100 100
12 74 100 100 100 100 100 100 100 100 100 100 100 100 100 100 100 100 100 76 99 100 100 100 100 100 100 100 100 100 100 100 100 100 100 100 100 100 100 100 100 100 100 100 100 94 86 99 100
11 95 99 100 100 100 100 100 98 100 100 100 100 100 100 100 100 100 100 100 96 100 100 100 100 100 100 100 100 100 100 100 100 100 100 100 100 100 100 100 100 100 100 94 100 100 100 100 68
18 68 100 100 100 97 100 100 100 72 100 100 100 100 100 100 100 100 100 100 100 87 100 100 100 100 100 100 100 100 100 100 100 100 100 100 100 100 100 100 100 100 100 100 93 34 5 34 66
91 18 60 100 100 100 100 100 34 27 100 100 100 100 100 100 100 100 100 100 100 87 98 84 100 100 100 100 100 100 100 100 100 100 100 100 100 100 100 99 100 100 100 99 52 68 99 100 66
96 86 100 100 68 88 68 36 10 100 100 100 100 100 100 100 100 100 100 100 100 100 80 82 94 71 98 100 100 100 100 100 100 100 100 100 100 100 100 100 100 92 39 56 99 100 100 46 44
100 98 100 100 42 84 6 14 100 85 100 100 100 100 100 100 100 100 100 61 3 28 78 99 57 5 51 100 100 100 100 100 100 100 100 100 100 100 100 80 58 69 77 100 100 100 32 45 80
62 100 100 100 100 94 99 100 100 100 100 100 100 92 100 100 100 100 90 61 5 15 23 18 45 59 81 98 100 100 100 100 100 100 100 99 92 77 100 100 100 100 100 100 83 43 44 98 93
6 100 93 84 100 43 100 99 100 100 100 100 100 81 76 100 100 100 100 100 100 100 100 100 100 70 77 100 100 100 92 100 60 97 100 100 100 100 100 90 79 99 89 100 40 96 75 5 0
6 76 50 100 80 75 100 100 100 100 100 100 100 100 63 77 63 100 100 100 100 100 100 100 100 100 69 39 75 73 100 100 100 100 100 100 100 100 98 100 83 14 18 46 30 6 2 1 0
99 86 40 57 94 100 100 99 100 100 100 100 100 100 85 32 100 100 100 100 100 100 100 24 64 85 61 58 72 53 97 100 100 99 87 92 100 87 76 85 56 13 7 5 5 5 5 5 4
90 36 72 56 82 86 92 100 82 100 100 100 92 86 98 100 100 100 100 100 100 100 64 73 100 100 100 100 100 93 68 66 94 94 100 95 100 87 71 60 8 4 5 5 5 5 5 45 51
31 74 97 50 76 100 92 22 33 63 37 99 100 100 100 100 100 70 51 100 100 100 100 98 80 100 100 100 100 96 99 92 57 98 95 94 84 69 4 0 5 5 77 98 10 56 88 6 80
71 47 99 100 99 100 67 78 8 34 62 100 100 99 100 99 99 100 97 87 100 97 100 75 74 100 100 99 100 100 100 100 98 40 71 67 97 38 5 5 88 70 75 76 90 74 100 89 99
5 7 100 76 100 100 100 100 100 27 83 58 100 100 100 100 94 95 98 45 9 5 26 9 27 44 71 100 100 100 100 100 100 48 87 100 98 8 32 98 47 47 56 87 100 84 99 100 100
6 5 5 43 42 93 99 100 100 29 73 9 14 95 100 100 24 23 10 5 5 5 12 71 28 6 46 100 100 100 100 100 100 100 58 82 81 84 72 84 96 100 100 100 100 100 100 100 100
0 5 41 5 40 87 100 100 100 100 100 72 88 36 67 98 100 69 5 5 5 5 6 5 12 5 38 100 100 100 100 100 100 26 5 5 86 99 97 68 64 99 100 100 100 100 100 100 100
5 5 5 42 41 90 100 100 100 95 100 100 100 100 48 36 36 12 5 4 5 5 5 5 9 16 64 100 100 100 100 92 62 64 69 91 99 100 67 51 100 100 99 100 100 100 100 100 14
5 5 5 69 41 100 99 99 100 80 82 100 100 100 60 12 6 5 5 4 2 1 26 19 64 60 56 65 73 100 58 19 100 100 100 100 100 100 92 97 100 100 100 100 100 100 87 75 55
5 4 6 32 30 100 98 45 38 81 67 49 52 37 6 17 22 0 0 2 27 22 46 65 100 100 67 98 100 100 100 100 100 100 100 100 100 100 100 100 100 100 100 100 100 98 14 58 86

GFSSGP_prec_cloud_057.txt.gz
Cloud_Cover
0 0 0 0 0 0 0 0 0 0 0 28 100 51 7 27 25 25 40 100 96 68 57 3 4 5 2 4 5 5 5 80 38 92 88 66 5 82 8 5 5 5 5 4 11 5 5 0 2
0 0 0 0 0 0 0 0 0 4 0 96 100 78 71 98 87 94 82 98 87 58 91 40 39 4 15 40 37 3 5 48 55 38 81 75 59 86 45 5 30 57 5 26 5 5 3 0 0
0 0 0 0 0 0 0 6 63 92 46 100 95 98 96 100 100 94 99 100 100 100 99 41 88 93 100 38 5 45 33 90 99 80 84 95 74 91 99 56 49 66 96 100 96 7 4 2 2
0 0 0 0 0 0 5 26 100 13 0 1 100 100 100 100 100 100 100 65 100 85 86 77 36 98 71 96 100 70 100 98 99 9 61 48 95 95 97 100 100 87 91 97 51 23 20 5 37
0 0 0 0 5 68 100 95 100 34 30 86 100 100 100 100 100 100 84 83 100 100 100 100 100 94 100 100 100 100 97 99 94 80 100 82 97 97 100 99 90 8 80 78 29 7 85 100 52
0 0 0 4 75 100 63 100 97 86 99 44 100 100 81 92 100 100 100 79 100 100 100 100 100 100 100 100 100 100 100 100 100 100 100 100 100 100 100 88 95 67 50 62 58 98 80 99 36
0 0 0 66 100 93 100 100 100 100 100 82 4 16 97 100 100 100 100 100 100 100 90 100 100 100 100 100 100 100 100 100 100 100 100 100 98 87 97 88 100 58 28 45 30 8 4 12 43
0 0 39 100 99 81 100 100 100 100 100 72 100 91 90 100 100 100 100 83 79 100 100 100 100 100 100 100 100 100 100 100 100 100 100 100 97 31 9 12 98 95 100 96 5 19 53 5 8
0 0 94 95 84 76 100 100 100 100 100 100 100 100 100 100 100 100 100 100 95 100 100 100 100 100 100 100 100 100 100 100 100 100 100 100 100 99 100 50 79 98 23 6 19 13 30 30 18
0 2 23 94 39 96 99 100 100 100 84 100 100 100 100 100 100 100 100 100 100 100 98 100 100 100 100 100 100 100 100 100 100 100 100 100 100 100 100 100 95 100 48 8 20 58 79 84 50
0 10 30 98 99 50 100 100 100 100 52 100 100 100 100 100 100 100 100 100 100 100 100 92 100 100 100 100 100 100 100 100 100 100 100 100 100 100 100 100 99 90 98 89 37 14 90 98 97
0 0 100 83 94 100 100 100 100 100 100 100 100 100 100 100 100 100 100 100 100 91 90 100 100 100 100 100 100 100 100 100 100 100 100 100 100 100 100 100 100 100 100 99 100 100 100 100 100
0 4 40 89 95 58 98 100 100 100 99 100 100 100 100 100 100 94 100 100 100 100 100 100 100 100 100 100 100 100 100 100 100 100 100 100 100 100 100 100 93 100 88 79 100 87 100 93 73
0 8 97 100 100 100 100 91 89 100 100 100 100 100 100 100 100 95 97 100 100 97 100 100 100 100 100 100 100 100 100 100 100 100 100 100 100 100 100 100 100 100 100 100 100 100 100 94 80
4 15 100 99 69 94 92 59 42 78 100 100 100 100 71 100 100 100 100 100 100 99 100 100 100 100 100 100 100 100 100 100 100 100 100 100 100 100 100 100 100 100 100 100 100 100 100 100 88
8 28 38 91 100 92 97 94 100 96 100 100 100 99 100 100 100 100 100 100 100 100 99 100 100 100 100 100 100 100 100 100 100 100 100 100 100 100 100 100 100 100 100 100 100 100 85 16 9
5 52 35 96 100 100 96 87 100 100 57 89 100 97 92 100 100 100 100 100 93 99 50 40 100 100 100 100 100 100 100 100 100 100 100 100 100 100 100 100 100 100 100 100 86 62 70 23 5
3 5 26 83 83 100 81 96 100 98 100 100 100 100 100 100 100 100 100 58 13 0 0 4 25 8 94 100 100 100 100 100 100 100 100 100 100 100 100 100 100 99 100 100 7 30 7 5 35
5 2 90 96 100 97 99 92 100 100 100 100 100 100 100 32 100 100 100 100 100 1 5 5 73 99 100 100 100 100 100 100 96 96 100 100 100 100 100 100 100 34 67 66 42 6 6 62 30
4 12 84 100 85 96 62 100 100 100 100 100 100 100 100 45 64 94 100 38 10 9 97 48 51 14 30 30 19 13 23 83 84 95 89 98 95 77 71 100 99 15 35 49 28 48 56 9 5
5 58 66 18 69 90 94 100 100 100 100 100 61 64 86 100 94 97 100 100 100 100 100 100 99 11 5 16 26 51 34 19 41 55 100 47 62 50 100 99 79 40 39 21 18 19 8 5 10
5 6 28 6 77 92 100 100 100 100 100 99 100 97 82 96 95 74 61 100 100 100 100 100 100 95 76 83 100 100 100 100 100 70 91 86 87 100 100 100 74 14 6 5 24 80 77 80 49
0 5 5 25 81 100 100 100 100 100 100 98 82 98 99 100 100 100 100 100 100 100 100 100 98 67 70 59 31 93 100 100 100 100 100 100 98 76 99 53 49 5 6 81 12 64 100 100 100
0 5 6 57 100 98 100 100 87 65 98 100 99 100 100 96 100 77 79 96 100 95 56 86 98 96 100 100 85 86 100 98 100 97 100 100 90 68 95 6 10 5 5 34 86 92 100 100 100
5 5 6 38 99 95 86 100 95 99 100 100 100 96 100 100 61 90 99 96 100 100 100 92 66 26 29 38 64 99 100 100 100 100 100 100 100 99 83 42 87 96 84 91 85 88 100 100 100
0 4 5 5 100 100 88 100 98 100 98 99 100 100 100 100 96 47 48 97 43 59 12 9 24 90 100 58 95 100 100 100 100 100 100 100 100 95 9 100 97 95 98 46 98 100 100 100 100
0 5 5 5 75 100 100 100 13 65 96 99 100 100 100 100 76 54 75 37 5 29 17 5 5 36 32 57 77 98 100 100 100 100 100 100 96 85 100 100 100 100 75 100 92 98 100 100 100
1 0 4 5 7 92 100 100 100 74 41 78 100 100 100 100 100 88 49 5 5 5 5 5 5 5 14 55 83 99 100 100 100 100 100 100 13 80 97 100 98 96 100 100 100 100 100 100 100
5 5 2 45 52 82 100 100 100 96 96 96 63 89 100 100 100 100 58 5 2 67 70 3 0 0 16 63 76 97 100 100 100 100 100 96 99 100 100 100 100 100 100 100 100 100 100 100 99
5 5 0 5 68 100 100 100 100 100 100 100 100 100 100 100 100 96 27 5 5 42 8 1 7 19 44 96 100 100 100 100 100 100 100 100 100 100 100 100 100 100 100 100 100 100 99 100 100

GFSSGP_prec_cloud_060.txt.gz
Cloud_Cover
0 0 0 0 0 0 0 4 0 0 0 0 100 100 100 100 68 32 85 56 98 66 94 74 21 100 100 100 14 5 5 0 2 5 5 5 5 5 28 5 2 5 27 88 2 0 1 3 5
0 0 0 0 0 1 15 8 0 0 0 0 56 95 85 100 42 46 52 26 36 66 86 100 99 65 40 5 77 86 5 5 5 5 5 5 5 5 39 5 5 5 4 5 5 10 52 23 6
0 0 0 0 0 2 71 1 0 0 0 0 34 74 100 100 100 42 100 23 77 64 80 100 100 91 54 95 95 97 21 5 5 31 7 18 20 80 67 5 5 10 5 5 5 38 12 9 5
0 0 0 0 4 2 4 4 0 14 19 5 100 100 100 97 100 100 100 39 56 92 75 99 100 100 78 82 16 53 5 57 76 90 42 5 46 91 88 37 66 43 100 55 6 7 40 37 5
0 0 0 0 2 47 72 8 5 78 100 26 7 99 98 100 100 100 100 81 100 100 100 100 100 100 100 100 100 100 100 100 100 100 97 100 87 100 100 98 100 100 57 14 11 6 7 5 24
0 0 0 6 88 100 21 49 99 100 100 89 5 83 100 100 100 100 100 100 100 100 100 100 100 100 100 100 100 100 100 100 100 100 100 100 100 100 100 100 100 100 82 54 64 7 91 33 26
0 0 1 45 100 100 45 77 100 100 100 98 89 100 100 100 100 100 100 100 100 100 100 100 100 100 100 100 100 100 100 100 100 100 100 100 100 100 100 100 100 100 96 99 79 95 100 37 5
0 0 0 76 100 99 8 99 100 100 100 100 100 100 100 100 100 100 100 100 100 100 100 100 100 100 100 100 100 100 100 100 100 100 100 100 100 100 100 100 85 92 70 100 100 100 100 22 0
0 0 19 88 100 99 91 100 99 100 100 100 100 100 100 100 100 100 100 100 100 100 100 100 100 100 100 100 100 100 100 100 100 100 100 100 100 100 100 100 100 99 94 89 95 63 100 100 48
0 0 31 93 91 28 74 100 100 100 100 100 100 100 100 100 100 100 100 100 100 100 100 100 100 100 100 100 100 100 100 100 100 100 100 100 100 100 100 100 100 100 100 100 100 100 100 100 55
0 5 22 74 95 6 92 97 93 100 100 100 90 100 100 100 100 100 100 100 100 100 100 100 100 100 100 100 100 100 100 100 100 100 100 100 100 100 100 98 100 100 100 100 100 100 68 96 96
0 0 77 91 84 5 56 94 100 100 100 100 100 100 100 100 100 100 100 100 100 100 100 100 100 100 100 100 100 100 100 100 100 100 100 100 100 100 100 100 100 100 94 72 95 100 100 100 100
0 0 0 10 89 9 100 81 100 77 79 100 100 100 100 100 100 100 100 100 100 100 100 100 100 100 100 100 100 100 100 100 100 100 100 100 100 100 100 100 100 100 100 100 100 100 100 99 98
0 0 6 100 32 100 95 32 46 91 83 97 100 100 100 100 100 100 100 100 100 100 100 100 100 100 100 100 100 100 100 100 100 100 100 100 100 100 100 100 100 100 95 100 100 100 100 100 80
0 1 6 25 48 98 79 45 5 67 100 100 100 100 100 95 71 83 100 100 62 100 100 72 95 100 100 100 100 100 100 100 100 100 100 100 100 100 100 100 100 100 100 100 100 100 100 99 100
0 0 60 3 7 22 62 100 5 37 96 100 100 100 100 86 49 97 100 100 100 100 89 52 52 100 100 100 100 100 100 100 100 100 100 100 100 100 100 100 100 100 100 100 100 100 95 98 100
0 73 27 15 98 96 68 92 45 100 100 100 100 100 91 76 45 68 100 100 100 100 100 96 100 100 100 100 100 100 100 100 100 100 100 100 100 100 100 100 100 100 100 100 91 78 82 97 73
4 4 66 100 80 100 75 31 100 43 5 5 100 80 100 79 55 77 100 100 97 63 100 99 100 100 100 100 100 100 100 100 100 100 100 100 100 100 100 100 100 100 100 97 98 78 99 99 28
0 0 14 49 97 100 100 74 100 98 7 39 5 5 38 89 100 42 100 100 100 100 99 42 100 100 100 100 100 100 100 100 100 100 100 100 100 100 100 100 100 100 100 100 56 5 30 93 26
0 4 25 93 99 55 97 92 100 100 100 100 51 98 100 93 72 48 99 100 100 29 5 4 47 95 99 100 100 100 100 100 100 100 100 100 100 100 100 100 98 100 99 14 72 24 5 11 6
0 74 42 46 100 86 15 89 100 100 100 95 100 100 100 100 83 9 78 100 100 100 28 56 88 88 100 100 100 100 100 100 100 100 100 100 100 100 100 77 88 100 100 64 12 5 5 5 5
5 9 5 73 51 100 54 100 100 79 100 100 100 10 21 16 100 78 90 96 100 100 100 99 99 64 89 100 79 97 86 100 100 69 89 97 100 100 92 84 100 100 100 66 5 29 8 45 6
6 0 5 60 93 98 97 100 100 99 100 100 100 100 83 65 99 100 100 94 69 91 100 100 89 69 31 7 46 30 5 1 0 54 85 92 100 100 100 100 92 100 100 75 5 5 10 28 100
0 0 5 5 79 100 100 98 100 47 15 91 100 100 100 100 100 100 100 93 91 90 31 16 16 69 88 34 28 9 24 38 59 70 100 100 100 100 100 100 100 100 100 7 50 16 90 100 99
3 2 100 98 96 100 60 85 90 46 52 66 82 87 97 100 100 100 100 100 100 100 100 94 98 94 27 24 18 52 98 96 100 100 100 100 100 100 100 100 100 100 100 80 14 99 100 100 70
5 48 100 99 94 95 100 100 82 40 64 12 7 31 79 49 100 100 100 100 100 100 100 76 10 72 62 52 82 94 88 100 100 100 100 100 100 92 100 100 100 100 100 80 100 100 100 99 99
12 5 5 3 5 9 96 23 7 72 100 50 96 100 100 48 6 11 36 6 45 79 96 94 97 100 96 100 93 92 79 100 100 100 100 100 100 100 100 100 100 92 100 100 100 100 100 100 100
6 15 9 11 17 24 76 57 49 45 52 45 56 91 96 23 80 82 50 58 5 5 5 14 84 74 65 34 79 100 100 100 100 100 100 100 100 100 100 100 99 97 100 100 100 100 100 100 100
5 6 31 29 5 28 87 66 5 14 7 17 81 100 100 96 78 100 100 100 98 6 5 5 3 3 5 2 53 100 100 100 100 100 100 100 100 100 100 100 100 100 100 100 100 100 100 100 100
88 98 44 27 50 5 30 100 34 63 27 60 100 100 100 100 100 100 100 97 11 5 0 0 0 0 0 7 60 100 100 100 100 100 100 100 100 100 100 100 100 100 100 100 100 100 100 100 100

GFSSGP_prec_cloud_063.txt.gz
Cloud_Cover
0 0 0 0 0 0 1 24 100 100 52 1 7 0 59 94 9 96 100 100 92 100 46 3 1 47 38 7 55 49 60 32 87 46 5 5 5 5 5 10 22 2 5 0 0 2 0 0 0
0 0 0 0 0 1 100 100 100 17 91 14 58 0 1 96 28 100 100 100 100 100 99 42 16 41 25 74 34 13 64 26 5 5 5 5 5 5 5 5 5 5 4 2 0 0 1 34 93
0 0 0 2 4 70 100 53 99 79 2 1 82 0 1 1 8 100 100 100 78 99 100 72 46 100 100 100 99 76 68 99 94 38 67 17 5 12 80 38 5 5 5 5 5 4 36 99 90
0 0 0 0 1 100 41 85 92 6 83 0 46 6 0 88 99 88 100 66 88 57 100 100 100 100 100 98 20 50 86 82 99 97 100 93 5 15 99 57 37 70 77 27 97 100 53 15 10
0 0 0 5 83 100 60 57 99 100 48 78 2 28 16 100 100 100 100 98 96 88 100 100 100 100 100 100 100 100 84 100 100 91 84 100 42 85 100 100 100 100 100 100 94 87 46 6 29
0 0 3 99 100 99 25 48 85 88 66 35 55 43 32 91 92 100 100 97 63 89 100 100 100 100 100 100 100 100 100 100 100 100 100 100 96 97 100 100 100 100 100 100 99 100 100 100 36
0 2 17 100 100 32 100 11 5 14 100 100 14 7 59 91 100 100 100 100 100 100 100 100 100 100 100 100 100 100 100 100 100 100 100 100 100 95 99 100 100 100 100 100 100 100 100 99 80
0 0 5 100 100 100 100 93 100 100 66 100 100 48 100 100 100 100 100 100 100 100 100 100 100 100 100 100 100 100 100 100 100 100 100 100 100 100 100 100 100 100 100 100 90 100 97 34 93
0 0 93 100 95 70 100 7 100 100 22 30 100 34 100 100 100 100 100 100 100 100 100 100 100 100 100 100 100 100 100 100 100 100 100 100 100 100 100 100 100 100 100 100 100 98 98 35 78
0 67 100 20 27 29 100 100 95 42 42 67 100 99 100 100 100 100 100 100 100 100 100 100 100 100 100 100 100 100 100 100 100 100 100 100 100 100 100 100 100 100 85 100 100 100 90 85 72
0 4 76 36 85 33 38 99 100 92 100 100 94 98 100 100 100 100 100 100 100 100 100 100 100 100 100 100 100 100 100 100 100 100 100 100 100 100 100 100 100 100 100 96 100 100 100 81 100
0 2 15 100 2 3 3 5 8 96 100 100 86 100 100 100 100 100 100 100 100 100 100 100 100 100 100 100 100 100 100 100 100 100 100 100 100 100 100 100 100 100 100 100 100 100 100 100 100
0 0 47 5 6 30 7 46 56 34 16 94 100 55 100 100 100 100 100 100 100 100 100 100 100 100 100 100 100 100 100 100 100 100 100 100 100 100 100 100 100 100 100 100 100 100 99 100 99
19 0 3 5 87 1 74 94 4 90 69 82 93 100 100 100 100 100 100 94 100 100 100 100 100 100 100 100 100 100 100 100 100 100 100 100 100 100 100 100 100 100 100 100 100 100 100 100 100
0 0 10 54 86 100 32 100 100 98 100 39 19 89 99 100 100 100 100 100 100 100 100 100 100 100 100 100 100 100 100 100 100 100 100 100 100 100 100 100 100 100 100 100 100 100 100 100 100
0 0 62 70 100 5 100 100 100 99 100 100 100 100 79 100 100 100 94 100 100 100 99 100 100 100 100 100 89 96 100 100 100 100 100 100 100 100 100 100 100 100 100 100 100 100 100 100 100
29 65 98 59 49 97 29 100 100 24 100 100 100 100 100 96 100 98 90 82 82 97 100 100 95 100 100 100 99 100 99 100 100 100 100 100 100 100 100 100 100 100 100 100 100 100 100 100 80
100 95 93 82 64 100 78 75 95 100 100 100 100 100 100 92 64 5 21 62 86 83 71 63 96 96 98 98 100 100 100 100 100 100 100 100 100 100 100 100 100 100 100 100 100 100 100 98 95
0 100 100 90 53 79 100 100 100 100 97 37 50 100 76 94 94 17 88 100 100 100 100 100 100 97 100 100 100 100 100 100 100 100 100 100 100 100 100 100 100 100 100 100 100 100 100 100 96
0 100 99 89 18 75 96 70 100 91 90 5 48 6 81 56 74 7 99 100 100 100 94 100 100 31 61 100 100 100 100 98 100 100 100 100 100 100 100 100 100 100 100 100 100 62 100 100 96
2 81 100 80 100 97 96 22 100 63 100 44 15 86 100 82 34 81 92 100 100 99 91 43 96 34 87 93 35 38 100 100 100 100 100 100 100 100 100 100 100 100 100 98 100 100 100 79 74
98 53 18 12 16 100 100 80 100 100 100 37 100 99 100 100 100 29 100 68 100 100 100 100 100 100 96 100 100 98 80 78 45 99 93 100 100 100 100 100 100 100 78 100 98 100 99 18 40
58 61 5 25 97 99 100 73 97 28 36 97 32 93 17 40 98 98 36 7 26 100 100 100 100 79 100 100 100 26 8 5 38 47 56 95 100 100 100 100 100 100 100 98 100 100 100 100 96
10 5 8 43 95 71 100 100 100 100 99 100 100 99 44 100 100 100 100 100 98 40 81 79 38 11 14 9 6 5 55 5 5 5 62 100 100 100 100 99 100 100 100 100 100 100 100 100 100
4 11 100 96 96 19 97 74 100 98 76 35 91 100 60 88 100 100 98 100 100 99 92 62 35 35 56 57 18 18 26 48 46 58 98 100 100 100 100 100 100 100 98 100 100 100 100 91 100
56 75 81 100 96 100 15 32 94 55 5 12 5 8 64 12 100 100 94 75 67 98 100 80 96 100 80 71 23 54 60 32 32 48 100 100 100 100 100 100 100 100 100 100 100 100 100 100 99
99 31 80 100 5 2 15 37 98 18 14 41 100 83 5 79 11 56 96 99 100 99 91 25 30 95 96 94 99 100 100 93 91 68 100 100 100 100 100 100 100 100 100 100 100 100 100 100 100
50 88 39 5 60 60 99 79 100 67 51 48 22 8 5 8 5 5 35 71 51 16 15 21 52 78 90 83 90 86 99 100 100 100 100 100 100 100 100 100 100 100 100 100 100 100 100 100 100
5 55 56 95 82 98 83 90 91 4 5 40 14 5 77 5 54 35 92 98 13 7 66 43 27 84 91 36 89 100 94 97 100 100 100 100 100 100 100 100 100 100 100 100 100 100 100 100 100
100 62 98 100 82 31 38 6 98 6 6 6 5 5 20 25 54 80 6 65 92 50 6 16 55 66 55 94 95 100 98 100 100 100 100 100 100 100 100 100 100 100 100 100 100 100 100 100 100

GFSSGP_prec_cloud_066.txt.gz
Cloud_Cover
0 0 0 0 0 0 0 0 1 10 100 64 10 2 91 59 97 3 100 98 100 100 100 100 100 100 100 100 100 100 86 92 100 100 98 94 90 87 68 11 5 5 4 5 0 0 0 0 0
0 0 0 0 0 0 0 75 22 97 72 4 0 29 100 94 1 6 97 100 100 100 100 100 100 20 12 35 5 32 17 5 6 21 5 5 5 5 5 5 5 5 1 0 0 0 0 2 4
0 0 0 0 2 5 19 68 0 40 0 1 32 34 11 14 0 9 100 100 100 100 100 100 100 100 80 100 98 90 100 53 21 6 5 5 5 5 5 5 5 5 5 2 3 5 5 5 5
0 0 0 0 0 0 48 21 9 0 52 20 2 65 89 65 26 69 100 100 100 100 98 100 100 82 77 95 99 98 100 90 53 9 5 55 38 5 5 5 5 39 5 5 5 5 7 31 5
1 0 0 0 24 86 66 12 0 3 27 100 100 83 100 100 60 62 100 100 100 100 100 100 100 100 100 100 100 100 100 95 47 72 92 100 83 79 5 11 5 5 13 99 9 91 100 10 12
5 0 1 41 100 61 92 0 0 100 100 100 100 100 100 100 100 100 100 100 100 100 100 100 100 100 100 100 100 100 100 86 81 85 100 100 86 71 97 37 42 92 100 100 100 100 89 8 86
5 0 3 2 2 99 68 0 0 73 50 35 100 99 100 100 100 100 100 100 100 100 100 100 100 100 100 100 100 100 100 100 94 100 88 87 60 45 98 99 100 100 100 100 99 100 98 83 11
2 0 0 29 100 92 0 0 0 4 2 7 69 100 100 100 100 100 100 100 100 100 100 100 100 100 100 100 100 100 100 100 100 100 100 100 100 100 100 100 100 100 100 100 100 100 100 97 65
5 0 20 100 98 79 0 4 1 40 81 39 100 100 100 100 100 100 100 100 100 100 100 100 100 100 100 100 100 100 100 100 100 100 100 100 100 100 100 100 100 100 100 100 100 96 13 26 7
0 0 81 100 27 2 0 20 99 100 100 100 100 100 100 100 100 100 100 100 100 100 100 100 100 100 100 100 100 100 100 100 100 100 100 100 100 100 100 100 100 100 100 100 94 22 40 18 62
3 0 61 14 4 3 0 46 97 70 100 100 100 100 100 100 100 100 100 100 100 100 100 100 100 100 100 100 100 100 100 100 100 100 98 100 100 100 100 100 100 100 100 100 100 99 94 100 100
51 4 0 0 15 2 3 7 13 55 77 100 100 100 100 100 100 100 100 100 100 100 100 100 100 100 100 100 100 100 100 100 100 100 91 100 100 100 100 100 100 100 100 100 100 100 100 100 90
8 4 0 21 3 1 19 36 6 100 90 88 54 100 100 99 100 100 100 100 100 100 100 100 100 100 100 100 100 100 100 100 100 100 100 100 100 100 100 100 100 100 100 100 100 100 100 98 100
4 33 1 1 6 0 3 77 100 100 100 100 60 68 55 95 100 100 100 100 100 100 100 100 100 100 100 100 100 100 100 100 100 100 95 100 100 100 100 100 100 100 100 100 100 100 100 100 100
5 22 0 4 53 76 10 88 100 100 100 100 98 7 2 6 92 100 73 100 100 100 100 100 100 100 100 100 100 100 100 100 100 100 100 100 100 100 100 100 100 100 100 100 100 100 100 100 100
52 1 0 89 78 5 25 97 100 100 100 100 74 66 1 19 100 100 100 99 100 100 100 100 100 100 100 100 100 100 100 100 99 99 100 100 100 100 100 100 100 100 100 100 100 100 100 100 100
26 2 37 80 80 35 63 96 100 100 100 100 60 81 99 83 100 100 50 65 100 94 100 100 100 100 100 100 100 100 100 100 100 100 100 100 100 100 100 100 100 100 100 100 100 100 100 100 100
100 100 55 24 64 9 97 85 82 100 100 100 6 38 100 100 100 100 100 56 15 54 100 100 100 100 100 100 100 100 100 100 100 99 100 100 100 100 100 100 100 100 100 100 100 100 100 100 100
15 5 11 100 49 26 77 27 21 25 100 80 40 62 100 100 100 100 76 40 100 100 100 100 100 100 100 100 100 100 100 100 100 100 100 100 100 100 100 100 100 100 100 100 100 100 100 100 100
100 19 3 100 51 4 84 100 100 9 10 81 8 52 100 15 88 79 100 34 12 32 100 96 89 86 82 100 100 100 100 100 100 100 100 100 100 100 100 100 100 100 100 100 100 100 100 100 100
100 8 32 48 78 59 9 100 100 92 100 93 53 5 32 100 55 27 1 9 75 100 98 5 17 83 96 50 81 100 100 100 100 100 100 100 100 100 100 100 100 100 100 100 100 100 100 100 100
100 3 18 99 90 92 58 95 94 100 94 100 14 77 22 70 12 48 5 97 64 79 100 100 55 2 0 82 90 1 14 15 30 6 33 99 100 100 100 100 100 100 100 100 100 100 100 99 100
100 18 46 5 5 24 65 86 100 31 77 56 13 85 38 100 100 100 100 14 99 100 100 49 85 92 90 68 98 93 9 7 9 4 4 16 59 16 84 91 98 100 100 96 97 100 100 100 100
100 32 3 5 5 4 49 83 80 18 72 100 79 63 87 88 100 100 100 95 53 98 100 100 100 100 100 96 5 52 83 14 5 7 17 16 69 87 100 100 100 100 100 100 100 100 100 100 100
100 34 4 42 84 4 99 42 100 84 74 96 92 99 100 100 100 100 86 95 95 60 85 80 100 100 100 100 81 49 45 6 6 20 16 49 97 100 100 100 100 100 100 100 100 100 100 100 100
100 15 5 68 100 66 86 84 98 52 100 26 5 5 43 88 5 68 100 100 53 49 44 27 98 99 85 17 47 97 100 70 6 5 4 5 5 67 100 100 100 100 100 100 100 100 100 100 100
100 89 13 100 92 99 89 84 76 15 5 5 5 20 23 31 5 5 5 85 98 100 100 80 56 7 5 5 40 11 92 7 99 46 7 10 71 8 83 100 100 100 98 100 100 100 100 100 100
100 51 48 82 99 92 8 6 100 54 56 3 6 42 18 72 52 5 5 5 5 5 21 26 5 5 5 5 5 5 5 5 5 10 38 94 100 98 89 100 100 100 100 100 100 100 100 100 100
100 19 6 55 79 43 4 87 99 100 55 4 1 5 10 80 18 38 42 50 7 41 10 5 39 5 5 5 6 5 5 6 85 95 100 94 100 100 100 100 100 100 100 100 100 100 100 100 100
100 25 6 50 45 3 13 86 73 84 84 16 0 0 1 5 5 5 7 21 36 85 95 100 88 3 4 43 100 99 100 97 100 78 76 100 100 100 100 100 100 100 100 100 100 100 100 100 100

GFSSGP_prec_cloud_069.txt.gz
Cloud_Cover
0 0 0 0 0 0 0 0 0 0 42 80 94 68 64 100 95 86 96 95 2 90 100 100 100 100 100 100 100 98 37 8 38 5 41 40 5 8 95 93 89 43 5 4 4 2 0 0 0
0 0 0 0 0 0 0 0 76 92 91 97 6 0 28 100 41 100 96 100 40 100 100 100 100 100 100 100 100 100 100 88 99 9 5 5 5 5 5 5 4 2 2 0 3 0 0 0 0
0 0 0 0 0 0 0 1 44 28 98 48 1 0 9 68 53 58 99 97 100 99 100 100 100 100 100 100 100 100 100 100 100 100 56 5 4 5 5 2 0 4 3 5 2 0 1 0 0
0 0 0 0 0 0 0 4 0 82 1 2 2 17 98 100 100 100 100 97 100 100 100 100 100 100 100 100 100 100 100 93 24 8 50 5 5 5 5 5 5 97 5 5 5 5 5 5 1
0 0 0 0 0 2 66 100 8 2 1 7 2 16 94 100 100 100 86 100 100 100 100 100 100 100 100 100 100 100 100 100 90 28 46 38 8 8 55 3 5 5 5 5 5 5 10 8 45
2 0 4 1 0 11 57 2 0 0 4 98 45 74 96 100 45 100 100 100 100 100 100 100 100 100 100 100 100 100 100 100 100 100 100 100 100 78 5 5 15 78 5 5 21 100 100 100 96
94 2 5 0 0 1 9 5 1 0 62 100 100 79 100 100 100 94 100 100 100 100 100 100 100 100 100 100 100 100 100 100 100 100 100 100 100 82 50 89 98 46 8 89 100 100 100 93 7
6 95 93 0 0 80 93 59 7 1 7 100 100 100 100 100 98 100 100 100 100 100 100 100 100 100 100 100 100 100 100 100 100 100 100 100 100 99 100 100 100 100 100 100 100 100 100 65 57
93 50 5 26 6 94 100 68 5 2 8 84 72 100 100 100 100 100 100 100 100 100 100 100 100 100 100 100 100 100 100 100 100 100 100 100 100 100 97 100 100 100 100 100 100 92 100 79 5
100 100 24 81 52 59 94 54 86 32 99 100 100 100 100 100 100 100 100 100 100 100 100 100 100 100 100 100 100 100 100 100 100 100 100 100 100 93 100 100 100 100 100 100 100 50 11 5 5
100 77 100 6 2 37 4 1 56 75 100 100 100 100 85 100 100 100 100 100 100 100 100 100 100 100 100 100 100 100 100 100 100 100 100 100 100 100 100 100 100 100 94 96 99 66 96 100 100
99 100 74 0 0 0 1 0 5 70 100 100 100 100 100 100 100 100 100 100 100 100 100 100 100 100 100 100 100 100 100 100 100 100 100 100 100 100 100 100 100 100 100 100 100 98 84 98 100
99 98 5 2 0 4 39 26 10 94 100 100 100 100 93 96 58 100 100 100 100 100 100 100 100 100 100 100 100 100 100 100 100 100 100 100 97 90 100 100 100 100 100 100 100 100 100 61 64
100 73 0 2 0 0 47 15 88 100 100 100 100 100 100 99 74 100 100 100 100 100 100 100 100 100 100 100 100 100 100 100 100 100 100 100 96 77 99 100 100 100 100 100 100 100 100 100 100
100 75 0 0 0 2 24 33 60 100 100 100 100 100 100 100 52 41 100 100 100 100 100 100 100 100 100 100 100 100 100 100 100 100 100 100 98 98 94 100 100 100 100 100 100 100 100 100 100
100 9 2 0 3 32 24 73 99 100 100 100 100 95 63 77 28 78 100 100 100 100 100 100 100 100 100 100 100 100 100 100 100 90 100 100 100 100 100 100 100 100 100 100 100 100 100 100 100
9 5 4 83 87 93 53 0 39 99 74 70 70 100 74 99 90 100 88 88 100 100 100 100 100 100 100 100 100 100 100 100 100 100 100 93 100 100 100 100 100 100 100 100 100 100 100 100 100
5 7 96 100 20 28 95 45 5 42 100 97 100 100 99 21 100 92 100 100 100 100 100 100 100 100 100 100 100 100 100 100 100 100 100 100 100 100 96 100 100 100 100 100 100 100 100 100 100
5 11 100 100 51 96 21 31 19 96 97 100 100 100 100 87 93 91 98 81 100 100 100 100 100 100 100 100 100 100 100 100 100 100 100 100 100 100 100 100 100 100 100 100 100 100 100 100 100
23 100 100 99 3 23 4 0 5 24 65 100 78 58 66 100 100 59 43 90 100 69 89 89 100 100 100 100 100 100 100 100 100 100 100 100 100 100 100 100 100 100 100 100 100 100 100 100 100
97 79 100 100 6 5 3 3 5 5 55 44 80 5 1 65 98 98 98 100 100 88 100 100 100 100 100 100 100 100 100 100 100 100 100 100 100 100 100 100 100 100 100 100 100 100 100 100 100
57 100 100 100 11 0 5 13 65 26 7 5 3 63 4 0 8 100 80 77 100 86 42 30 100 100 100 100 100 100 100 100 100 100 100 100 100 100 100 100 100 100 100 100 99 100 68 100 100
79 100 100 100 41 0 1 2 96 5 4 7 19 41 4 4 22 79 100 30 99 48 64 5 81 86 99 100 100 100 100 100 100 100 100 100 100 100 100 98 98 99 100 99 65 66 97 100 100
100 100 100 100 37 0 2 5 90 69 5 32 22 5 12 5 21 74 100 100 100 99 76 100 100 72 55 78 50 25 99 90 45 77 5 3 16 76 9 59 68 14 21 63 34 76 100 100 100
100 100 100 100 48 1 55 74 5 62 44 40 5 5 5 5 4 60 60 56 93 29 100 100 87 100 100 100 100 32 5 7 0 1 5 5 5 67 85 52 94 58 45 100 63 79 98 100 98
100 100 100 100 40 33 100 76 1 3 16 7 5 26 5 5 5 5 5 1 2 5 4 22 98 97 48 5 89 100 33 5 5 5 4 5 5 60 81 7 25 7 39 66 100 100 100 100 100
100 100 100 100 53 100 89 100 11 9 11 5 2 3 5 5 5 56 10 48 12 18 5 5 0 0 1 1 4 5 43 5 5 25 14 98 39 84 100 100 100 100 100 100 99 100 100 100 100
100 100 100 100 69 61 100 99 75 83 60 4 0 0 2 1 18 65 90 91 11 5 5 5 5 5 5 5 10 12 5 46 70 90 73 100 100 100 100 100 100 100 100 92 96 100 100 100 100
100 100 100 100 98 18 100 67 70 52 72 25 1 0 5 0 2 5 5 5 5 5 5 5 4 4 2 67 99 89 78 82 100 100 100 100 100 100 100 100 100 100 95 100 100 100 100 100 100
100 100 100 100 96 87 69 66 5 8 12 38 52 5 0 0 0 0 0 2 7 5 92 100 1 98 100 100 100 100 100 100 100 100 100 100 100 100 100 100 100 100 100 100 100 100 100 100 100

GFSSGP_prec_cloud_072.txt.gz
Cloud_Cover
2 0 0 0 0 0 0 0 0 0 0 0 8 54 14 11 6 23 93 8 100 100 86 16 100 77 98 100 100 100 100 100 100 100 100 42 5 19 10 24 86 73 66 73 7 9 5 3 5
0 0 0 0 0 0 0 0 0 0 0 32 58 13 3 46 33 64 100 100 34 76 99 29 88 100 100 100 100 100 100 100 100 100 100 100 36 11 48 3 5 18 94 97 100 82 35 5 5
0 0 1 0 0 0 0 0 0 0 1 5 20 5 49 72 80 18 75 100 100 78 100 100 98 45 100 100 100 100 100 100 100 100 100 100 98 10 71 80 100 100 100 100 100 47 47 65 5
5 4 2 0 0 0 0 0 0 5 4 3 92 66 1 0 4 66 100 92 22 100 100 100 70 37 92 100 100 100 100 100 100 100 100 100 12 14 95 100 100 100 100 53 9 5 6 4 0
18 4 0 5 2 0 3 0 2 88 29 21 2 26 74 91 100 100 100 96 100 100 100 100 95 100 100 100 100 100 100 100 100 100 100 100 72 94 26 5 55 100 96 99 36 0 1 3 4
53 1 57 57 2 19 7 18 84 99 2 0 1 28 100 97 100 99 100 100 100 100 100 100 100 100 100 100 100 100 100 100 100 100 96 84 88 64 79 99 89 92 84 5 0 2 4 10 100
5 5 4 3 44 58 5 98 59 5 0 0 94 67 100 94 43 67 100 100 100 100 100 100 100 100 100 100 100 100 100 100 100 100 100 100 100 100 100 100 100 100 74 5 5 5 74 100 100
5 1 3 5 71 5 24 100 5 0 0 0 100 100 100 100 100 95 99 100 100 100 100 100 100 100 100 100 100 100 100 100 100 100 100 100 100 100 100 100 100 100 97 100 100 100 98 79 100
2 1 5 37 6 53 22 62 4 0 1 39 100 100 100 100 73 98 100 100 100 100 100 100 100 100 100 100 100 100 100 100 100 100 100 100 100 100 100 100 100 100 100 100 100 100 100 100 99
5 5 5 5 73 80 5 5 0 0 41 97 100 100 100 85 100 95 100 100 100 100 100 100 100 100 100 100 100 100 100 100 100 100 100 100 100 100 100 100 100 100 91 84 100 100 93 5 70
5 6 13 99 78 5 5 3 0 0 14 2 96 100 98 99 52 100 100 100 100 100 100 100 100 100 100 100 100 100 100 100 100 100 100 100 100 100 100 95 100 100 100 99 100 100 77 8 5
85 29 100 100 17 2 4 0 0 0 66 21 100 100 100 67 100 100 100 100 100 100 100 100 100 100 100 100 100 100 100 100 100 100 100 100 100 100 86 100 100 100 100 100 100 94 100 73 74
5 16 93 46 5 1 0 0 0 13 97 56 86 76 97 75 98 100 100 100 100 100 100 100 100 100 100 100 100 100 100 100 100 100 100 100 100 100 84 100 75 100 100 100 100 100 100 100 100
4 10 50 67 1 0 3 0 0 97 77 10 33 99 31 100 73 100 100 100 100 100 100 100 100 100 100 100 100 100 100 100 100 100 100 100 100 100 100 91 92 100 86 98 100 100 100 100 100
81 92 49 26 0 19 48 0 0 73 64 14 100 95 70 35 52 62 100 100 100 100 100 100 100 100 100 100 100 100 100 100 100 100 100 100 100 100 88 92 95 93 98 100 100 97 100 100 100
8 84 20 0 2 41 57 0 5 67 100 100 37 49 91 99 21 15 100 100 100 100 100 100 100 100 100 100 100 100 100 100 100 100 100 100 100 100 100 93 100 97 100 100 100 100 100 100 100
5 44 74 0 0 5 3 1 81 3 100 100 94 10 94 92 15 30 100 100 100 100 100 100 100 100 100 100 100 100 100 100 100 100 100 100 100 100 100 100 100 99 100 100 90 57 90 100 100
5 100 19 5 11 93 20 42 5 4 37 100 100 68 36 96 9 20 100 100 100 100 100 100 100 100 100 100 100 100 100 100 100 100 100 100 100 100 100 100 100 95 99 83 100 100 100 100 100
5 5 5 5 68 100 100 14 0 0 5 5 58 40 88 90 84 31 44 63 100 86 100 100 100 100 100 100 100 100 100 100 100 100 100 100 100 100 100 78 75 100 100 100 100 100 100 100 100
5 6 19 5 44 100 100 20 0 3 1 22 58 62 91 80 58 56 16 32 100 100 100 100 100 100 97 100 100 100 100 100 100 100 90 100 100 100 100 99 46 99 100 100 100 100 100 100 100
35 67 29 5 100 100 80 13 0 0 3 5 6 95 78 4 36 30 42 21 100 100 98 92 99 69 94 100 100 100 100 100 100 100 100 100 100 97 100 100 100 100 100 100 98 97 100 100 100
68 61 58 81 100 100 42 1 0 1 5 4 0 32 20 23 0 0 90 53 100 50 100 100 100 100 100 100 100 100 100 100 100 100 100 100 100 100 100 100 95 100 100 100 73 65 89 100 92
100 74 85 100 83 72 21 2 0 5 0 0 6 100 28 5 5 16 100 100 82 100 100 100 47 99 100 100 100 100 100 100 100 100 100 100 100 100 100 100 100 100 99 98 100 100 100 100 100
100 73 97 59 51 17 12 28 0 5 3 0 0 5 64 5 7 4 38 93 74 76 89 100 100 100 100 100 100 100 100 98 100 100 100 100 100 100 100 100 100 100 100 100 90 28 84 89 97
100 98 95 100 44 100 95 18 3 2 0 0 4 5 66 10 5 6 34 9 91 13 7 6 48 72 100 100 88 100 98 100 91 58 80 96 100 100 100 96 99 75 59 100 100 96 60 87 100
100 92 100 100 92 71 100 45 0 0 0 0 0 0 5 5 15 5 1 1 9 11 8 78 84 85 100 63 67 100 100 55 17 43 95 61 35 83 50 100 100 99 100 100 99 34 88 100 100
100 94 86 16 100 56 100 60 5 0 0 0 0 0 0 0 5 5 1 2 1 5 52 26 6 21 70 64 88 40 5 5 78 8 13 11 15 71 97 100 93 94 100 100 100 65 100 100 100
100 99 11 97 100 12 100 97 5 7 5 0 0 2 3 0 5 4 4 28 28 0 0 3 20 5 1 2 5 24 44 32 6 70 100 100 100 100 100 100 100 100 100 100 67 100 100 100 100
100 100 100 100 100 100 92 100 5 6 5 5 3 0 0 0 0 0 2 53 86 21 4 1 28 20 5 70 99 100 100 100 100 100 100 100 100 100 100 100 100 100 100 100 100 100 100 100 100
100 100 98 99 100 100 100 100 100 75 23 100 6 5 0 0 0 0 0 0 0 0 0 0 5 45 100 100 100 100 100 100 100 100 100 100 100 100 100 100 100 100 100 100 100 100 100 100 100

GFSSGP_prec_cloud_075.txt.gz
Cloud_Cover
0 2 7 8 0 0 4 0 0 0 0 0 0 0 0 6 0 3 3 0 25 100 21 8 5 95 74 5 64 83 100 88 100 99 100 100 100 100 100 100 100 100 100 100 100 100 100 100 100
2 0 1 0 1 4 1 0 0 0 0 0 0 0 0 5 0 69 77 100 96 100 23 3 88 100 100 100 100 58 53 87 100 100 100 100 100 100 100 100 100 68 100 100 100 100 99 100 100
5 0 0 0 1 3 0 0 0 0 0 0 14 5 4 4 24 22 24 10 90 65 86 66 100 100 100 100 100 100 100 100 100 100 100 100 100 100 100 100 100 100 94 89 73 96 100 66 51
0 0 2 5 4 2 0 0 0 0 0 5 4 5 29 0 1 94 7 0 0 50 86 100 100 100 100 100 100 100 100 100 100 100 100 100 100 100 100 100 100 100 100 100 93 100 93 80 72
0 16 5 5 5 3 0 0 0 49 36 1 0 0 0 8 98 17 97 100 87 100 56 100 100 100 100 100 100 100 100 100 100 100 100 100 100 100 100 91 71 0 11 94 85 98 78 8 2
4 9 0 0 5 0 0 1 4 5 43 0 0 0 0 97 100 100 100 100 100 100 100 92 100 100 100 100 100 100 100 100 100 100 100 100 100 98 55 72 5 92 20 62 42 59 35 3 0
0 0 0 0 0 0 0 0 1 5 5 5 0 0 23 100 100 100 100 100 100 100 100 100 96 100 100 100 100 100 100 100 100 100 100 99 82 100 100 93 100 100 80 100 100 100 5 23 19
0 0 0 3 3 0 0 0 5 10 5 2 0 22 100 100 100 100 100 100 100 100 100 100 100 100 100 100 100 100 100 100 100 100 100 100 100 100 100 100 24 28 69 100 100 60 6 5 26
0 0 0 0 0 0 2 0 0 3 1 0 1 54 100 100 100 100 100 100 100 100 100 100 100 100 100 100 100 100 100 100 100 100 100 100 100 100 100 100 100 94 73 48 72 27 25 5 89
0 0 0 0 0 0 0 4 0 0 0 0 72 94 100 100 100 100 100 100 100 100 100 100 100 99 94 100 100 100 100 100 100 100 100 100 100 100 100 100 97 100 71 85 69 87 100 85 83
0 2 0 0 0 0 6 5 0 0 0 0 46 98 100 100 100 100 100 100 100 100 100 100 100 100 100 100 100 100 100 100 100 100 100 100 100 100 100 100 100 100 97 98 100 100 100 100 63
0 5 0 5 0 0 92 0 0 1 0 52 93 99 95 100 100 100 100 100 100 100 100 100 100 100 100 100 100 100 100 100 100 100 100 100 100 100 100 100 100 100 100 69 97 100 100 100 100
0 3 51 19 32 91 12 0 5 0 1 4 77 53 100 100 100 100 97 100 100 100 100 100 100 100 100 100 100 100 100 100 100 100 100 100 100 100 100 100 99 100 84 81 84 98 99 100 94
0 10 98 30 60 1 0 0 5 0 1 0 84 100 100 100 100 100 100 100 100 100 100 100 100 100 100 100 100 100 100 100 100 100 100 100 100 100 100 100 100 100 97 97 100 100 99 100 100
5 6 14 3 5 0 0 1 0 5 0 4 57 100 100 80 100 100 100 100 100 100 100 100 100 100 100 100 100 100 100 100 100 100 100 100 100 100 100 100 100 100 88 83 57 100 100 100 100
5 3 19 4 3 2 0 25 0 15 0 8 100 55 96 100 100 100 100 99 100 100 100 100 100 100 100 100 100 100 100 100 100 100 100 100 100 100 100 100 100 100 100 89 99 100 100 100 100
11 7 5 32 3 3 1 5 2 4 0 2 2 99 100 64 100 100 100 100 100 100 100 100 100 100 100 100 100 100 100 100 100 100 100 100 100 100 100 100 100 100 100 100 100 100 100 100 100
10 5 60 68 4 5 0 5 5 80 0 2 0 3 20 100 91 91 100 71 100 100 100 100 100 100 100 100 100 100 100 100 100 100 100 100 100 100 100 100 100 100 100 100 100 100 100 100 100
5 33 72 78 56 1 4 5 98 81 0 3 0 1 16 83 12 97 100 65 100 100 100 100 100 100 100 100 100 100 100 100 100 100 100 100 100 100 100 100 100 100 100 100 100 100 100 100 98
93 12 62 21 5 5 9 77 91 26 0 2 0 0 3 56 100 96 95 100 100 100 100 100 100 100 100 100 100 100 100 100 100 100 100 100 100 100 100 100 100 100 100 100 100 100 98 100 100
100 95 37 61 5 5 5 7 7 32 0 0 1 0 3 37 100 81 100 100 100 100 100 100 100 100 100 100 100 100 100 100 100 100 100 100 100 100 100 100 100 100 100 100 100 100 100 100 94
7 100 77 5 5 5 6 5 5 44 0 0 3 0 4 6 20 3 38 94 94 100 100 100 100 100 100 100 100 100 100 100 100 100 100 100 100 100 100 100 100 100 100 100 100 100 100 95 80
100 48 81 7 10 16 5 10 6 71 0 0 0 0 0 3 0 1 48 100 96 100 100 100 100 100 100 100 100 100 100 100 100 100 100 100 100 100 100 100 100 100 100 80 98 100 99 98 93
100 100 86 67 51 74 31 6 40 96 0 3 0 0 0 5 43 11 5 100 91 93 88 100 100 100 100 100 100 100 100 100 100 100 100 100 100 100 100 100 100 100 100 86 87 73 69 51 34
62 100 100 100 83 92 86 14 100 100 1 31 2 0 0 0 5 5 5 18 90 6 75 13 6 9 11 34 100 100 100 100 100 47 68 45 80 62 73 76 99 92 88 95 69 100 99 92 52
30 60 100 100 100 29 96 74 100 98 5 0 5 0 3 0 5 4 5 5 10 9 5 4 5 5 5 5 16 26 84 6 5 10 6 10 19 64 99 100 100 100 100 89 100 100 100 99 40
40 7 64 98 100 45 20 98 100 100 41 4 2 8 5 0 0 5 5 5 5 1 0 5 5 5 5 1 1 5 5 5 5 68 38 91 91 99 100 100 100 100 100 100 83 100 100 100 77
100 92 80 9 98 100 65 90 100 100 98 23 17 8 1 5 0 0 0 0 5 5 4 1 6 10 14 18 7 5 24 64 91 99 79 95 99 75 100 100 100 100 100 100 100 100 100 100 100
92 39 25 58 100 100 54 97 100 100 100 37 46 20 6 4 1 0 0 0 0 3 60 74 5 16 98 97 85 86 66 100 100 100 100 100 100 100 100 100 100 100 100 100 100 100 100 100 100
100 44 22 95 100 100 63 93 100 100 100 100 63 40 94 7 4 0 0 0 0 0 0 0 5 13 92 100 100 100 100 100 100 100 100 100 100 100 100 100 100 100 100 100 100 100 100 100 100

GFSSGP_prec_cloud_081.txt.gz
Cloud_Cover
0 0 0 0 0 0 0 0 0 0 0 0 0 0 0 0 0 0 24 28 93 90 67 17 56 13 7 5 6 2 12 12 5 3 5 45 93 100 100 100 100 73 100 94 100 53 100 100 84
0 0 0 0 0 0 0 0 0 0 0 0 0 0 0 0 0 0 9 60 76 100 77 48 3 14 5 5 5 10 13 31 79 30 6 86 100 100 100 100 91 100 95 59 96 100 100 100 100
0 0 0 0 0 0 0 0 0 0 0 0 0 0 0 0 0 5 58 15 29 95 100 38 87 95 62 96 88 95 69 100 100 100 68 47 78 100 89 100 100 100 47 99 100 100 100 78 30
0 0 0 0 0 0 0 0 0 0 0 0 0 0 0 0 0 15 25 24 11 57 100 100 89 55 6 51 100 100 99 100 100 100 100 23 77 100 100 97 100 100 100 100 100 100 100 99 58
0 0 0 0 0 0 0 0 0 0 0 0 0 0 0 0 4 2 35 68 96 79 100 100 100 100 59 46 67 97 100 100 100 100 100 9 100 100 100 100 100 100 100 100 100 89 100 100 84
0 0 0 0 0 0 0 0 0 0 0 0 0 0 0 17 0 11 89 97 100 100 100 100 100 100 100 100 100 100 100 100 100 100 100 81 97 87 100 100 100 100 100 100 89 100 98 40 48
0 0 0 0 0 0 0 0 0 0 0 0 0 0 0 0 12 29 100 77 100 100 100 100 100 100 100 100 100 100 100 100 100 100 100 100 100 100 100 100 100 100 100 100 100 53 55 87 83
0 0 0 0 0 0 0 0 0 0 0 0 0 0 0 0 57 71 65 70 100 100 100 100 100 100 100 100 100 100 100 100 100 100 100 100 100 100 100 100 100 100 100 100 100 100 98 91 29
0 0 0 0 0 0 0 0 0 0 0 0 0 0 0 30 87 91 100 90 100 100 100 100 100 100 100 100 100 100 100 99 100 100 100 100 100 100 100 100 100 100 100 100 100 100 32 55 51
0 0 0 0 0 0 0 0 0 0 0 0 0 4 1 9 94 94 72 62 100 100 100 100 100 100 100 100 100 100 90 100 100 100 100 100 100 100 100 100 100 100 100 100 100 100 25 61 64
0 0 0 0 0 0 0 0 0 0 0 0 0 0 0 15 78 93 42 40 100 100 100 100 100 100 100 100 100 100 100 100 100 100 100 100 100 100 100 100 100 100 100 100 100 94 58 99 77
0 0 0 0 0 0 0 1 0 0 0 0 0 0 2 35 77 100 35 61 88 100 100 100 100 100 100 100 100 100 100 100 100 100 100 100 100 100 100 100 100 100 100 90 97 92 76 67 99
0 2 0 0 0 0 0 0 0 0 0 0 0 0 0 15 27 84 96 100 88 100 100 100 100 100 100 100 100 100 100 100 100 100 100 100 100 100 100 99 100 100 100 100 100 80 100 97 60
0 0 0 0 0 0 0 0 0 0 0 0 0 12 1 4 4 13 98 100 100 100 100 100 100 100 100 100 100 100 100 100 100 100 100 100 100 100 100 100 100 100 100 100 100 100 93 100 38
0 0 0 3 2 1 4 4 0 0 0 0 0 5 4 0 2 26 79 100 100 100 100 100 100 100 100 100 100 100 100 100 100 100 100 100 100 100 100 100 100 100 100 100 100 99 100 99 77
0 0 4 5 0 3 20 3 1 5 0 0 2 3 0 39 85 87 100 100 100 100 100 100 100 100 100 100 100 100 100 100 100 100 100 100 100 100 100 100 100 100 100 100 100 100 100 100 100
5 2 8 8 5 5 73 9 0 5 2 0 9 0 1 95 100 93 100 100 100 94 100 100 100 100 100 100 100 100 100 100 100 100 100 100 100 100 100 100 100 100 100 100 100 100 100 100 87
4 5 20 46 4 5 49 6 18 5 3 0 2 2 92 100 66 68 100 100 100 100 100 100 100 100 100 100 100 100 100 100 100 100 100 100 100 100 100 100 100 100 100 95 100 100 100 100 98
0 5 10 44 0 14 63 5 5 4 5 1 0 0 18 76 23 100 95 100 100 100 100 100 100 100 100 100 100 100 100 100 100 100 100 100 100 100 100 100 100 100 100 100 100 100 100 100 98
2 5 52 2 1 39 28 85 7 5 4 1 0 5 1 0 76 98 98 100 92 100 100 100 100 100 100 100 100 100 100 100 100 100 100 100 100 100 100 100 100 100 100 100 100 100 100 100 100
54 18 93 3 5 1 5 83 13 13 5 0 0 4 0 0 20 90 100 100 100 100 100 100 100 100 100 100 100 100 100 100 100 100 100 100 100 100 100 100 100 100 100 98 100 100 100 100 98
78 94 5 5 5 5 9 85 79 26 5 5 4 5 2 1 0 17 100 100 100 100 100 100 100 100 100 100 100 100 100 100 100 100 100 100 100 100 100 100 100 100 100 100 100 100 100 100 100
98 5 48 5 76 68 69 28 100 66 5 5 5 5 4 5 0 0 85 100 100 100 100 100 100 100 100 100 100 100 100 100 100 100 100 100 100 100 100 100 100 100 100 100 100 100 100 100 100
100 100 100 100 13 100 81 27 100 78 58 5 5 5 5 0 0 0 8 69 100 100 100 100 100 100 100 100 100 100 100 100 100 100 100 100 100 100 100 100 100 100 100 100 100 100 100 100 100
95 100 100 17 5 100 100 38 100 90 100 39 5 39 5 3 0 0 9 99 100 100 100 100 100 100 100 100 100 100 100 100 100 100 100 100 100 100 100 100 100 100 100 100 100 100 98 100 100
47 47 5 5 6 100 98 88 100 59 100 100 5 97 6 49 6 0 0 1 48 100 100 100 100 100 100 100 100 100 100 100 100 100 100 100 100 100 100 100 100 100 100 100 100 100 100 32 13
100 98 89 21 3 16 86 100 100 100 36 100 79 73 7 100 35 10 0 0 0 16 95 100 41 53 91 100 100 100 100 100 100 100 100 100 100 100 100 100 100 100 100 96 100 100 100 72 44
90 93 70 5 3 8 100 100 100 94 22 96 100 90 14 73 100 61 2 0 0 0 0 20 16 4 11 34 62 94 100 100 100 100 100 100 100 100 100 100 100 100 90 63 100 98 92 91 90
100 100 100 84 70 77 97 100 100 31 82 100 100 99 59 96 100 74 4 2 0 0 0 0 0 2 5 5 5 5 8 12 50 82 57 68 76 96 100 100 100 82 100 85 100 98 100 100 100
100 100 100 97 6 7 90 84 100 97 100 100 100 100 93 70 100 100 32 5 0 0 0 0 2 16 5 5 7 85 60 86 93 78 100 96 86 90 100 100 100 100 100 92 95 100 100 100 100

GFSSGP_prec_cloud_084.txt.gz
Cloud_Cover
0 0 0 0 0 0 0 0 0 0 0 0 0 0 0 0 0 0 0 7 14 21 95 3 0 0 0 1 5 0 0 5 1 5 2 14 82 99 99 98 100 100 100 100 100 100 53 100 100
0 0 0 0 0 0 0 0 0 0 0 0 0 0 0 0 0 0 0 23 40 81 99 72 0 0 0 17 0 0 0 2 3 5 5 5 66 100 100 100 100 100 100 100 41 99 98 100 100
0 0 0 0 0 0 0 0 0 0 0 0 0 0 0 0 0 0 9 27 1 34 89 92 2 76 84 99 94 72 69 64 60 80 39 35 49 58 100 88 100 100 100 98 55 100 76 100 100
0 0 0 0 0 0 0 0 0 0 0 0 0 0 0 0 0 1 30 25 0 4 38 100 0 5 70 99 100 100 100 100 100 100 100 100 100 100 100 100 100 80 63 89 100 100 100 100 100
0 0 0 0 0 0 0 0 0 0 0 0 0 0 0 0 0 0 0 6 0 25 77 70 35 88 98 8 99 99 100 100 100 100 100 100 100 100 100 100 96 100 16 100 100 100 100 100 54
0 0 0 0 0 0 0 0 0 0 0 0 0 0 0 0 0 0 3 46 39 35 62 96 56 100 56 5 76 96 100 100 100 100 100 100 100 99 95 100 98 99 94 100 100 100 100 100 100
0 0 0 0 0 0 0 0 0 0 0 0 0 0 0 0 0 1 10 68 61 90 54 100 63 100 100 8 6 57 47 100 100 100 100 100 100 86 99 100 100 100 100 100 100 100 100 89 10
0 0 0 0 0 0 0 0 0 0 0 0 0 0 0 0 0 0 5 31 53 99 100 100 100 100 100 100 100 100 100 100 100 100 100 100 100 86 88 96 100 100 100 100 100 100 99 100 54
3 2 0 0 0 0 0 0 0 0 0 0 0 0 0 0 0 2 70 97 74 99 100 100 100 100 100 100 100 100 100 100 100 100 100 100 100 100 100 100 100 100 100 100 100 100 100 100 77
5 86 0 0 0 0 0 0 0 0 0 0 0 0 0 0 0 3 5 3 66 93 100 100 100 100 84 100 100 100 100 100 100 100 100 100 100 100 100 100 100 100 100 100 100 100 100 100 90
15 100 8 0 0 0 0 0 0 0 0 0 0 0 0 0 5 5 3 1 23 100 100 100 100 100 100 100 100 100 100 100 100 100 100 100 100 100 100 100 100 100 100 100 100 99 100 100 100
88 90 2 0 0 0 0 0 0 0 0 0 0 0 0 0 0 2 0 0 14 98 97 100 100 100 100 100 100 100 100 98 100 100 100 100 100 100 100 100 100 100 100 100 100 94 36 100 100
92 38 16 0 0 0 1 0 0 0 0 0 0 0 0 0 0 0 0 2 5 88 99 100 100 100 100 100 100 100 100 87 100 100 100 100 100 100 100 100 100 100 100 100 100 100 82 51 60
100 100 56 5 0 4 0 0 0 0 0 0 4 3 0 0 0 0 0 0 10 58 87 100 100 100 100 100 100 100 100 100 100 100 100 100 100 100 100 100 100 100 100 100 100 100 95 100 96
100 99 65 6 0 5 0 4 0 0 0 0 12 0 0 0 0 0 0 0 29 42 94 100 100 100 100 100 100 100 100 100 100 100 100 100 100 100 100 100 100 100 100 100 100 100 85 100 100
100 100 68 5 4 5 4 2 0 0 0 4 14 0 0 0 0 0 0 0 18 51 78 100 100 100 100 100 100 100 100 100 100 100 100 100 100 100 100 100 100 100 100 100 100 100 100 100 100
100 100 25 28 30 5 5 5 5 0 0 0 0 0 0 0 0 0 3 4 22 43 80 100 100 100 100 100 100 100 100 100 100 100 100 100 100 100 100 100 100 100 100 100 100 100 100 100 100
100 20 72 21 24 5 12 5 5 0 0 0 5 4 0 0 0 0 12 30 45 66 96 100 100 100 100 100 100 100 100 100 100 100 100 100 100 100 100 100 100 100 100 100 100 100 100 100 95
100 12 5 46 5 5 45 33 100 3 0 0 0 0 0 0 0 0 48 95 91 83 83 100 100 100 100 100 100 100 100 100 100 100 100 100 100 100 100 100 100 100 100 100 100 100 100 100 93
100 100 100 40 3 7 16 46 100 4 0 0 0 0 3 0 0 0 62 90 99 65 87 100 98 99 100 100 100 100 100 100 100 100 100 100 100 100 100 100 100 100 100 100 100 100 100 100 93
100 84 100 100 4 15 61 43 82 3 0 0 0 0 5 0 1 0 20 43 68 84 58 100 100 100 100 100 100 100 100 100 100 100 100 100 100 100 100 100 100 100 100 98 100 100 100 100 100
100 100 100 100 5 88 80 45 100 2 5 3 0 5 5 5 0 0 0 28 45 93 74 100 100 100 100 100 100 100 100 100 100 100 100 100 100 100 100 100 95 100 100 100 100 100 100 100 100
100 100 100 100 5 70 67 15 100 13 5 2 5 3 18 77 2 0 0 0 24 95 100 100 100 100 100 100 100 100 100 100 100 100 100 100 100 100 100 100 100 100 100 100 100 100 100 100 100
100 48 100 100 16 20 100 18 99 23 4 2 5 79 5 99 16 2 0 0 2 83 100 100 100 100 100 100 100 100 100 100 100 100 100 100 100 100 100 100 100 100 100 100 100 100 100 100 100
100 100 88 97 16 12 100 55 96 100 78 5 17 100 67 98 31 5 0 0 0 35 92 100 100 100 100 100 100 100 100 100 100 100 100 100 100 100 100 100 100 100 100 100 100 100 100 100 100
100 96 66 75 100 67 99 96 100 100 5 81 5 82 24 53 85 32 0 0 0 0 1 99 100 100 100 100 100 100 100 100 100 100 100 100 100 100 100 100 100 100 100 100 100 100 100 100 100
100 100 100 97 5 5 42 100 100 100 67 24 29 5 70 14 86 82 6 5 1 0 0 24 92 98 99 100 100 100 100 100 100 100 100 100 100 100 100 100 100 100 100 100 100 100 100 100 100
100 100 100 23 5 10 94 100 100 100 91 6 70 0 20 63 100 98 99 58 5 0 0 6 5 4 19 80 98 100 100 100 100 100 100 100 100 100 100 100 100 100 100 100 100 100 100 95 90
100 100 100 91 10 70 68 97 100 100 100 66 14 5 5 67 100 86 100 100 5 8 0 0 0 0 1 4 42 75 100 100 100 100 100 100 100 100 100 100 100 100 100 100 100 84 100 100 100
100 100 100 49 97 14 5 92 100 100 97 10 42 60 5 9 100 100 91 100 57 8 4 0 0 0 0 0 7 11 24 26 79 97 100 100 100 100 100 100 100 100 100 100 100 100 95 56 44

GFSSGP_prec_cloud_087.txt.gz
Cloud_Cover
0 0 0 0 0 0 0 0 0 0 0 0 0 0 0 0 0 3 0 0 0 0 6 3 0 0 0 0 6 5 0 1 0 0 0 5 5 5 53 41 74 32 57 100 100 100 100 100 100
0 0 0 0 0 0 0 0 0 0 0 0 0 0 0 0 4 1 0 0 0 0 1 89 2 0 0 0 0 9 20 7 4 2 0 27 22 56 64 48 89 97 100 100 100 100 100 100 100
0 0 0 0 0 0 0 0 0 0 0 0 0 0 0 0 0 0 0 0 0 0 4 11 46 0 67 86 64 48 24 99 55 98 100 97 100 30 90 98 5 87 100 100 100 100 100 99 100
0 0 0 0 0 0 0 0 0 0 0 0 0 0 0 0 0 0 0 0 0 0 11 51 24 0 0 37 98 5 40 100 100 100 100 100 88 40 34 73 68 100 100 100 100 100 100 58 83
0 0 0 0 0 0 0 0 0 0 0 0 0 0 3 0 0 0 0 0 0 0 6 47 2 0 1 1 1 44 100 100 100 100 100 100 100 100 100 100 100 100 100 99 100 76 100 100 100
0 0 0 0 0 0 0 0 0 0 0 0 0 0 0 0 0 0 0 0 0 0 2 70 96 60 100 71 49 85 100 100 100 100 100 100 100 100 100 100 100 100 100 96 100 100 100 100 92
0 0 3 5 0 0 0 0 0 0 0 0 0 0 4 0 0 0 0 0 0 0 0 21 57 78 100 100 76 81 100 100 100 100 100 100 100 100 100 100 100 100 95 74 100 86 100 100 100
4 2 5 2 0 0 0 0 0 0 0 0 0 0 2 2 0 0 0 0 0 4 15 80 53 100 100 100 80 100 100 100 100 100 100 100 100 100 100 100 100 100 100 100 100 100 97 100 100
5 14 5 4 0 2 0 0 0 0 0 0 0 0 0 0 0 0 0 0 4 28 16 94 75 100 100 100 89 94 100 100 100 100 100 100 100 100 100 100 100 100 100 94 57 100 100 100 100
4 52 49 3 0 5 0 0 0 0 0 0 3 3 0 0 0 0 0 0 17 23 33 100 67 96 100 100 94 100 100 100 100 100 100 100 100 100 100 100 100 100 70 52 52 94 100 100 100
0 88 25 5 0 5 3 0 0 0 0 0 0 5 7 0 0 0 0 0 1 12 24 100 93 100 100 100 100 100 100 100 100 100 100 100 100 100 100 100 100 100 100 100 100 100 100 100 100
0 97 100 58 10 10 2 5 0 0 0 0 0 0 0 0 0 0 0 0 0 23 93 63 100 99 100 97 100 100 100 100 100 100 100 100 100 100 100 100 100 100 100 100 100 100 100 100 100
0 100 100 21 6 5 3 5 0 0 0 0 0 0 0 0 0 0 0 0 0 11 100 100 100 100 100 100 100 100 100 100 100 100 100 100 100 100 100 100 100 100 100 100 100 100 100 100 100
53 96 88 99 89 31 1 37 8 0 0 0 0 0 0 4 0 0 0 0 0 1 58 100 100 100 99 100 100 100 100 100 100 100 100 100 100 100 100 100 100 100 100 100 100 100 100 100 100
93 100 100 100 100 100 0 77 0 2 0 0 0 0 3 3 0 0 0 0 0 0 46 100 100 100 100 100 100 100 95 100 100 100 100 100 100 100 100 100 100 100 100 100 100 100 100 100 100
100 100 100 100 100 100 39 87 0 5 5 0 0 0 0 0 0 0 0 0 0 0 83 100 72 100 100 100 100 100 100 100 100 100 100 100 100 100 100 100 100 100 100 100 100 100 100 100 100
100 100 100 100 91 100 90 38 5 5 5 0 5 4 0 0 0 0 0 0 0 2 70 100 77 94 100 100 100 100 100 100 100 100 100 100 100 100 100 100 100 100 100 100 100 100 100 100 100
100 100 100 93 100 100 19 28 4 5 5 5 5 4 0 0 0 0 0 0 0 9 100 100 100 100 100 100 100 100 100 100 100 100 100 100 100 100 100 100 100 100 100 100 100 100 100 100 100
100 100 100 100 100 100 48 6 50 81 5 5 5 5 0 0 0 0 0 0 0 27 100 100 99 100 100 100 100 100 100 100 100 100 100 100 100 100 100 100 100 100 100 100 100 100 100 100 100
100 92 100 100 100 98 6 45 95 99 15 5 5 5 1 1 0 2 0 0 1 46 100 100 98 85 87 100 100 100 100 100 100 100 100 100 100 100 100 100 100 100 100 100 100 100 100 100 100
100 100 100 100 100 100 100 13 65 100 5 5 5 2 2 4 1 5 5 0 36 74 100 100 94 100 94 100 100 100 100 100 100 100 100 100 100 100 100 100 100 100 100 100 100 100 100 100 100
100 100 100 100 100 87 92 95 100 100 8 5 19 5 0 5 5 5 5 0 26 51 100 100 100 100 98 91 100 100 100 100 100 100 100 100 100 100 100 100 100 100 100 100 100 100 100 94 100
100 100 100 100 100 78 98 100 100 100 5 20 42 5 1 1 7 5 2 0 2 37 100 90 96 96 100 100 100 100 100 100 100 100 100 100 100 100 100 100 100 100 100 100 100 100 98 100 100
100 100 100 100 76 8 96 100 100 100 16 94 28 5 5 28 77 5 2 0 0 33 30 100 95 100 100 99 100 100 100 100 100 100 100 100 100 100 100 100 100 100 87 93 100 100 100 100 100
100 100 100 100 100 93 100 100 100 100 16 55 10 5 1 88 90 28 6 1 0 7 2 100 99 100 100 100 100 100 100 100 100 100 100 100 100 100 100 100 100 100 100 100 100 100 100 100 100
100 100 100 100 100 96 98 84 100 100 97 100 5 4 5 1 32 11 36 0 3 12 0 100 100 100 98 100 100 100 100 100 100 100 100 100 100 100 100 100 100 100 100 100 100 100 100 100 100
100 98 100 100 100 100 91 100 100 99 100 100 7 6 20 35 5 78 93 75 5 34 0 1 100 100 100 91 100 100 100 100 100 100 100 100 100 100 100 100 100 100 100 100 100 100 100 100 100
100 100 100 90 100 85 94 77 100 100 100 76 5 27 21 77 1 46 27 100 97 100 3 0 6 78 98 100 96 95 100 100 100 100 100 100 100 100 100 100 100 100 100 100 100 100 100 99 100
100 100 100 100 100 97 99 100 100 100 95 96 71 22 53 2 5 1 5 33 100 100 87 0 0 4 47 100 100 79 94 100 100 100 100 100 100 100 100 100 100 100 100 100 100 100 100 100 100
100 100 100 100 89 100 100 100 100 96 81 100 100 8 5 5 9 5 5 96 100 100 100 54 0 0 1 15 51 100 83 100 100 27 38 100 98 100 100 100 100 100 100 100 100 100 100 100 100

GFSSGP_prec_cloud_090.txt.gz
Cloud_Cover
0 0 0 0 0 0 0 0 0 0 0 0 0 0 0 0 0 0 0 0 0 0 0 0 0 0 0 10 97 39 15 1 3 2 0 0 4 5 3 5 5 5 5 7 15 64 21 100 100
0 0 0 0 0 0 0 77 0 0 0 0 0 0 0 0 3 4 0 0 0 0 0 6 0 0 0 0 0 0 0 34 37 0 0 2 51 63 15 5 55 20 32 25 52 100 100 99 100
0 0 0 0 0 0 0 2 0 0 0 0 0 0 0 41 0 0 0 0 0 0 0 0 0 0 0 0 3 0 0 0 7 88 98 97 100 100 100 100 67 42 40 79 60 100 100 98 100
0 0 0 0 0 0 0 0 0 0 0 0 0 0 0 0 0 0 0 0 0 0 0 18 0 0 0 0 0 0 6 14 97 100 100 100 100 100 100 100 91 70 100 100 100 92 100 100 100
0 0 0 0 0 0 3 0 0 0 0 0 0 0 0 0 0 0 0 0 0 0 0 0 0 0 0 0 0 0 19 83 99 100 100 100 100 100 100 100 100 78 100 100 100 100 100 99 100
0 0 0 0 0 2 24 0 0 0 0 0 0 0 0 0 0 0 0 0 0 0 0 0 27 80 0 0 0 0 0 5 100 100 100 100 100 100 100 100 100 100 100 100 100 100 100 100 100
0 0 0 0 5 0 4 2 1 0 0 0 0 0 0 0 0 0 0 0 0 0 0 3 82 92 96 0 46 64 59 8 100 100 100 100 100 100 100 100 100 100 100 100 100 100 100 100 100
0 0 0 0 2 5 0 1 0 1 2 0 0 0 0 0 0 0 0 0 0 0 0 9 30 100 52 100 96 5 100 78 100 100 100 100 100 100 100 100 100 93 100 100 100 100 100 100 100
0 0 4 0 0 2 46 5 3 0 5 0 0 0 0 0 0 0 0 0 0 0 1 76 100 100 96 73 22 25 100 62 100 100 100 100 100 100 100 100 100 100 100 100 100 100 100 38 100
0 0 5 4 0 0 20 14 3 1 42 11 0 0 0 0 0 0 0 0 0 0 0 74 100 100 81 100 70 86 92 100 100 100 100 100 100 100 100 100 100 100 87 100 100 97 100 99 95
5 4 5 7 4 0 68 10 3 81 10 0 5 0 0 0 0 0 0 0 0 0 0 1 94 100 100 71 79 91 100 100 100 100 100 100 100 100 100 100 100 100 98 100 100 100 87 96 100
12 4 5 26 31 0 35 42 5 99 75 0 38 0 0 0 0 0 0 0 0 0 0 26 100 99 80 96 96 80 100 100 100 100 100 100 100 100 100 100 100 100 100 100 99 99 97 100 100
5 1 28 25 26 1 1 91 38 100 21 1 5 0 0 0 0 0 0 0 0 0 0 6 98 100 100 80 48 100 100 100 100 100 100 100 100 100 100 100 100 100 100 100 99 100 96 100 100
2 2 6 5 52 95 33 24 13 100 12 60 24 0 0 0 0 0 0 0 0 0 0 0 100 96 100 68 98 100 100 100 100 100 100 100 100 100 100 100 100 100 100 100 100 100 100 100 100
0 5 32 87 93 70 95 100 100 100 79 96 55 0 1 0 0 0 0 0 0 0 0 0 100 100 100 100 43 100 100 100 100 100 100 100 100 100 100 100 100 100 100 100 100 100 100 100 100
1 42 5 87 57 48 66 56 100 100 100 94 6 5 1 1 0 0 0 0 0 0 0 0 100 100 91 100 100 98 100 100 100 100 100 100 100 100 100 100 100 100 100 100 100 100 100 100 100
5 5 5 9 100 100 14 5 100 100 100 99 5 5 4 3 0 0 0 0 0 0 0 0 100 100 53 100 100 100 100 100 100 100 100 100 100 100 100 100 100 100 100 100 100 100 100 100 100
3 5 5 5 99 100 5 27 95 100 100 100 5 5 5 5 0 0 0 0 0 0 0 17 100 98 80 100 100 100 100 100 100 100 100 100 100 100 100 100 100 100 100 100 100 100 100 100 100
90 92 50 46 100 100 81 90 100 100 95 30 5 5 5 0 5 2 0 0 0 0 0 81 100 98 97 100 100 100 100 100 100 100 100 100 100 100 100 100 100 100 100 100 100 100 100 100 100
7 5 5 5 100 100 100 85 100 100 78 6 5 6 5 5 6 2 0 0 0 0 0 91 98 91 100 100 100 100 100 100 100 100 100 100 100 100 100 100 100 100 100 100 100 100 100 100 100
5 10 73 46 100 100 68 28 100 100 45 43 5 14 5 9 14 0 0 0 0 2 4 98 100 99 100 100 100 100 100 100 100 100 100 100 100 100 100 100 100 100 100 100 100 100 100 100 100
5 84 100 100 100 93 100 70 100 100 100 100 16 5 5 5 4 0 0 0 0 31 32 100 100 99 94 100 100 100 13 100 100 100 100 100 100 100 100 100 100 100 100 100 100 100 100 100 99
7 100 90 100 100 100 100 96 100 100 100 100 64 5 18 5 1 0 0 5 0 20 100 100 100 100 100 100 100 100 100 100 100 100 100 100 97 100 100 100 100 100 100 100 100 100 100 100 100
100 100 96 100 100 95 100 100 100 100 100 100 48 16 86 60 7 4 61 71 4 4 26 100 100 100 100 100 100 100 100 100 100 100 100 100 100 100 100 100 100 100 100 100 100 100 100 100 100
100 100 100 100 100 100 100 92 99 100 100 100 100 92 96 78 5 1 97 6 5 6 0 100 100 100 100 100 100 100 100 100 100 100 100 100 100 100 100 100 100 100 100 100 100 100 100 100 100
100 100 100 100 100 100 100 99 100 100 100 100 100 96 100 100 70 4 36 32 5 5 0 87 98 100 85 100 100 100 100 100 100 100 100 100 100 100 100 100 100 100 100 100 100 100 100 100 100
100 100 83 100 100 100 100 100 100 100 100 100 100 82 100 100 29 15 0 4 13 100 8 6 99 40 84 100 100 100 100 100 100 100 100 100 100 100 100 100 100 100 98 100 100 100 100 100 100
100 100 100 98 100 100 100 100 100 100 100 100 100 78 100 100 99 11 6 0 5 18 94 96 74 18 96 100 100 100 100 100 100 94 100 100 100 100 100 100 100 100 100 100 100 100 100 100 100
100 100 100 100 100 100 100 100 100 100 100 100 100 81 99 100 81 62 12 0 0 1 22 100 61 91 100 100 100 100 100 96 100 100 100 89 96 100 100 100 100 100 100 100 100 100 100 100 100
100 100 100 100 100 100 100 100 100 100 100 100 100 87 100 96 5 37 6 1 5 0 4 100 58 75 17 96 100 100 100 99 100 100 100 100 87 100 100 100 100 100 100 100 100 100 100 100 100

GFSSGP_prec_cloud_093.txt.gz
Cloud_Cover
0 0 0 0 0 0 0 0 0 0 0 0 0 0 0 0 0 0 0 0 0 0 0 0 0 0 0 0 0 0 100 60 4 80 22 2 0 0 5 5 5 0 0 0 71 98 88 84 100
0 0 0 0 0 0 0 0 0 0 0 0 0 0 0 0 0 0 0 0 0 0 0 0 0 0 0 0 0 0 19 32 7 20 58 23 7 5 17 4 5 5 5 5 91 100 57 96 100
0 0 0 0 0 0 0 0 0 0 0 0 0 0 0 0 0 0 0 0 0 0 0 0 0 0 0 0 0 0 35 42 75 11 40 84 99 100 100 89 100 100 100 100 99 100 16 97 18
0 0 0 0 0 0 0 0 0 0 0 0 0 0 0 0 0 0 0 0 0 0 0 0 0 0 0 0 0 0 0 1 6 2 97 100 100 100 100 100 100 100 100 100 100 90 28 83 21
0 0 0 0 0 0 0 1 0 0 0 0 0 0 0 0 0 0 0 0 0 0 2 0 0 0 0 0 10 0 0 24 44 62 100 100 100 100 100 100 100 100 100 100 100 96 10 54 93
0 0 0 0 0 0 0 0 0 3 0 0 0 0 0 0 0 0 0 0 0 0 0 1 0 44 0 0 0 0 0 16 80 18 100 100 100 100 100 100 100 100 100 74 99 99 68 72 5
0 0 0 0 0 0 0 0 0 3 0 0 0 0 0 0 0 0 0 0 0 0 0 0 0 100 97 0 0 0 5 2 0 3 96 100 100 100 100 100 100 100 100 98 100 100 70 90 98
0 0 0 0 0 0 0 0 2 0 5 0 5 0 0 0 0 0 0 0 0 0 0 0 1 100 62 1 0 1 7 18 77 23 100 100 100 100 100 100 100 100 100 100 100 99 76 94 100
0 0 3 0 1 4 0 5 4 0 0 3 0 0 1 1 0 0 0 0 0 0 0 0 10 100 100 79 99 51 5 5 60 94 100 100 100 100 100 100 100 100 100 100 99 99 96 100 100
5 0 5 2 4 22 4 5 0 0 0 13 0 0 0 0 2 0 0 0 0 0 0 0 8 100 87 44 31 32 27 95 79 94 100 100 100 100 100 100 100 100 100 100 37 100 79 100 100
3 0 76 2 5 11 8 5 2 0 0 0 1 2 4 4 5 2 0 0 0 0 0 0 0 85 100 87 96 58 45 100 100 100 100 100 100 100 100 100 100 100 100 100 95 35 100 84 100
5 6 2 5 4 9 5 5 4 0 0 5 5 16 4 0 1 0 0 0 0 0 0 0 0 0 80 100 100 100 89 100 100 100 100 100 100 100 100 100 100 100 100 100 78 97 9 67 100
62 7 0 5 29 38 5 5 5 4 80 28 2 90 5 3 5 0 0 0 0 0 0 0 0 92 99 100 91 88 61 100 100 100 100 100 100 100 100 100 100 100 100 100 100 32 99 100 94
74 1 2 5 21 5 5 2 5 42 35 19 79 83 85 100 5 4 0 0 0 0 0 0 0 49 100 70 92 89 100 100 100 100 100 100 100 100 100 100 100 100 100 100 100 100 100 100 79
18 3 5 46 76 2 5 5 2 5 5 3 100 100 100 100 81 5 0 0 0 0 0 1 6 0 84 35 22 25 25 100 100 100 100 100 100 100 100 100 100 100 100 100 100 100 100 100 93
100 5 11 100 5 7 41 55 1 5 5 5 100 100 100 100 27 5 2 0 0 0 0 0 0 22 99 81 18 45 100 86 100 100 100 100 100 100 100 100 100 100 100 100 100 100 100 100 100
49 56 5 4 3 3 96 2 3 4 8 1 100 100 100 100 81 5 0 0 0 0 0 0 0 34 100 100 78 57 100 100 100 100 100 100 100 100 100 100 100 100 100 100 100 100 100 100 100
18 0 0 5 54 98 86 1 0 74 9 2 100 100 100 100 13 5 2 0 0 0 0 0 0 48 100 100 92 100 100 100 100 100 100 100 100 100 100 100 100 100 100 100 100 100 100 100 100
0 0 0 0 4 26 5 1 3 2 37 69 100 100 5 36 5 5 1 0 0 0 0 0 0 91 97 100 100 100 100 100 100 100 100 100 100 100 100 100 100 100 100 100 100 100 100 100 100
15 13 27 5 24 93 5 2 0 3 99 100 74 98 100 9 5 5 5 2 0 14 0 0 1 99 100 100 100 100 100 100 100 100 100 100 100 100 100 100 100 100 100 100 100 100 100 100 100
99 13 5 0 0 3 59 0 3 3 25 100 100 100 97 10 9 9 5 4 3 24 5 1 0 94 100 100 100 100 100 100 100 100 100 100 100 100 100 100 100 100 100 100 100 100 100 100 100
52 46 3 4 4 0 84 3 0 5 8 100 100 100 20 5 9 30 25 5 0 40 0 0 0 100 100 100 100 96 99 100 100 100 100 100 100 100 100 100 100 100 100 100 100 100 100 100 100
6 2 9 5 29 4 7 65 4 12 10 100 100 100 51 96 5 31 11 5 0 3 3 0 1 100 100 100 100 100 100 100 100 100 100 100 100 100 100 100 100 100 100 100 100 100 100 100 100
4 20 59 5 6 5 36 78 5 80 82 100 100 100 33 72 72 46 8 5 5 3 0 0 10 100 100 98 99 13 45 68 100 100 100 100 100 100 100 100 100 100 100 100 100 100 100 100 100
0 66 77 44 44 4 100 78 5 100 100 100 100 100 82 100 100 99 53 5 5 8 1 4 46 100 100 100 100 75 100 100 100 100 100 100 100 100 100 100 100 100 100 100 100 100 100 100 100
76 98 38 75 33 100 100 77 100 100 100 100 100 58 93 100 100 100 100 31 5 4 5 5 20 90 100 100 88 100 99 100 100 100 100 100 100 100 100 100 100 100 100 100 100 100 100 100 100
12 5 49 100 99 100 100 100 100 100 100 100 100 100 100 100 100 100 100 100 84 4 5 1 5 46 100 100 100 100 100 100 100 100 100 100 100 100 100 100 100 100 100 100 100 100 100 100 100
24 92 100 100 100 100 100 100 100 100 100 100 100 100 100 100 100 100 100 100 100 17 5 1 0 28 100 100 100 100 100 100 100 100 100 100 100 100 100 100 100 100 100 100 100 100 100 100 100
94 100 100 100 100 100 100 100 100 100 100 100 100 100 100 100 100 99 99 100 100 12 2 0 0 25 100 100 100 100 100 100 100 100 100 100 100 100 100 100 100 100 100 100 100 100 100 100 100
100 81 100 100 100 100 100 100 100 100 100 100 81 100 100 100 100 100 100 100 74 5 5 0 0 4 94 100 100 100 100 100 100 100 100 100 83 100 100 100 100 100 100 100 100 100 100 100 100

GFSSGP_prec_cloud_099.txt.gz
Cloud_Cover
0 0 0 0 0 0 0 0 0 0 0 0 0 0 0 0 0 0 0 0 0 9 72 14 0 0 0 0 0 1 0 4 78 32 6 5 15 5 4 3 0 0 21 66 3 0 0 31 12
0 0 0 0 0 0 0 0 0 0 0 0 0 0 0 0 0 0 0 0 0 2 54 38 0 0 0 0 0 24 99 100 98 0 36 6 15 3 5 5 0 0 93 100 12 0 32 67 5
0 0 0 0 0 0 0 0 0 0 0 0 0 0 0 0 0 0 0 0 0 0 5 49 0 0 0 0 0 0 0 58 100 4 0 1 1 94 5 4 5 0 0 78 10 5 88 4 10
0 0 0 0 0 0 0 0 0 0 0 0 0 0 0 0 0 0 0 0 0 0 0 0 4 0 0 0 0 0 0 0 1 40 96 5 16 7 98 18 45 56 5 7 97 91 41 78 100
0 0 0 0 0 0 0 0 0 0 4 0 0 0 0 0 0 0 0 0 0 0 0 0 0 11 0 0 0 0 44 55 4 0 35 22 28 83 100 62 72 65 100 100 100 100 100 100 100
0 0 0 0 0 0 0 0 0 0 3 5 0 0 0 0 0 0 0 0 2 7 2 0 0 0 38 8 0 0 89 35 9 0 0 0 1 9 100 65 100 100 100 100 100 100 100 100 100
5 0 4 1 6 0 0 0 0 0 8 94 3 0 0 0 0 0 0 15 27 24 19 18 5 0 8 16 5 1 100 98 100 90 13 0 0 5 27 12 100 100 100 100 100 100 100 100 96
5 41 100 100 100 87 0 0 0 0 3 100 30 0 0 0 0 0 0 23 47 53 41 44 33 1 23 88 25 55 92 100 100 100 100 91 40 16 85 34 100 100 99 100 100 100 100 100 97
0 2 62 100 100 99 16 0 0 0 13 97 12 2 4 4 0 0 0 4 59 65 49 30 7 0 0 61 78 28 100 79 90 89 100 100 97 94 91 85 100 100 100 100 100 100 100 100 100
0 0 4 66 98 100 93 0 0 0 0 96 5 28 26 5 4 1 0 0 5 42 48 24 9 1 7 42 53 85 100 100 96 90 100 100 100 46 54 61 100 100 100 100 100 100 100 100 100
71 1 13 15 86 72 63 0 0 0 0 8 6 95 70 20 39 8 0 22 4 0 10 33 14 10 21 67 97 58 100 100 100 82 100 100 90 92 45 68 100 100 100 100 100 100 100 100 90
5 5 5 92 25 0 4 5 1 0 9 8 33 99 100 8 11 5 0 72 100 6 0 0 16 27 29 43 70 99 54 100 100 100 100 100 100 100 94 95 100 100 100 100 100 100 100 100 96
4 2 1 3 4 1 4 78 6 6 100 1 6 98 99 54 52 5 0 1 100 43 0 2 22 36 51 41 52 100 95 88 69 86 59 100 92 100 100 100 100 100 100 100 100 100 100 100 97
44 5 1 0 6 87 89 34 4 100 12 3 26 100 93 51 10 20 1 0 95 97 33 12 17 36 54 69 50 100 100 100 99 96 86 83 100 100 100 100 100 100 100 100 100 100 100 98 100
97 60 84 54 83 100 93 0 43 100 5 3 5 5 6 8 5 33 5 0 59 37 96 12 6 19 35 75 42 58 98 100 100 100 100 68 100 100 100 100 100 100 100 100 100 100 100 100 100
100 100 100 100 100 100 73 0 100 94 100 91 16 5 13 20 7 35 3 0 100 58 55 9 1 10 25 45 56 59 83 95 100 100 100 100 100 100 100 100 100 100 100 100 100 100 100 100 100
38 100 100 100 100 100 35 1 100 100 35 14 5 5 5 5 8 62 6 5 97 41 16 30 28 17 19 33 44 51 46 100 90 89 100 100 100 100 100 100 100 100 100 100 100 100 100 100 100
100 78 34 6 70 97 91 63 100 100 93 43 4 1 9 95 99 65 32 5 46 24 94 25 58 44 44 70 69 60 95 100 100 100 100 100 100 100 100 100 100 100 100 100 100 100 100 100 100
7 6 4 3 13 5 0 0 0 5 72 53 5 5 98 97 100 100 32 21 55 36 100 53 63 92 100 100 100 100 100 100 100 100 100 100 100 100 100 100 100 100 100 100 100 100 100 100 100
3 5 7 96 100 51 0 0 0 2 26 88 13 50 100 86 100 100 94 98 100 71 100 51 38 100 100 100 100 94 96 98 100 100 100 100 100 100 100 100 100 100 100 100 100 100 100 100 100
0 6 71 100 100 34 6 0 0 5 7 98 85 76 81 71 100 100 41 83 100 92 91 57 71 100 100 79 72 91 92 100 100 100 100 100 100 100 100 100 100 100 100 100 100 100 100 100 100
0 5 28 98 44 90 19 0 5 53 100 97 100 56 54 16 58 5 5 47 100 84 90 68 100 100 100 62 100 100 100 100 100 100 100 100 100 100 100 100 100 100 100 100 100 100 100 100 100
23 1 5 5 100 88 93 43 82 100 100 100 57 51 46 6 79 2 1 97 100 99 93 100 100 100 100 47 72 42 92 91 100 99 100 100 98 100 100 100 100 100 100 100 100 100 100 100 100
2 1 0 42 27 5 100 76 98 94 65 8 5 11 81 40 12 4 5 100 100 100 100 100 100 91 63 88 40 2 50 100 82 100 100 100 100 100 100 100 100 100 100 100 100 100 100 100 100
5 5 6 2 0 2 6 2 5 10 90 4 4 5 5 4 2 3 89 100 100 100 100 100 100 100 100 100 46 9 65 62 86 100 100 100 100 100 100 100 100 100 100 100 100 100 100 100 100
39 16 5 5 3 4 0 0 4 6 4 2 0 13 4 0 0 40 100 100 100 100 100 100 100 100 100 100 42 40 23 94 100 100 100 100 100 100 100 100 100 100 100 100 100 100 100 100 100
95 8 54 54 1 4 2 1 4 2 0 0 0 5 11 0 4 60 100 100 96 99 100 85 100 100 100 100 59 32 8 31 6 93 97 100 100 100 100 100 100 100 100 100 100 100 100 100 100
98 100 42 24 5 34 4 5 5 4 0 0 1 30 41 94 100 100 100 100 100 98 94 74 100 96 100 100 70 19 3 5 1 34 100 100 100 100 100 100 100 100 100 100 100 100 100 100 100
94 100 99 95 32 60 4 5 5 0 0 0 98 100 100 100 100 100 100 100 73 70 100 100 100 76 100 100 58 11 14 2 6 1 100 97 99 100 100 100 100 100 100 100 100 100 100 100 100
100 100 100 100 66 33 25 1 3 4 24 100 100 100 100 100 100 100 100 100 63 100 100 100 100 80 100 100 91 8 26 2 4 16 6 96 68 100 100 100 100 100 100 100 100 100 100 100 100

GFSSGP_prec_cloud_102.txt.gz
Cloud_Cover
0 0 0 0 0 0 0 0 0 0 0 0 0 0 0 0 0 0 0 0 0 4 20 13 45 2 0 0 0 0 0 16 34 78 5 24 100 5 5 1 3 0 0 0 2 0 4 98 4
0 0 0 0 0 0 0 0 0 0 0 0 0 0 0 0 0 0 0 0 0 29 98 47 11 0 0 0 0 0 0 33 52 46 22 39 8 43 5 55 5 5 0 0 0 0 31 44 0
0 0 0 0 0 0 0 0 0 0 0 0 0 0 0 0 0 0 0 0 0 46 100 50 8 0 0 0 0 0 0 3 36 85 88 18 7 34 74 19 19 23 13 0 1 20 30 7 10
0 0 0 0 0 0 0 0 0 0 0 0 0 1 0 0 0 0 0 0 0 26 80 91 2 0 2 1 8 2 1 0 0 0 5 50 20 23 4 29 96 69 40 81 2 5 0 35 16
0 0 0 0 0 0 0 0 0 0 0 0 0 0 4 0 0 0 0 0 0 7 13 32 5 0 0 0 0 4 10 0 0 0 0 49 16 100 12 16 99 100 98 100 100 20 26 95 100
3 0 0 5 0 0 0 0 0 0 0 0 0 0 1 4 0 0 0 0 0 2 1 9 29 6 2 0 0 35 66 34 4 0 0 14 92 91 72 98 100 100 100 98 100 100 100 100 100
1 0 4 9 10 5 0 0 0 9 0 0 0 0 0 5 0 5 1 10 12 2 5 12 18 45 27 0 0 18 93 18 0 1 0 0 0 0 7 32 78 39 6 100 100 100 100 100 100
4 1 8 92 53 9 4 0 0 29 0 0 4 0 0 2 4 6 17 40 60 42 10 16 13 20 55 49 4 46 100 99 25 38 0 1 4 1 0 0 0 12 10 100 100 100 100 100 50
2 1 67 97 25 4 0 0 0 29 2 0 5 5 0 0 61 100 98 99 100 99 76 36 33 28 23 22 64 99 99 100 100 63 22 50 95 83 53 59 63 68 100 100 100 100 100 100 100
73 32 96 18 5 2 0 0 0 1 1 0 3 0 0 0 90 100 100 100 100 100 100 89 48 21 10 25 67 80 100 100 78 95 100 100 98 80 100 100 100 41 100 100 100 100 100 100 100
46 7 22 53 5 4 12 4 0 3 5 0 3 0 0 0 74 100 100 37 91 100 100 89 27 4 8 81 42 100 100 100 100 98 98 100 100 100 100 96 16 78 100 100 100 100 100 100 100
50 100 92 74 12 74 54 8 0 0 0 2 0 0 0 0 88 100 100 8 5 3 25 43 26 20 22 100 100 100 100 100 92 100 68 99 57 100 100 99 55 98 100 100 100 100 100 100 99
97 100 83 53 5 5 5 3 5 0 0 6 0 0 5 5 90 100 93 25 5 2 0 20 38 20 30 94 100 100 100 98 74 54 79 100 100 100 90 98 99 91 100 100 100 100 100 100 90
26 33 28 31 71 28 8 47 0 0 0 0 0 0 5 5 100 92 92 94 5 5 2 0 32 30 66 66 100 100 93 94 94 90 79 100 100 97 100 100 100 100 100 100 100 100 100 100 100
20 12 42 42 32 94 95 0 0 38 72 0 0 0 0 6 100 63 62 33 31 19 0 0 10 37 90 98 100 100 100 100 86 79 59 61 58 95 100 100 100 100 100 100 100 100 100 100 100
5 5 5 38 100 100 84 1 83 100 42 1 0 2 12 47 10 47 5 56 16 66 0 0 0 74 89 100 100 100 100 100 100 100 86 100 67 46 100 100 100 100 100 100 100 100 100 100 100
39 24 97 38 4 58 66 95 100 100 100 100 41 34 99 24 23 48 42 98 48 93 5 8 12 65 73 92 100 100 100 100 100 100 100 100 100 92 100 100 100 100 100 100 100 100 100 100 100
100 100 83 25 7 4 0 7 22 44 99 7 23 100 100 99 44 5 39 97 62 100 11 7 28 98 62 69 100 100 100 100 100 100 100 100 100 94 100 100 100 100 100 100 100 100 100 100 100
100 6 0 0 1 2 10 3 0 0 5 5 5 12 13 6 5 5 5 5 10 99 45 26 52 99 47 100 100 100 100 100 100 100 100 88 100 100 100 100 100 100 100 100 100 100 100 100 60
99 34 14 5 16 3 1 4 0 0 14 16 4 10 18 15 4 12 23 75 100 100 85 69 86 100 44 100 100 100 97 100 100 100 100 100 100 100 100 100 100 100 100 100 100 100 100 100 100
92 100 92 41 36 5 0 4 0 0 5 92 100 93 97 1 4 42 52 100 100 100 86 100 88 100 86 63 86 100 100 100 100 100 100 100 100 100 100 100 100 100 100 100 100 100 100 100 100
100 100 100 100 3 0 0 0 0 2 55 100 100 100 21 5 9 97 97 100 100 99 99 100 78 99 90 98 100 100 100 74 85 95 100 100 89 100 100 100 100 100 100 100 100 100 100 100 100
100 100 94 100 19 1 0 0 4 26 100 100 100 53 5 2 23 66 100 99 100 100 99 100 79 100 97 100 100 100 99 60 100 100 100 100 100 100 100 100 100 100 100 100 100 100 100 100 100
100 100 100 68 18 4 6 2 0 3 46 100 45 36 100 100 100 51 76 94 100 99 88 100 100 100 100 100 100 100 90 80 88 100 100 100 96 98 100 100 100 100 100 100 100 100 100 100 100
100 100 92 38 5 5 81 4 9 7 79 6 56 100 100 99 59 43 9 5 38 85 93 100 100 100 100 100 100 62 2 17 100 99 100 100 100 100 100 100 100 100 100 100 100 100 100 100 100
100 100 100 94 92 92 96 5 5 79 5 5 26 95 94 16 7 7 5 0 8 73 100 100 100 100 100 83 57 76 1 4 100 60 100 100 100 100 100 100 100 100 100 100 100 100 100 100 100
100 100 100 100 100 88 6 0 5 100 5 5 0 0 0 0 3 0 0 0 0 41 90 100 100 100 100 11 100 86 25 28 42 47 70 83 100 89 100 100 100 100 100 100 100 100 100 100 100
100 100 100 100 94 8 4 5 3 53 4 0 0 0 0 0 50 0 0 0 2 89 98 100 100 100 100 52 100 74 51 8 0 8 53 93 96 98 100 100 100 100 100 100 100 100 100 100 100
100 100 100 82 12 5 3 5 5 5 5 3 4 2 0 16 85 5 3 0 5 100 88 100 100 100 100 99 100 100 54 21 0 1 20 30 86 100 100 100 100 100 100 100 100 100 100 100 100
100 100 96 6 98 51 7 5 5 5 5 4 0 5 5 86 100 64 17 6 100 100 100 100 100 100 100 100 100 100 36 11 1 17 23 23 11 98 100 100 100 100 100 100 100 100 100 100 100

GFSSGP_prec_cloud_105.txt.gz
Cloud_Cover
0 0 0 0 0 0 0 0 0 0 0 0 0 0 0 0 0 0 0 0 0 0 0 24 100 50 0 0 0 3 1 0 0 0 44 6 94 20 11 4 2 4 3 5 0 5 5 23 1
0 0 0 0 0 0 0 0 0 0 0 0 0 0 0 0 0 0 0 0 0 0 0 16 93 25 0 0 0 0 0 1 10 98 8 26 18 88 53 30 4 5 5 0 1 5 98 5 5
0 0 0 0 0 0 0 0 0 0 0 0 0 0 0 0 0 0 0 0 0 0 0 3 33 0 0 0 0 0 0 0 0 1 0 0 86 5 37 50 66 5 5 4 0 18 11 5 5
0 0 0 0 0 0 0 0 0 0 0 0 0 0 0 0 0 0 0 0 0 0 0 60 26 0 0 0 0 0 0 0 4 2 0 0 1 22 37 26 89 7 18 17 87 6 0 3 5
0 0 1 1 0 0 0 0 0 0 0 0 0 0 0 0 0 0 0 0 0 2 58 92 29 22 16 0 0 0 0 1 19 57 4 0 4 0 19 16 84 53 99 100 84 100 45 1 5
2 5 5 5 5 0 0 0 0 0 0 0 0 0 0 0 0 0 0 1 0 0 45 44 18 6 7 5 4 0 0 1 36 96 40 12 0 1 85 0 100 90 79 100 100 100 100 72 20
6 5 13 31 31 0 0 0 0 0 0 3 3 2 3 0 0 0 0 4 0 4 15 48 52 36 21 0 0 0 0 2 0 0 0 0 0 13 30 82 69 0 46 37 100 100 100 92 85
12 5 6 89 60 3 0 0 0 0 0 0 5 0 0 0 0 0 0 0 5 15 32 4 77 70 49 38 4 3 83 21 0 0 0 0 4 0 1 8 23 62 0 4 52 60 100 100 100
44 28 49 100 5 0 0 0 0 0 0 5 5 1 0 0 0 0 17 83 89 78 94 5 24 65 96 47 34 40 100 52 12 0 0 27 4 4 5 1 1 3 5 99 74 87 100 100 100
100 86 100 100 5 0 0 9 0 0 1 39 5 5 0 0 0 0 0 28 100 82 99 30 33 46 59 55 54 96 86 95 92 20 8 36 25 96 93 6 36 86 12 41 30 100 100 100 100
100 100 98 100 13 5 5 5 0 5 5 2 0 0 0 0 0 0 4 0 54 100 93 100 91 53 44 34 36 90 100 100 100 84 100 90 37 97 15 8 69 39 16 88 100 100 100 100 100
100 100 100 100 100 72 98 7 4 4 2 5 0 0 0 0 0 0 5 3 100 100 34 100 100 74 63 54 25 13 94 100 100 100 91 55 64 95 100 98 99 66 100 39 100 100 100 100 100
93 100 100 100 100 100 100 100 100 22 11 2 0 0 0 0 0 3 5 42 96 5 4 86 98 61 47 100 100 75 70 79 100 100 73 98 48 45 100 88 80 54 91 60 100 100 100 100 100
100 100 100 100 100 100 100 100 99 100 59 0 0 0 0 0 0 3 5 5 45 45 8 16 37 47 12 92 100 100 64 100 100 100 92 91 85 34 88 53 100 100 98 100 100 100 100 100 100
25 88 100 100 100 100 100 100 100 49 22 5 0 0 0 0 4 1 4 48 18 100 42 65 5 40 30 53 100 100 100 100 100 100 100 100 84 40 75 100 100 87 79 100 100 100 100 100 100
5 5 10 100 100 100 95 82 5 9 26 5 0 0 0 0 5 4 10 100 92 30 5 62 22 10 67 100 100 100 100 100 99 100 100 96 68 100 100 95 100 100 100 100 100 100 100 100 100
60 33 100 100 100 100 69 21 5 4 2 0 0 9 64 100 61 67 46 61 6 38 36 95 35 3 85 100 100 100 100 100 100 73 38 97 90 95 85 99 100 100 100 100 100 100 100 100 100
81 100 100 100 62 5 0 0 5 5 0 0 0 4 5 13 62 83 4 3 2 8 12 17 5 5 81 100 100 100 100 100 100 98 100 98 75 100 100 100 100 100 100 100 100 100 100 100 100
100 100 100 100 15 4 5 5 5 4 3 5 5 5 4 7 100 24 0 0 1 5 5 14 5 29 97 100 100 100 100 100 99 100 100 100 100 100 100 100 100 100 100 100 100 100 100 100 100
100 99 16 68 69 35 2 1 1 1 4 5 6 9 23 7 18 4 0 3 5 5 5 5 12 63 59 95 100 98 100 100 100 100 100 100 100 100 100 100 100 100 100 100 100 100 100 100 100
100 100 100 100 100 38 1 5 4 5 5 76 81 87 43 6 5 2 1 1 5 4 5 56 71 96 53 76 100 99 100 100 100 100 100 100 100 100 100 99 100 100 100 100 100 100 100 100 100
100 100 100 100 100 20 5 4 5 10 5 9 56 100 22 5 5 0 11 5 5 5 8 52 60 100 92 92 100 72 20 70 29 84 100 100 100 100 100 100 100 100 100 100 100 100 100 100 100
100 100 100 100 84 28 30 8 27 82 79 54 5 5 5 5 11 0 5 100 70 9 5 93 99 100 100 98 68 86 42 89 97 100 100 100 100 100 100 100 100 100 100 100 100 100 100 100 100
100 100 100 100 100 100 44 5 36 5 99 100 81 5 5 26 6 0 5 87 100 16 25 62 100 100 100 100 85 56 100 42 50 60 100 100 99 100 96 95 100 100 100 100 100 100 100 100 100
100 100 100 100 85 72 100 100 78 92 100 100 87 5 4 4 0 0 1 5 100 100 89 87 79 100 100 100 97 100 100 32 24 95 100 100 100 100 100 100 100 100 100 100 100 100 100 100 100
100 100 98 100 82 89 100 100 100 54 76 94 8 21 9 5 0 0 3 89 100 100 75 87 99 100 100 100 100 100 53 22 15 30 95 93 89 100 100 100 100 100 100 100 100 100 100 100 100
100 100 100 100 100 95 100 100 100 69 89 85 91 100 90 5 1 0 3 0 54 85 77 100 100 100 100 100 100 100 43 15 35 66 100 100 96 98 97 100 100 100 100 100 100 100 100 100 100
100 100 100 100 100 100 100 100 100 100 100 100 73 42 0 3 4 6 3 0 0 3 54 100 100 100 100 100 100 84 51 37 49 66 100 100 70 87 87 100 100 100 100 100 100 100 100 100 100
100 100 100 100 100 100 82 84 81 82 100 100 51 4 0 0 5 70 6 5 38 94 100 100 100 100 100 100 100 89 100 64 64 65 100 97 49 88 97 100 100 100 100 100 100 100 100 100 100
100 100 100 100 100 97 96 100 100 100 100 7 0 0 0 1 6 46 100 93 98 86 100 100 100 100 100 100 100 99 100 90 76 73 86 90 54 81 100 100 100 100 100 100 100 100 100 100 100

GFSSGP_prec_cloud_108.txt.gz
Cloud_Cover
0 0 0 0 0 0 0 0 0 0 0 0 0 0 0 0 0 0 0 0 0 0 0 1 94 0 0 2 13 0 0 0 0 0 2 5 31 21 0 6 49 6 9 5 5 5 5 5 0
0 0 0 0 0 0 0 0 0 0 0 0 0 0 0 0 0 0 0 0 0 0 0 0 80 0 0 0 2 0 0 0 0 1 0 4 0 33 11 14 17 5 0 5 5 5 7 5 5
0 0 0 0 0 0 0 0 0 0 0 0 0 0 0 0 0 0 0 0 0 0 0 0 46 0 0 0 0 0 0 0 0 2 6 1 2 16 55 69 5 1 4 6 4 1 0 5 5
0 0 0 0 0 0 0 0 0 0 0 0 0 0 0 0 0 0 0 0 0 0 0 42 90 0 0 0 0 0 1 4 10 0 7 0 0 1 4 54 63 15 4 47 99 35 22 0 4
0 0 0 0 0 0 0 0 0 0 0 0 0 0 0 0 0 0 0 0 0 0 0 2 11 0 0 0 0 0 0 12 18 31 1 0 0 0 0 19 2 38 46 12 100 100 99 97 1
4 4 5 7 5 2 0 0 0 0 0 0 0 0 0 0 0 0 0 0 0 0 0 0 36 0 0 0 0 0 0 5 12 0 0 0 0 0 28 93 57 74 36 4 91 100 62 99 58
7 5 52 49 72 5 2 0 0 0 0 0 0 0 0 0 0 0 0 0 0 0 0 0 5 29 36 0 0 0 0 0 1 7 18 0 0 0 0 19 53 83 90 0 46 100 95 100 100
11 5 36 100 98 5 0 0 0 0 0 3 5 0 0 0 0 0 0 0 0 0 0 0 0 10 93 44 13 0 0 0 5 41 60 0 4 0 0 5 2 0 0 4 2 49 100 100 100
22 5 22 100 100 5 0 0 0 0 0 5 5 2 0 0 2 2 0 0 0 0 0 0 0 12 95 100 70 53 10 5 9 11 8 68 2 4 12 20 3 0 0 1 2 43 91 100 100
100 100 100 100 100 18 2 0 4 0 0 5 6 97 11 5 5 5 0 0 0 0 0 0 0 3 5 6 41 79 72 95 44 54 31 0 7 51 73 5 10 0 0 2 4 76 100 100 100
100 100 100 100 100 93 100 66 19 5 5 2 2 8 89 5 5 5 0 0 0 0 0 0 0 0 1 5 0 51 100 54 43 43 73 80 55 35 0 1 39 44 85 21 22 91 100 100 100
100 100 100 100 100 100 100 99 61 33 5 3 1 0 5 5 4 5 0 0 5 2 0 0 1 0 0 2 0 4 99 96 87 65 44 47 72 83 48 15 30 26 26 54 98 100 100 100 100
98 100 100 100 100 100 100 100 100 100 100 100 5 9 10 5 3 3 5 5 5 5 4 0 47 2 2 10 0 0 12 92 100 100 89 56 69 100 73 60 97 100 21 71 8 100 100 100 100
43 57 100 100 100 100 100 100 100 100 100 100 92 100 100 65 46 5 16 5 5 1 3 3 5 44 5 15 84 4 0 4 100 95 75 97 75 19 84 89 20 14 60 78 69 82 100 100 100
100 98 97 100 100 100 100 100 100 100 100 100 100 86 53 79 4 5 5 5 5 2 4 5 5 5 20 17 44 4 0 20 98 78 97 100 100 66 74 90 37 100 34 99 86 100 100 100 100
98 40 100 75 66 100 100 100 100 100 100 100 5 5 5 5 5 13 5 2 0 5 7 7 71 88 7 75 8 6 31 66 69 79 100 100 100 98 61 58 77 74 100 100 97 100 100 100 100
5 5 31 99 45 100 100 100 100 98 39 11 5 5 4 4 5 5 5 5 7 61 100 100 100 100 5 14 18 58 84 99 98 98 92 83 100 100 100 96 97 98 100 100 100 100 100 100 100
36 41 26 44 100 100 100 100 35 72 76 6 20 72 6 3 2 2 4 3 18 18 97 100 100 95 5 38 71 100 100 100 94 79 53 98 97 97 100 85 82 100 100 100 100 100 100 100 100
100 91 31 97 100 100 100 100 95 8 100 76 5 5 5 5 5 0 5 5 5 5 5 56 100 100 3 91 100 100 100 100 100 95 74 71 89 74 100 100 100 100 100 100 100 100 100 100 100
100 100 16 100 56 100 100 100 5 5 30 8 7 5 13 16 7 39 6 8 5 5 5 44 100 100 21 100 100 69 100 100 100 81 100 64 73 70 97 100 100 100 100 100 100 100 100 100 100
100 100 100 100 100 93 100 100 80 31 9 5 27 66 7 40 17 5 5 9 8 18 7 5 17 56 83 5 100 100 100 100 100 100 96 100 78 90 100 100 100 100 100 100 100 100 100 100 100
98 100 100 100 100 100 65 92 100 78 53 71 5 7 61 9 39 5 8 33 92 14 5 5 2 84 62 6 95 100 75 77 46 86 81 100 100 100 100 100 100 100 100 100 100 100 100 100 100
99 100 100 100 82 100 54 72 98 100 100 100 68 7 30 22 33 72 5 86 81 12 3 0 7 100 71 22 100 100 94 5 11 42 100 74 100 100 100 100 100 100 100 100 100 100 100 100 100
100 100 100 100 100 100 100 100 100 100 100 100 55 51 6 22 76 51 66 82 50 9 4 0 11 100 100 100 100 94 93 9 15 50 88 91 100 100 100 100 100 100 100 100 100 100 100 100 100
100 100 100 100 100 98 100 100 100 100 100 100 100 99 5 5 6 54 100 69 10 66 5 0 4 100 100 100 100 100 83 44 4 20 30 100 100 100 100 100 100 100 100 100 100 100 100 100 100
100 100 100 100 100 100 100 100 100 100 100 100 100 100 68 5 79 98 22 5 14 67 20 5 5 86 100 94 100 100 100 55 14 76 0 18 98 51 100 100 100 100 100 100 100 100 100 100 100
100 100 100 100 100 100 98 100 100 100 100 100 100 100 100 100 96 5 4 5 60 86 5 1 22 100 100 100 100 100 100 49 21 33 11 54 99 73 100 100 100 100 100 100 100 100 100 100 100
100 100 100 100 100 100 100 100 100 100 100 100 100 100 100 100 100 37 3 4 6 37 4 1 21 100 100 100 100 100 100 70 29 52 83 70 72 77 70 97 100 100 100 100 100 100 100 100 100
100 100 100 100 100 100 100 100 100 100 100 100 100 100 81 100 32 5 9 62 5 5 5 4 87 100 100 100 100 100 100 94 70 76 91 84 33 97 70 98 100 100 100 100 100 100 100 100 100
100 100 100 100 100 100 100 100 100 100 98 55 100 90 100 82 64 39 9 28 5 5 99 100 100 100 100 100 100 100 100 87 100 100 100 98 51 100 86 59 88 100 100 100 100 100 100 100 100

GFSSGP_prec_cloud_111.txt.gz
Cloud_Cover
0 0 0 0 0 0 0 0 0 0 0 0 0 0 0 0 3 23 0 0 0 0 0 1 0 0 0 0 0 0 0 2 0 0 0 0 5 1 5 1 12 14 54 5 3 5 1 7 0
0 0 0 0 0 0 0 0 0 0 0 0 0 0 0 0 0 0 0 0 0 0 0 0 0 0 0 0 0 0 0 1 0 0 4 2 0 1 5 3 4 34 8 2 0 2 7 0 4
0 0 0 0 0 0 0 0 0 0 0 0 0 0 0 0 0 0 0 0 0 0 0 0 0 0 0 0 0 0 0 0 0 0 0 0 0 0 0 5 11 28 1 5 5 8 0 0 0
0 0 0 0 0 0 0 0 0 0 0 0 0 0 0 0 0 0 0 0 0 0 0 40 0 0 0 0 0 0 0 0 0 0 0 0 0 0 0 4 4 5 98 9 31 96 58 79 7
4 5 2 5 5 0 0 0 0 0 0 0 0 0 0 0 0 0 0 0 0 0 0 0 0 0 0 0 0 2 22 6 8 12 28 2 0 0 0 0 0 1 0 95 7 12 61 100 99
5 4 5 5 10 1 0 0 0 0 0 0 0 0 0 0 0 0 0 0 0 0 0 0 14 0 0 0 0 0 18 31 45 12 56 0 0 0 0 0 0 71 100 38 3 5 18 97 100
5 3 4 5 96 16 20 4 4 0 0 0 2 2 0 0 0 0 0 0 0 0 0 0 0 1 39 0 0 0 0 19 38 47 21 0 12 86 43 4 14 0 12 33 11 5 18 100 100
99 86 4 5 100 100 11 1 3 1 0 0 3 0 0 0 0 0 0 0 0 0 0 0 0 0 0 1 6 0 0 0 4 11 2 0 6 6 7 100 96 24 4 2 4 3 37 100 100
17 5 82 100 67 100 16 0 0 0 5 0 1 1 2 1 0 0 0 0 0 0 5 5 0 0 0 0 3 54 26 1 10 21 87 67 1 4 0 39 20 6 3 1 5 4 3 34 100
86 42 99 100 100 50 49 0 0 0 5 0 4 5 5 5 0 0 0 0 0 0 5 16 0 0 0 0 2 6 48 9 5 5 13 11 12 40 96 96 0 0 2 3 4 26 40 13 100
46 89 99 100 88 98 85 5 7 4 8 5 60 80 100 11 5 0 5 0 1 0 5 53 4 0 0 0 0 0 74 49 75 99 57 54 69 40 34 15 14 7 9 14 21 39 1 51 97
0 33 99 100 100 100 100 20 5 4 20 64 100 98 97 18 4 0 0 0 0 5 26 8 1 0 0 0 0 0 9 1 6 97 2 5 16 28 18 24 16 2 21 21 22 24 64 80 95
6 5 4 96 100 100 100 100 100 63 26 77 100 72 90 20 5 4 4 40 23 51 14 6 1 1 5 5 2 0 0 75 28 91 92 14 93 59 33 10 27 4 23 55 61 42 88 76 82
7 5 0 3 93 100 100 100 100 100 100 100 100 100 100 100 100 60 68 100 100 100 71 5 5 4 4 0 5 2 4 4 21 97 36 8 3 34 2 33 29 22 10 19 39 12 80 55 100
2 33 20 5 2 97 100 100 100 100 100 100 100 100 100 100 100 100 100 100 100 94 5 66 5 5 29 5 5 5 5 2 17 70 100 76 64 95 98 56 20 19 26 30 26 63 95 98 100
6 5 5 82 5 6 100 100 100 100 100 100 100 100 100 100 100 100 100 100 99 7 61 35 5 5 6 37 47 40 5 5 5 16 20 98 76 63 79 27 66 16 27 20 80 78 64 64 100
5 3 0 12 39 95 81 100 100 100 100 100 100 100 100 100 100 100 100 100 78 85 68 32 27 5 11 93 100 100 9 4 5 10 72 100 61 100 100 24 86 73 66 79 78 100 100 98 100
4 60 69 37 94 100 7 92 100 100 100 100 91 96 100 100 100 100 100 19 91 30 49 30 25 94 38 48 24 7 46 24 11 8 30 43 93 92 91 79 94 90 73 100 100 100 100 100 100
34 100 100 100 100 100 73 41 100 100 100 100 95 5 11 5 8 61 49 80 100 18 9 8 17 48 15 6 5 5 67 80 88 5 28 25 62 66 89 100 100 100 100 96 100 100 100 100 100
93 100 30 62 100 100 100 83 100 100 100 98 5 88 52 71 34 14 16 21 69 12 5 5 49 17 54 12 5 17 98 100 100 52 22 23 75 100 96 99 100 100 99 100 100 100 100 100 100
6 49 23 100 100 99 84 11 100 100 99 98 100 100 100 100 100 93 8 5 7 15 70 14 70 97 100 93 41 94 100 100 100 100 62 91 98 100 100 94 95 100 100 100 100 100 100 100 100
100 42 100 100 100 77 100 82 100 100 100 100 74 100 100 100 72 44 5 5 5 7 92 94 82 99 99 92 6 99 76 100 100 100 99 100 100 59 98 84 93 100 100 100 100 100 100 100 100
100 100 100 100 100 100 100 70 100 100 100 100 100 98 100 100 100 88 66 5 5 11 92 100 78 100 100 100 63 38 100 96 100 93 80 100 100 11 100 89 100 100 100 100 82 100 100 100 100
100 100 100 100 100 100 78 100 75 100 100 100 100 97 100 100 100 100 100 60 5 6 73 100 100 92 90 91 12 30 98 88 100 100 72 100 100 99 81 100 100 100 100 100 87 100 100 100 100
100 100 100 100 100 7 93 98 100 100 100 100 100 100 100 98 100 100 100 56 5 5 31 67 80 100 100 7 12 64 100 60 98 100 100 100 99 82 66 100 100 100 100 100 100 100 100 100 100
100 100 100 100 100 79 100 97 100 100 100 100 100 100 100 100 100 100 100 77 14 53 28 85 100 100 22 20 56 100 100 35 100 100 99 70 46 87 50 100 100 98 100 100 100 100 100 100 100
100 100 100 100 100 100 100 100 100 100 100 100 100 100 100 100 100 100 100 100 84 68 100 100 100 67 8 10 96 100 78 99 100 100 100 61 25 18 61 100 100 100 87 99 100 100 100 100 100
100 100 100 100 100 100 100 100 100 100 100 100 100 100 100 100 100 100 86 100 5 49 96 88 29 45 60 81 93 91 87 100 100 100 89 43 8 8 100 100 100 100 100 100 100 100 100 100 100
100 100 100 100 100 100 100 100 100 100 100 100 100 100 100 100 100 100 100 100 100 100 100 100 48 10 43 50 89 100 100 100 100 100 92 42 19 99 100 99 100 100 100 100 100 100 100 100 100
100 100 100 100 100 100 100 100 100 100 100 100 100 100 100 100 100 100 100 100 93 41 100 90 87 99 100 100 100 100 100 100 100 100 51 31 20 99 93 89 77 100 100 100 100 100 100 100 100

GFSSGP_prec_cloud_114.txt.gz
Cloud_Cover
0 0 0 0 0 0 0 0 0 0 0 0 0 0 0 0 2 1 0 0 0 0 0 0 0 0 0 0 0 0 4 0 0 0 0 0 0 0 0 0 0 0 81 5 37 19 13 13 0
0 0 0 0 0 0 0 3 2 0 0 0 0 0 0 0 0 0 0 0 0 0 0 0 0 0 0 0 0 0 0 0 0 0 0 0 1 0 0 0 0 0 0 0 25 16 6 3 0
0 0 0 0 0 0 3 5 49 0 0 0 0 0 0 0 0 0 0 0 0 0 0 0 0 0 0 0 0 0 0 34 0 0 0 0 0 0 0 0 0 1 2 0 2 2 1 4 10
0 0 0 0 0 3 2 5 0 0 0 0 0 0 0 0 0 0 0 0 0 0 0 17 0 0 0 0 0 0 0 95 50 0 0 0 0 0 0 0 4 0 0 5 26 49 99 100 100
0 0 0 0 2 5 5 5 0 0 0 0 0 0 0 0 0 0 0 0 0 0 0 0 0 0 0 0 0 0 0 4 0 0 0 0 0 0 0 0 0 0 0 0 19 96 5 5 99
0 4 3 5 0 5 5 5 0 0 0 0 0 0 0 0 0 0 0 0 0 0 0 0 4 0 0 0 0 2 12 13 3 0 0 0 0 0 97 41 0 0 0 0 4 100 5 5 5
0 0 48 5 5 22 47 7 0 4 5 0 1 0 0 0 0 2 0 0 0 0 0 0 0 0 0 0 0 0 10 17 92 5 42 0 0 0 0 76 95 97 100 36 8 70 7 34 38
0 0 0 50 100 100 100 6 0 5 5 2 5 5 1 0 63 0 0 0 0 0 0 0 0 0 3 0 7 0 0 8 0 0 100 0 1 0 0 0 66 100 100 99 9 1 5 5 100
18 0 0 0 28 100 100 100 4 4 1 5 4 88 0 0 38 0 0 0 0 0 0 0 0 2 5 2 3 39 16 1 9 15 34 74 0 0 0 0 1 0 3 5 4 2 5 5 35
43 2 5 1 2 25 100 100 94 27 5 5 3 14 2 0 0 0 2 0 0 0 0 0 0 0 0 0 3 0 0 3 14 1 0 0 0 0 0 0 0 1 2 5 5 5 6 2 7
3 1 18 12 4 4 5 24 85 93 98 47 5 17 5 5 5 5 0 3 0 0 0 0 0 4 3 0 0 1 5 0 0 0 0 0 0 0 0 0 6 81 100 100 27 70 7 0 0
4 5 4 5 4 4 0 5 5 1 48 83 87 74 100 100 100 5 99 85 0 0 0 5 5 40 24 5 1 5 6 2 0 0 0 0 0 0 0 0 0 9 4 5 1 0 0 0 3
2 4 0 0 2 5 4 0 5 2 30 92 100 55 100 100 100 86 65 67 4 25 82 24 18 100 100 5 2 7 5 3 0 0 0 0 0 0 0 0 0 0 0 0 0 3 0 75 30
37 5 5 4 0 3 6 14 0 2 8 81 67 94 100 100 100 100 100 100 100 100 100 93 95 100 100 30 4 6 5 5 0 0 0 0 0 0 0 0 2 0 1 4 5 5 4 91 37
0 5 43 4 5 0 5 6 30 16 5 78 100 100 14 12 100 100 100 100 100 100 90 5 100 100 80 5 5 33 27 5 5 2 2 5 0 0 0 0 0 0 0 8 5 7 5 28 98
0 2 5 64 5 5 90 0 98 99 9 5 54 100 100 100 54 100 100 88 100 100 100 28 61 100 33 5 52 5 5 5 5 95 100 79 2 0 0 0 0 0 0 4 2 4 5 48 100
0 0 0 73 33 12 79 14 100 100 56 5 5 12 100 100 100 100 100 100 100 100 100 100 100 100 58 8 91 5 24 21 3 5 66 5 97 16 50 1 1 0 0 1 13 38 1 56 100
0 0 2 2 5 96 100 0 100 76 65 13 53 32 97 100 100 100 100 100 100 100 100 100 100 85 29 43 39 6 6 8 0 5 23 24 96 75 41 80 0 0 20 49 96 90 58 100 100
0 0 5 0 1 90 100 10 97 96 80 85 81 100 98 100 95 100 100 100 100 100 100 100 100 55 28 72 14 17 5 27 0 2 14 61 88 100 89 100 1 25 54 92 58 99 100 100 100
0 8 69 90 98 100 94 90 86 100 95 100 100 100 100 100 49 99 100 100 100 99 100 100 65 88 90 90 39 15 32 24 14 3 36 5 5 17 99 50 0 28 100 98 100 100 100 100 100
0 4 37 4 100 99 38 60 50 79 68 100 100 100 100 100 88 89 18 5 45 100 51 9 94 17 21 69 98 46 51 14 54 54 31 100 81 71 100 5 42 30 100 100 98 100 83 100 100
0 1 4 99 100 88 39 28 67 4 43 75 100 100 100 100 100 100 94 5 77 100 74 100 72 90 66 99 78 100 96 80 67 19 78 86 100 100 100 89 64 98 64 100 100 100 82 90 100
14 76 69 100 97 33 59 62 0 15 88 38 100 100 100 100 100 100 100 47 5 94 100 100 97 21 63 60 68 99 100 67 99 35 96 100 100 100 100 100 97 100 100 73 74 100 98 100 100
61 100 100 99 65 82 1 88 0 35 80 74 100 95 100 99 97 100 100 100 100 98 68 93 37 65 48 43 74 98 100 100 98 44 40 100 100 100 100 100 100 100 100 100 100 70 92 100 100
100 100 100 99 100 75 100 100 3 93 97 95 100 100 100 94 100 100 100 100 100 13 30 38 100 100 80 56 64 50 98 100 100 100 16 100 100 100 100 99 100 99 100 100 100 100 99 98 100
97 7 79 100 100 100 100 58 50 100 100 100 100 100 94 99 100 100 100 100 100 95 97 90 100 100 64 31 18 20 100 100 100 96 85 99 100 100 100 100 84 98 100 100 100 100 100 100 100
91 27 100 100 100 100 100 100 80 100 100 100 100 85 100 100 100 100 100 100 100 100 58 78 99 100 93 38 5 93 100 100 100 93 77 100 100 100 100 98 100 94 82 100 100 100 100 100 100
96 100 100 100 100 100 100 100 100 100 96 99 100 100 100 100 98 81 99 100 100 100 100 100 100 85 29 10 100 100 100 100 87 13 100 100 100 100 72 65 100 93 100 100 100 100 100 100 100
100 100 100 100 100 100 100 100 100 100 100 100 100 100 83 94 100 100 100 100 100 100 100 86 94 98 100 66 5 93 44 16 10 28 100 100 100 100 36 53 93 100 100 100 100 100 100 100 100
100 100 100 100 100 100 100 100 100 100 100 100 100 99 100 100 100 100 100 100 100 100 100 100 100 100 100 100 100 94 93 12 14 82 100 100 98 65 99 43 97 100 100 100 100 100 100 100 100

GFSSGP_prec_cloud_117.txt.gz
Cloud_Cover
0 0 0 0 0 0 0 0 0 4 0 0 0 0 0 0 0 0 0 0 0 0 4 0 0 0 0 0 0 0 0 0 0 0 0 0 0 0 0 0 0 0 0 0 0 0 1 0 0
5 1 0 0 0 0 0 5 5 1 0 0 0 0 0 0 0 0 0 0 0 0 0 0 0 0 0 0 0 0 0 0 0 0 0 0 0 0 2 0 0 0 9 70 0 0 0 0 0
2 0 0 0 0 0 0 0 0 0 0 0 0 0 0 0 0 0 0 0 0 0 0 0 0 0 0 0 0 0 0 0 0 0 0 0 0 0 0 0 0 0 4 0 0 0 0 2 4
0 0 0 0 0 0 1 4 0 0 0 0 0 0 0 0 0 0 0 0 0 0 0 0 0 0 0 0 0 0 8 74 0 0 0 0 0 0 0 0 0 0 0 0 2 3 5 9 74
0 0 0 0 0 0 4 47 0 0 0 0 0 0 0 0 0 0 0 0 0 0 0 0 0 0 0 9 9 0 60 89 0 0 0 0 0 0 0 0 0 1 1 2 2 0 7 26 5
0 0 0 0 0 0 4 94 79 0 0 0 0 3 0 0 0 0 0 0 0 0 0 0 0 0 0 4 6 4 0 0 0 0 0 0 0 0 0 0 0 0 8 87 87 100 84 57 30
0 0 0 0 0 0 0 50 40 4 0 0 4 5 0 0 0 0 5 0 0 0 0 25 6 0 0 0 12 16 17 10 0 0 0 0 0 0 0 0 0 0 1 18 99 100 99 5 20
0 0 0 0 0 0 0 0 3 5 0 3 3 12 2 0 0 5 6 0 0 0 0 24 22 21 21 16 10 22 22 12 0 1 44 2 0 0 0 0 0 0 1 14 98 100 96 6 5
99 34 0 3 5 13 5 1 0 2 6 75 65 5 20 0 3 89 3 0 4 1 0 2 23 12 15 19 8 12 20 12 0 3 98 71 18 0 0 0 0 0 0 1 0 4 5 5 5
96 86 3 4 4 22 92 51 4 0 1 50 100 84 6 5 0 39 12 0 5 0 0 0 5 3 4 1 17 30 45 99 100 38 26 33 19 4 0 0 0 0 0 0 4 4 4 8 10
3 1 0 0 0 0 1 5 40 0 0 0 92 9 100 82 5 3 96 19 5 1 0 11 100 100 5 5 16 28 34 52 48 23 28 10 8 3 0 1 1 1 0 0 20 25 39 6 12
5 1 2 5 5 5 3 5 0 0 0 3 14 5 33 100 100 97 19 100 96 2 0 5 9 5 72 100 96 20 11 89 70 5 8 15 24 1 0 0 1 2 0 12 27 39 15 6 10
25 88 49 5 6 5 9 16 16 4 0 3 2 0 0 47 98 100 100 85 69 16 1 76 99 77 100 100 100 80 5 51 95 5 5 5 4 2 0 1 0 0 0 0 19 8 0 4 11
100 100 100 70 11 64 24 6 6 4 5 0 0 0 0 4 14 100 100 53 2 7 64 31 100 94 100 100 44 31 5 21 41 75 19 0 0 0 3 5 2 0 0 0 0 0 1 10 6
50 86 100 100 100 2 6 2 0 100 70 5 0 0 0 0 0 97 100 100 100 72 98 100 100 98 97 9 35 58 58 100 100 72 56 1 0 4 0 3 0 0 0 0 17 12 10 16 18
13 0 0 97 100 0 90 16 5 70 90 98 64 0 0 0 3 5 89 100 100 100 99 5 85 100 100 70 6 58 100 100 100 38 5 5 3 0 0 0 0 0 0 0 0 38 27 25 40
0 0 0 29 4 0 27 1 0 5 5 87 24 2 0 0 0 2 63 100 100 100 100 100 5 85 100 100 58 100 100 100 42 12 2 0 0 0 6 4 1 0 0 1 1 27 26 67 88
0 0 0 0 1 0 31 18 0 0 5 1 8 5 4 0 4 1 12 93 100 100 100 100 24 98 100 100 100 100 100 47 17 5 5 4 0 0 2 36 30 0 6 14 18 12 57 86 100
0 18 0 0 0 0 0 0 0 5 98 5 5 5 4 0 0 59 65 12 47 100 100 100 100 100 100 100 100 100 97 5 5 7 5 0 0 0 87 100 100 97 7 4 18 97 100 99 90
6 93 38 0 0 39 30 77 0 81 14 2 5 5 5 1 5 9 100 14 17 12 63 100 100 100 100 100 100 56 5 5 5 5 10 5 4 5 20 100 100 100 49 100 100 100 98 100 100
6 100 41 2 10 100 98 30 0 4 100 23 5 3 5 5 25 11 16 84 100 45 17 72 100 100 100 100 100 100 80 100 89 56 100 56 13 8 5 77 100 100 99 72 100 100 100 100 100
78 97 81 4 99 100 68 76 7 15 42 56 55 84 91 96 100 99 53 6 100 84 77 100 100 100 100 100 100 100 100 100 99 5 17 48 34 23 73 53 100 100 96 8 67 100 100 100 100
3 4 0 28 100 100 100 95 6 8 47 2 3 5 100 100 100 100 100 15 100 100 34 53 100 97 95 11 97 100 100 100 97 5 5 72 100 80 92 100 95 96 43 26 92 83 100 100 100
1 1 100 84 100 99 30 27 14 21 0 2 3 48 100 100 100 100 100 72 5 27 8 69 88 100 100 100 100 97 100 100 100 63 5 46 98 99 100 100 100 100 86 97 98 92 100 71 99
100 100 100 100 100 24 61 52 0 0 0 5 40 99 100 100 78 100 100 12 35 96 100 100 100 100 100 75 100 94 100 100 100 54 39 82 100 100 100 100 100 100 100 100 100 100 100 100 96
100 67 72 100 44 5 49 0 0 2 5 59 98 100 100 93 100 100 38 77 100 34 100 100 100 100 100 94 72 25 14 82 100 57 100 100 100 100 100 100 100 100 100 100 100 100 100 100 100
1 87 100 88 55 1 43 65 100 79 100 92 7 100 100 100 100 67 18 99 100 80 100 100 100 100 100 100 100 100 49 98 100 7 11 93 100 100 100 100 100 100 100 100 100 100 100 100 100
51 18 2 7 31 22 92 100 100 100 100 100 97 100 100 83 93 14 86 42 100 100 99 98 100 100 100 100 100 28 39 67 65 6 35 100 100 100 100 100 100 100 100 100 100 100 100 100 100
100 38 4 98 100 100 100 100 100 100 100 100 92 100 100 98 16 80 92 100 100 100 100 100 100 100 100 100 100 95 90 96 72 98 92 100 100 64 100 91 94 100 100 100 100 100 100 100 100
40 100 96 100 100 100 100 100 100 100 100 100 100 100 100 100 100 100 100 94 100 100 100 100 92 100 100 100 100 100 100 100 100 100 100 87 91 100 100 98 21 79 100 100 100 100 100 100 100

GFSSGP_prec_cloud_120.txt.gz
Cloud_Cover
2 3 0 0 0 0 0 0 0 0 0 0 0 0 0 0 0 0 0 0 0 0 0 0 0 0 0 0 0 0 0 0 0 0 0 0 0 0 0 0 0 0 0 0 0 0 0 0 0
0 0 0 0 0 0 39 4 0 0 0 0 0 0 0 0 0 0 0 0 0 1 0 0 0 0 0 0 0 0 0 0 0 0 0 0 0 0 0 0 0 0 0 0 0 0 0 0 0
2 2 2 0 0 0 0 0 0 0 0 0 0 0 0 0 0 0 0 0 0 0 0 0 0 0 0 0 0 1 10 1 0 0 0 0 0 0 0 0 0 0 0 0 0 9 0 0 0
0 0 0 0 0 0 0 0 0 0 0 0 0 0 0 0 0 0 0 0 0 0 0 0 0 0 0 0 0 24 22 2 0 0 0 0 0 0 0 0 0 0 0 0 1 1 0 1 5
0 0 0 0 0 0 0 0 0 0 0 0 0 0 0 0 0 0 0 0 0 0 0 1 0 0 0 6 17 20 9 4 0 0 0 0 0 0 0 0 0 0 0 0 0 52 61 27 45
0 0 0 0 0 0 0 0 0 0 0 0 0 0 0 1 0 0 0 0 0 0 21 12 0 2 10 14 10 0 0 2 0 0 0 0 0 0 0 0 0 0 0 0 0 3 52 12 88
0 0 0 0 0 0 0 0 0 0 0 0 0 0 2 0 5 2 0 0 0 0 19 33 24 32 31 24 12 0 0 2 3 0 0 0 0 0 0 0 0 0 0 0 0 0 60 26 14
0 0 2 0 0 0 0 0 3 0 0 0 0 0 0 5 5 5 8 0 0 5 18 42 40 48 66 60 28 22 20 17 10 3 0 0 0 0 0 0 0 0 0 0 0 0 0 63 100
5 0 0 3 49 58 93 43 3 0 0 0 0 0 5 8 3 94 52 34 26 17 23 40 44 40 47 73 65 44 35 27 22 12 15 22 11 0 0 0 0 0 0 0 0 0 0 1 3
19 2 5 32 83 52 58 23 82 4 0 0 0 0 1 56 32 47 100 28 18 42 43 20 38 39 34 41 96 100 100 71 9 20 34 43 31 8 0 0 0 0 0 0 0 0 0 11 27
5 2 4 4 95 98 92 98 44 0 0 0 0 0 0 0 76 100 100 100 5 0 8 28 30 33 25 56 100 100 100 100 100 65 6 35 48 31 20 19 3 3 0 0 1 25 30 15 21
8 7 4 9 54 92 100 92 100 39 4 0 0 0 0 0 0 99 100 100 100 12 3 3 6 24 53 77 80 100 100 100 100 100 41 46 69 51 34 31 15 9 13 19 20 30 15 3 4
99 97 92 82 22 100 100 82 91 37 9 5 4 0 0 0 0 8 100 100 100 97 70 2 0 0 5 85 100 100 100 100 89 53 100 43 47 61 22 20 20 14 7 12 29 19 21 19 13
98 54 75 100 95 100 100 100 100 32 98 5 2 4 0 0 1 0 12 100 100 100 74 5 5 5 1 12 100 100 100 100 100 100 100 99 100 100 15 10 16 17 0 14 9 10 19 27 26
73 5 2 16 100 100 72 13 54 99 100 66 5 0 5 5 1 0 3 2 11 46 100 86 4 0 6 70 100 100 100 100 86 100 100 100 100 86 5 7 14 9 5 5 22 16 47 32 28
1 0 0 57 86 99 100 0 5 98 94 100 74 5 4 4 0 4 0 4 5 2 93 100 100 25 96 100 100 100 100 15 76 100 100 100 100 11 8 7 7 5 12 9 17 19 48 19 36
11 4 1 0 1 2 19 0 5 5 5 7 23 5 5 1 0 1 0 0 0 0 2 50 88 100 100 100 79 2 27 100 100 100 100 100 96 86 5 6 11 2 10 11 20 45 14 63 79
0 0 0 0 0 0 0 0 0 0 0 0 2 2 5 42 2 0 0 2 3 0 0 0 9 100 100 100 96 2 12 100 100 100 100 100 96 38 5 11 4 9 10 30 36 36 46 67 100
0 0 0 0 0 0 0 0 0 0 0 0 0 2 25 58 61 41 4 0 5 3 0 0 5 98 100 100 100 99 5 62 100 100 100 100 92 7 5 6 81 100 100 21 29 66 100 100 100
5 2 2 1 0 0 0 0 0 0 0 0 0 0 0 61 100 100 100 56 5 43 5 5 6 98 100 100 100 100 88 100 100 100 100 100 48 97 5 5 27 54 100 100 74 98 100 100 100
9 0 3 15 0 0 68 1 0 0 0 0 4 0 0 3 99 100 100 74 60 37 66 93 5 73 100 100 100 100 100 100 100 100 100 100 100 90 8 8 12 91 100 100 100 98 100 100 100
100 97 5 0 2 100 87 42 0 0 0 2 5 0 0 0 82 100 100 100 100 100 19 78 99 54 47 54 100 100 100 100 100 85 22 92 100 8 40 83 84 93 100 100 100 100 100 100 100
50 100 11 4 2 100 100 100 0 5 2 5 4 0 4 14 100 100 100 84 100 79 5 24 97 100 100 100 100 100 100 100 100 100 5 100 16 5 68 100 100 100 95 100 100 100 99 90 100
33 89 88 100 85 100 99 86 0 83 4 6 5 5 69 100 100 100 78 12 7 85 90 100 100 100 100 100 100 80 100 100 100 92 95 100 5 72 89 99 84 100 99 100 100 100 100 100 100
70 100 100 100 100 67 95 89 0 5 13 90 100 100 100 100 100 95 78 90 96 96 100 100 100 100 100 100 98 100 100 100 100 100 100 100 38 100 100 46 92 87 100 100 100 100 100 100 100
97 4 1 8 46 93 100 57 0 36 100 79 62 99 100 100 75 96 59 5 8 5 10 88 100 100 100 100 99 43 100 98 100 100 100 99 98 100 100 97 97 99 100 100 100 100 100 100 100
14 8 100 100 99 100 29 4 7 0 10 45 58 20 86 30 100 11 13 72 96 100 100 100 100 100 100 100 100 99 100 26 98 97 39 61 100 100 88 60 100 100 100 100 100 100 100 100 100
90 6 100 100 100 87 49 1 18 92 87 29 17 4 2 3 55 31 33 74 78 98 100 95 92 97 100 100 98 100 66 100 100 100 100 67 87 100 67 39 100 100 100 100 100 100 100 100 100
98 30 100 100 100 94 85 99 100 92 100 100 100 47 5 5 45 67 98 94 92 92 98 100 58 77 100 100 100 96 92 100 100 100 100 100 78 98 100 100 94 100 100 100 100 100 100 100 100
100 91 82 97 99 100 100 100 100 100 100 97 100 100 99 100 100 100 100 100 97 100 100 100 74 100 100 100 100 100 100 96 100 100 100 64 100 100 100 100 100 100 100 100 100 100 100 100 100

GFSSGP_prec_cloud_126.txt.gz
Cloud_Cover
96 100 100 100 100 100 100 87 5 0 4 4 5 3 9 33 5 47 14 3 0 0 3 0 5 0 0 0 0 0 0 0 0 0 0 0 0 5 11 0 0 0 0 0 0 0 0 0 0
8 56 88 100 100 100 100 67 40 80 73 34 20 4 1 10 2 6 2 2 4 2 5 11 0 5 0 0 0 0 0 0 0 0 0 0 0 12 8 0 0 0 0 0 0 0 0 0 0
49 62 12 59 93 46 14 4 5 4 5 5 1 1 3 0 0 1 0 0 0 0 0 20 0 0 0 0 0 0 0 0 0 0 0 0 0 2 6 0 0 0 0 0 0 0 0 0 0
0 0 0 0 2 2 0 0 0 0 0 0 0 0 0 0 0 0 0 0 0 0 6 34 2 0 2 0 0 0 0 0 0 0 0 0 1 0 0 0 0 0 0 0 0 0 0 0 2
0 0 0 0 0 0 0 0 0 0 0 0 0 0 0 0 0 0 0 0 0 15 9 36 1 11 2 0 6 4 0 0 0 0 0 0 0 0 0 0 0 0 0 0 0 0 0 2 4
0 0 0 0 0 0 0 0 0 0 0 0 0 0 0 0 0 0 0 0 0 21 16 8 0 3 2 16 29 7 0 0 0 0 0 0 0 0 0 0 0 0 0 0 0 0 0 0 0
5 0 0 0 0 1 46 2 0 0 0 0 0 0 0 0 0 0 0 4 13 22 30 21 7 0 0 22 46 21 1 0 0 0 0 0 0 0 0 0 0 0 0 0 0 0 0 0 0
19 2 0 1 18 31 100 97 2 0 0 0 0 0 0 0 0 12 16 25 41 54 38 61 45 33 33 65 51 32 10 2 5 5 0 0 0 0 0 0 0 0 0 0 0 0 0 0 6
32 5 2 5 36 38 100 100 100 37 0 0 0 0 0 0 0 0 4 42 89 93 99 100 93 39 92 99 80 34 28 9 8 5 0 10 1 0 5 5 0 0 0 0 0 0 0 0 14
1 0 4 5 9 17 100 100 100 74 30 5 5 3 3 5 9 78 36 5 12 68 100 92 78 100 100 100 98 60 87 91 68 59 33 33 24 15 64 5 3 0 0 0 1 0 0 6 82
0 0 4 0 0 2 0 6 77 91 4 5 73 3 0 4 4 24 37 5 21 6 51 81 99 100 100 100 100 100 100 100 100 100 100 63 41 34 29 36 25 14 2 14 10 26 26 35 100
4 5 5 5 25 67 5 5 100 92 63 94 100 100 5 1 0 4 5 2 4 4 16 76 100 100 100 88 100 100 100 100 100 100 100 100 99 83 99 39 35 26 26 16 15 22 22 28 75
38 9 9 5 2 5 4 5 5 97 100 100 100 20 8 3 5 5 3 0 3 3 9 75 100 100 100 97 100 100 100 100 100 100 100 100 100 99 88 65 40 34 31 18 26 14 25 33 37
18 4 10 69 99 20 5 37 5 98 100 100 57 100 83 25 5 5 5 0 4 1 95 28 82 82 100 100 86 100 100 100 100 100 100 99 100 100 100 97 45 38 29 28 27 13 21 30 33
60 26 97 84 23 96 17 5 98 100 99 100 100 100 22 5 15 42 23 4 5 5 7 100 23 43 68 97 100 100 100 100 100 100 100 100 100 100 100 100 70 33 34 28 30 22 15 26 28
100 100 95 86 87 92 41 2 85 1 4 84 100 100 100 100 66 68 100 91 7 5 10 63 3 15 23 20 46 68 99 100 100 100 100 100 100 100 100 100 100 41 36 56 34 36 38 28 68
0 0 0 1 5 0 0 0 12 0 0 1 54 82 100 100 100 100 100 100 100 98 94 100 53 1 4 3 9 12 52 62 64 68 96 100 100 97 100 55 75 39 58 67 34 68 18 98 97
0 0 0 4 1 0 0 0 0 0 0 0 1 14 64 100 100 100 100 100 100 58 49 100 98 5 2 4 9 37 55 26 42 14 27 58 94 95 68 53 62 52 100 100 55 22 88 95 99
2 2 4 5 0 0 0 0 0 0 0 0 0 0 5 5 91 100 100 100 100 78 5 98 100 15 15 5 32 74 56 81 75 38 9 16 72 58 68 89 48 100 100 100 91 100 100 100 100
0 0 0 0 0 2 0 2 0 0 0 0 0 0 0 3 0 2 5 77 100 100 34 6 83 100 88 2 5 5 5 57 61 92 67 100 76 44 92 88 97 100 100 95 100 100 100 100 100
4 3 2 38 2 0 4 32 0 0 0 0 0 0 0 0 0 0 3 14 84 100 99 32 54 73 100 65 35 94 52 61 100 100 97 63 100 74 33 85 86 100 100 100 100 86 100 100 100
0 11 85 21 72 99 19 76 0 0 0 0 0 0 0 0 0 0 3 100 100 99 100 92 44 85 100 76 8 79 23 72 88 80 81 99 100 100 100 100 98 100 100 100 100 99 45 100 100
0 6 99 65 100 83 0 77 0 0 0 0 0 0 0 0 0 0 0 100 100 100 98 100 100 100 100 100 98 100 29 48 44 42 99 100 100 100 100 100 100 100 100 100 100 82 89 100 100
5 8 5 42 64 92 79 100 38 64 100 99 80 4 0 0 0 0 0 90 100 9 33 83 100 100 100 86 94 100 100 47 52 73 78 100 100 100 100 100 100 83 100 100 100 100 100 100 100
6 36 36 5 38 44 100 91 58 93 100 86 100 100 100 96 53 21 3 44 8 77 70 89 100 100 92 81 100 100 86 98 100 100 100 100 100 100 100 100 100 100 100 100 100 100 100 100 100
6 93 100 84 22 10 99 100 100 99 100 100 100 100 100 100 90 58 33 85 84 100 100 81 100 100 100 100 99 59 96 100 100 100 100 100 100 100 100 100 100 100 100 100 99 100 100 100 76
67 97 44 95 100 100 100 100 100 100 100 100 100 100 100 100 100 99 88 100 100 100 87 90 93 53 100 100 100 100 93 100 100 100 100 100 100 100 100 100 100 100 100 100 100 100 93 76 98
76 91 89 79 98 100 100 100 100 100 100 100 100 100 100 100 100 100 100 100 100 87 29 39 79 100 100 100 100 100 100 100 100 100 100 100 100 100 100 100 100 100 100 100 100 100 92 99 100
65 92 93 98 100 100 100 100 100 100 100 100 100 100 100 100 100 100 100 100 100 87 87 94 75 88 100 77 51 87 100 100 100 100 100 100 100 100 100 100 98 100 100 100 100 100 100 100 100
86 98 88 100 100 100 100 100 100 100 100 100 100 100 100 100 100 100 100 100 100 100 100 100 100 100 100 100 100 100 100 100 100 100 100 52 95 100 100 100 99 100 100 100 100 100 100 100 100

GFSSGP_prec_cloud_129.txt.gz
Cloud_Cover
99 100 100 100 100 100 100 94 17 6 9 9 54 96 67 5 3 3 3 0 0 0 0 3 5 0 1 0 3 8 19 19 1 0 0 0 0 0 0 0 0 0 0 0 0 0 0 0 0
5 71 60 91 100 100 100 90 72 63 88 76 47 68 67 62 29 53 50 5 0 0 0 0 13 0 0 0 0 0 6 7 0 0 0 0 0 0 2 0 0 0 0 0 0 0 0 0 0
0 0 19 97 88 73 21 2 2 17 76 78 38 35 7 5 1 0 0 0 0 0 0 0 6 0 0 0 0 0 0 0 0 0 0 0 6 0 0 0 0 0 0 0 0 0 0 0 0
0 0 0 0 14 22 15 5 5 0 4 3 1 0 0 0 0 0 0 0 0 0 0 24 5 0 0 0 0 0 0 0 0 0 0 0 0 0 0 0 0 0 0 0 0 0 0 0 0
0 0 0 0 0 0 0 0 0 0 0 0 0 0 0 0 0 0 0 0 0 0 0 4 0 0 0 0 0 0 0 0 0 0 0 1 5 3 0 0 0 0 0 0 0 0 0 0 2
0 0 0 0 0 0 0 0 0 0 0 0 0 0 0 0 0 0 3 0 0 12 27 3 12 0 0 0 0 0 0 0 0 0 0 0 2 0 0 0 0 0 0 0 0 0 0 0 0
4 0 0 4 61 4 0 0 0 0 0 0 0 0 0 0 0 0 8 28 3 28 23 32 17 14 20 5 6 0 0 0 0 0 0 0 0 0 0 0 0 0 0 0 0 0 0 0 0
4 4 3 6 99 89 5 0 0 0 0 0 0 0 0 0 0 0 0 12 34 25 20 33 84 80 42 37 28 0 0 0 0 0 0 0 3 0 0 0 0 0 0 0 0 0 0 0 0
0 0 0 10 30 58 47 80 87 89 7 9 5 5 4 0 0 0 0 4 63 83 26 28 42 46 63 99 65 41 8 0 4 2 1 58 3 1 5 3 0 2 0 0 0 0 0 0 5
0 0 2 0 0 5 16 91 100 31 75 53 100 10 0 5 9 5 2 3 6 60 51 34 31 14 26 55 100 89 38 2 0 5 5 5 5 2 0 2 0 5 1 0 0 0 2 0 0
5 5 2 2 5 4 5 9 100 97 74 70 100 99 4 0 0 0 4 0 5 26 100 83 37 29 2 16 100 100 100 85 56 35 22 23 8 8 5 22 14 9 9 0 12 11 0 0 0
1 3 0 0 0 0 0 0 54 27 25 100 100 100 16 5 0 0 0 0 1 53 73 100 95 27 24 39 98 100 83 99 91 99 100 79 29 44 27 4 41 39 27 23 12 3 0 0 28
0 0 0 0 0 1 0 6 63 96 100 100 100 100 100 10 6 5 1 0 0 1 7 95 100 68 100 97 93 100 100 100 100 100 100 88 75 84 72 28 33 50 51 94 22 0 0 0 0
3 0 4 0 0 0 1 14 5 12 76 99 74 55 99 100 81 24 17 5 4 2 10 85 100 100 100 100 81 100 100 100 100 100 100 100 100 80 100 84 41 70 62 36 27 5 5 0 0
0 5 5 6 21 4 4 25 39 4 5 10 100 93 100 100 100 87 41 98 64 48 5 5 21 100 100 100 77 82 100 100 100 100 100 100 100 98 100 100 82 47 79 53 37 41 18 12 10
4 5 3 1 1 0 0 1 99 100 100 100 100 100 100 100 43 100 100 99 100 100 100 100 22 100 100 100 99 24 64 90 100 100 100 100 100 100 100 100 100 62 76 76 71 55 55 33 22
5 5 5 5 5 0 0 0 0 9 4 0 0 85 100 100 98 1 29 95 100 100 100 100 100 100 100 96 100 93 88 92 89 100 100 100 100 100 100 100 100 58 53 79 76 87 71 100 63
5 5 5 5 3 0 0 0 0 0 0 0 3 3 3 19 96 85 1 0 32 100 100 100 100 100 100 100 72 75 100 100 100 100 100 100 100 100 100 100 96 32 64 90 97 84 94 86 42
0 0 0 0 0 0 0 0 0 1 0 0 0 0 0 0 3 4 0 0 0 17 100 100 100 100 100 100 80 22 94 91 100 26 40 96 100 100 100 55 43 72 98 100 100 94 91 97 86
0 0 0 0 0 5 0 0 0 0 0 0 0 0 0 0 0 0 0 0 0 1 100 100 100 100 100 100 100 69 55 26 5 24 63 97 74 96 100 82 79 100 100 100 100 100 99 100 99
0 0 0 3 2 4 25 0 0 0 0 0 0 0 0 0 0 0 0 0 0 0 24 100 100 100 100 100 100 78 21 51 100 95 85 82 54 39 97 89 100 100 100 100 100 100 89 100 100
4 0 4 41 93 55 31 64 0 0 0 0 0 0 1 3 0 0 0 0 0 0 5 8 100 100 100 100 100 100 48 100 100 96 97 100 76 52 100 100 100 100 100 100 100 100 100 97 100
3 5 5 6 100 94 0 38 0 0 0 99 100 6 4 0 0 0 0 4 4 0 87 95 59 99 100 100 100 100 100 100 100 93 100 100 100 100 100 100 100 100 100 100 100 100 100 100 100
1 5 7 41 97 88 0 0 69 30 100 100 97 100 100 27 0 0 19 32 5 4 92 100 100 100 100 100 100 100 100 100 100 100 100 100 100 100 100 100 100 100 100 100 100 100 100 100 100
5 49 33 3 36 9 13 23 12 98 100 100 100 100 100 100 100 100 100 100 100 99 96 100 100 100 100 100 100 100 100 100 100 100 100 100 100 100 100 100 100 100 100 100 100 100 100 100 100
57 94 99 93 5 2 66 40 100 100 100 100 100 100 100 100 100 100 100 100 100 100 100 100 29 100 99 100 100 100 100 100 100 100 14 56 70 93 79 100 100 100 100 100 100 100 100 100 100
100 100 100 100 14 95 8 70 100 93 100 100 100 100 100 100 100 100 100 100 100 96 96 65 100 100 64 66 100 44 100 100 100 98 81 7 55 81 100 100 100 100 100 100 100 100 100 100 100
99 74 83 100 97 100 100 98 100 100 100 100 100 100 100 100 100 100 100 100 100 100 96 100 100 100 100 100 99 99 65 100 100 86 24 67 47 86 100 100 100 100 100 100 100 100 100 100 100
5 81 92 96 79 100 99 100 100 100 100 100 100 100 100 100 100 100 100 100 100 100 100 86 100 100 73 99 100 100 100 100 100 100 100 94 100 99 100 100 100 100 100 100 100 100 100 100 100
5 88 100 100 100 100 100 100 100 100 100 100 100 100 100 100 100 100 100 100 100 100 100 100 100 100 94 100 99 100 100 100 100 100 100 100 31 66 95 97 100 100 100 100 94 100 100 100 100

GFSSGP_prec_cloud_132.txt.gz
Cloud_Cover
15 7 72 100 100 100 100 75 60 82 12 8 19 29 24 16 16 5 3 0 0 2 4 4 0 0 1 0 1 14 0 0 0 0 0 0 0 0 0 0 0 0 0 0 0 0 0 0 0
68 99 97 57 26 86 100 100 98 34 5 54 94 70 51 97 62 63 61 57 42 5 2 4 6 0 0 0 0 13 13 0 0 0 0 0 0 0 0 0 0 0 0 0 0 0 0 0 0
0 4 0 4 59 5 0 0 2 46 66 63 97 36 56 24 25 14 5 4 4 3 0 0 1 0 0 0 0 0 9 0 0 0 0 0 0 0 0 0 0 0 0 0 0 0 0 0 0
0 0 0 0 0 0 0 0 0 0 0 0 0 2 2 2 0 0 0 0 0 0 0 70 7 0 0 0 0 0 0 0 0 0 0 0 0 0 0 0 0 0 0 0 3 0 0 0 0
0 0 0 0 0 0 0 0 0 0 0 0 0 0 0 0 0 0 0 0 0 0 0 10 7 0 0 0 0 0 0 0 0 0 0 0 0 0 0 0 0 0 0 0 0 0 0 0 0
0 0 0 0 0 0 0 0 0 0 0 0 0 0 0 0 0 0 0 0 0 2 4 12 18 0 0 0 0 0 0 0 0 0 0 0 0 0 0 0 0 0 0 0 0 0 0 0 0
4 4 0 1 2 2 0 0 0 0 0 0 0 0 0 0 0 0 0 0 0 9 40 39 4 1 30 0 0 0 0 0 0 0 0 0 0 0 0 0 0 0 0 0 0 0 0 0 0
5 2 0 56 43 35 26 3 2 0 0 0 0 0 0 0 0 0 0 0 1 0 4 21 19 0 0 0 7 0 0 0 0 0 0 0 6 0 5 1 2 0 5 0 0 0 0 0 0
0 0 0 1 3 0 83 84 35 5 5 7 2 0 0 1 0 0 4 4 1 9 1 18 19 13 7 12 6 53 24 1 9 13 3 68 0 0 8 1 6 5 5 5 5 1 0 0 9
0 0 0 2 4 2 2 3 31 3 2 4 40 81 52 50 4 3 3 5 0 7 1 0 15 18 1 2 14 2 0 0 0 1 0 0 1 5 2 9 5 5 66 5 5 5 6 45 0
5 5 5 5 5 5 5 1 3 3 19 99 100 100 9 4 1 3 5 2 0 0 4 5 23 10 30 3 6 0 0 0 7 5 5 8 44 63 51 63 58 8 13 5 42 20 52 8 28
5 7 10 5 5 6 5 5 5 0 4 98 4 47 100 10 5 5 5 5 5 0 6 5 3 7 96 93 24 34 3 0 3 6 24 8 53 97 69 100 72 99 19 79 75 95 100 67 22
15 35 7 6 5 5 3 5 5 5 5 3 4 17 95 100 100 60 76 70 100 56 11 5 4 89 59 5 1 3 0 6 1 10 39 17 24 59 61 97 100 100 94 100 94 92 88 84 16
16 13 5 5 5 0 4 5 4 5 5 3 1 70 100 100 100 100 100 100 100 100 100 98 21 21 100 95 0 12 36 12 11 6 60 43 10 43 64 94 99 100 100 98 44 69 68 57 68
47 5 5 5 5 0 0 4 0 0 3 5 5 1 7 100 100 92 100 100 100 100 100 82 35 98 100 100 67 5 16 85 95 67 87 100 30 37 55 42 35 88 98 92 71 96 99 75 57
99 51 24 5 5 4 0 4 4 4 2 0 1 5 5 6 44 18 10 100 98 100 100 100 100 22 98 100 100 95 5 93 100 52 80 100 99 32 62 54 22 44 96 82 90 98 86 90 93
99 22 5 5 5 1 0 30 5 0 0 1 0 2 4 5 75 100 100 100 100 100 100 100 100 100 72 100 100 100 4 11 10 93 88 100 90 92 74 37 69 21 91 100 44 53 76 64 87
80 95 94 9 4 5 5 3 4 4 0 0 0 0 0 0 5 15 100 100 100 100 100 100 98 100 100 100 100 100 95 11 10 27 5 44 100 100 100 66 99 31 6 84 100 99 56 67 52
5 5 6 5 2 0 0 0 0 0 0 0 0 0 0 0 0 0 42 42 16 30 58 71 100 52 100 100 100 100 100 100 28 7 8 5 98 100 100 82 72 74 6 8 100 100 100 95 99
4 0 0 0 0 0 0 0 0 0 0 0 0 0 0 0 0 0 0 95 5 39 5 11 5 42 7 5 82 100 100 100 20 5 7 22 100 100 100 67 94 30 71 68 100 100 100 100 100
22 5 1 0 0 2 4 0 0 0 0 0 2 4 1 5 5 19 1 1 3 0 5 5 6 27 12 5 14 100 100 100 21 97 92 91 65 71 100 99 43 34 75 100 100 100 100 100 100
61 6 5 5 4 5 20 16 0 0 1 9 8 62 40 54 54 56 8 2 0 0 0 4 0 5 7 49 22 20 100 100 100 100 87 32 8 66 70 99 100 95 100 100 100 100 100 100 100
20 30 10 12 5 47 3 4 0 3 97 30 5 15 90 87 100 47 4 4 4 0 0 0 2 4 13 46 65 5 80 100 100 100 100 100 64 14 48 100 100 98 100 100 100 100 100 100 100
5 40 93 13 5 28 0 0 0 88 100 100 100 52 56 100 100 100 98 48 7 0 0 0 2 11 34 9 90 75 53 100 100 100 100 100 100 70 77 100 98 100 93 100 100 100 100 100 100
75 87 14 38 50 4 2 22 97 100 92 100 100 100 87 100 100 100 100 100 100 100 100 100 84 95 85 98 100 100 97 100 100 100 100 100 100 100 100 100 100 100 100 100 100 100 100 100 100
90 52 50 99 5 5 5 76 100 80 77 99 100 89 92 100 100 100 100 100 100 100 100 100 100 100 100 100 100 100 100 100 100 100 100 100 100 100 100 100 100 100 100 100 100 100 100 100 100
66 74 30 75 85 100 84 100 100 55 45 96 99 100 100 100 100 100 100 100 100 100 100 100 100 100 100 100 100 100 100 100 96 100 100 100 100 100 100 82 90 100 100 100 100 100 100 100 100
90 71 82 97 99 100 100 100 100 40 94 97 100 100 100 100 100 100 100 100 100 100 100 100 100 100 100 100 100 100 100 92 78 100 100 100 24 31 98 98 93 91 100 100 100 100 100 100 100
89 100 97 79 78 100 100 100 100 100 100 99 100 100 100 100 100 100 100 100 100 100 100 100 100 100 100 100 100 53 22 81 98 64 24 28 16 81 100 97 66 81 100 100 100 100 100 100 100
99 89 99 95 100 100 100 100 100 100 100 100 100 100 100 100 100 100 100 100 100 100 100 100 100 100 92 100 100 100 100 46 22 44 29 5 5 13 87 100 98 26 32 97 35 100 100 100 100